     2.11           OBSERVATION DATA    G (GPS)             RINEX VERSION / TYPE
teqc 2007Jun25 20080612 09:42:04UTC                         PGM / RUN BY / DATE
MSXP|IAx86-PII|bcc32 5.0|MSWin95->XP|486/DX+                COMMENT
2.10 OBSERVATION DATA G (GPS)                               COMMENT
JPS2RIN 1.40 RUN BY 12-JUN-08 11:10                         COMMENT
build Feb 6 2004 (c) Javad Navigation Systems               COMMENT
Use -p (profile) switch to override ANTENNA TYPE and DELTA  COMMENT
and other fields                                            COMMENT
cnp0505a.jps                                                COMMENT
SE TPS 00000000                                             COMMENT
cnp0505a_2848                                               MARKER NAME
OBSERVER AGENCY                                             OBSERVER / AGENCY
MT300602848 TPS LEGACY 2.3 Apr,28,2004 p4                   REC # / TYPE / VERS
cnp0505a -Unknown-                                          ANT # / TYPE
   387440.1414  -738607.6341  6302210.2770                  APPROX POSITION XYZ
        0.0000        0.0000        0.0000                  ANTENNA: DELTA H/E/N
     1     1                                                WAVELENGTH FACT L1/2
     7    C1    P1    P2    L1    L2    D1    D2            # / TYPES OF OBSERV
    30.0000                                                 INTERVAL
Forced Modulo Decimation to 30 seconds                      COMMENT
teqc windowed: start @ 2008 May 5 12:21:30.000              COMMENT
  2008     5     5    12    21   30.0000000     GPS         TIME OF FIRST OBS
                                                            END OF HEADER
 08  5  5 12 21 30.0000000  0  6G 2G 4G10G16G23G29
  22170752.146    22170751.6614   22170751.1314  116508090.512 8  90785539.01145
     -1276.025        -994.304
  24466189.639    24466190.1954   24466197.6584  128570702.209 6 100184973.40342
     -3228.363       -2515.661
  23550558.341    23550557.3494   23550559.3014  123759017.646 6  96435617.14443
      3519.771        2742.677
  24211929.066    24211928.5584   24211929.3244  127234558.756 6  99143816.9104
      2973.613        2317.142
  23073974.684                                   121254561.855 7
     -1731.134
  22652531.309                                   119039855.419 7
      1178.669
 08  5  5 12 22  0.0000000  0  9G 2G 4G10G13G16G23G24G25G29
  21278766.948    21278766.7194   21278765.8554  111820677.066 8  87133008.96645
     -1314.293       -1024.121
  23585317.837    23585319.6764   23585320.7624  123941694.940 5  96577954.80142
     -3255.179       -2536.552
  22631172.115    22631172.3834   22631173.9474  118927614.545 6  92670887.44643
      3488.292        2718.167
  21355511.756    21355511.7564   21355512.3124  112223969.580 8  87447265.59445
       897.519         699.368
  23295665.798    23295665.7224   23295667.5574  122419567.861 5  95391876.02842
      2940.575        2291.338
  22184584.197    22184583.6014   22184582.2954  116580781.897 7  90842177.14844
     -1768.000       -1377.662
  23467265.635                                   123321310.802 6
      3576.539
  23730317.772                                   124703657.556 6
      3127.510
  21746532.727    21746532.6714   21746533.4554  114278801.565 8  89048430.71846
      1140.023         888.327
 08  5  5 12 22 30.0000000  0 11G 2G 4G10G13G16G23G24G25G29G30G31
  21286370.394    21286370.0874   21286369.1844  111860632.245 8  87164142.82845
     -1351.047       -1052.784
  23603971.158    23603970.1884   23603971.8904  124039709.305 6  96654329.60342
     -3280.658       -2556.391
  22611340.060    22611338.7164   22611340.7824  118823392.055 6  92589675.27643
      3458.312        2694.800
  21350496.675    21350497.1334   21350497.6204  112197617.171 8  87426731.21045
       857.727         668.358
  23278966.165    23278966.1544   23278968.1344  122331808.169 6  95323491.93142
      2908.403        2266.257
  22194773.711    22194773.7594   22194772.0944  116634329.773 7  90883902.68744
     -1803.419       -1405.268
  23446919.331    23446919.0594   23446922.1474  123214391.422 5  96011233.65942
      3549.698        2766.024
  23712540.291    23712540.3864   23712541.4864  124610241.163 6  97098906.07342
      3098.575        2414.451
  21740126.055    21740126.0724   21740127.1454  114245135.419 8  89022197.30246
      1102.747         859.272
  24176941.860    24176942.3794   24176943.6484  127050706.220 6  99000554.45443
     -3412.751       -2659.329
  24333268.660    24333268.4164   24333267.8144  127872220.953 5  99640680.34642
     -2938.122       -2289.484
 08  5  5 12 23  0.0000000  0 11G 2G 4G10G13G16G23G24G25G29G30G31
  21294186.732    21294186.2694   21294185.4994  111901707.197 7  87196149.28745
     -1387.587       -1081.236
  23622769.505    23622769.5054   23622772.2974  124138501.235 6  96731310.25242
     -3305.776       -2575.928
  22591682.261    22591681.2774   22591682.7564  118720090.481 6  92509180.66143
      3428.153        2671.260
  21345712.737    21345712.5444   21345713.0954  112172474.378 8  87407139.38845
       818.139         637.511
  23262452.096    23262450.6454   23262452.4274  122245022.171 5  95255866.54042
      2876.732        2241.610
  22205168.917    22205168.7064   22205167.7894  116688957.071 7  90926469.38244
     -1838.762       -1432.837
  23426730.073    23426729.7154   23426732.1784  123108293.181 6  95928559.71042
      3523.206        2745.365
  23694934.053    23694933.6774   23694936.3144  124517717.157 6  97026809.57642
      3069.407        2391.750
  21733935.491    21733935.6674   21733936.5824  114212603.276 7  88996847.56046
      1065.738         830.450
  24196495.803    24196496.2324   24196497.4624  127153461.154 6  99080623.14743
     -3438.422       -2679.305
  24350117.475    24350117.6444   24350118.6684  127960761.692 6  99709673.06142
     -2964.680       -2310.112
 08  5  5 12 23 30.0000000  0 11G 2G 4G10G13G16G23G24G25G29G30G31
  21302215.834    21302215.2934   21302214.6064  111943899.910 8  87229026.75545
     -1426.085       -1111.242
  23641716.505    23641716.5684   23641718.6144  124238068.633 6  96808895.25042
     -3332.895       -2597.084
  22572200.766    22572199.4494   22572201.8054  118617712.523 6  92429405.66843
      3396.100        2646.312
  21341158.338    21341158.4854   21341158.7954  112148542.066 8  87388490.80245
       776.538         605.092
  23246121.993    23246122.2344   23246123.0274  122159212.140 6  95189001.61842
      2842.596        2214.965
  22215769.839    22215769.2174   22215768.2284  116744661.554 7  90969875.45744
     -1875.827       -1461.689
  23406696.890    23406696.8314   23406699.7864  123003018.176 6  95846527.24042
      3494.410        2722.905
  23677497.824    23677497.3974   23677499.2364  124426087.504 6  96955409.82542
      3038.119        2367.361
  21727960.689    21727960.8014   21727961.6904  114181205.609 8  88972381.80246
      1026.616         799.958
  24216197.756    24216198.2274   24216200.1114  127256996.936 6  99161300.28143
     -3465.052       -2700.026
  24367121.298    24367121.5574   24367122.9114  128050121.240 6  99779303.83742
     -2993.404       -2332.562
 08  5  5 12 24  0.0000000  0 11G 2G 4G10G13G16G23G24G25G29G30G31
  21310450.165    21310450.0154   21310449.2534  111987173.333 8  87262746.26345
     -1460.593       -1138.132
  23660804.509    23660803.0564   23660806.4294  124338372.479 6  96887053.92442
     -3355.812       -2614.950
  22552887.708    22552886.6874   22552889.1504  118516225.109 7  92350324.57243
      3367.931        2624.366
  21336828.002    21336827.9344   21336828.5284  112125784.774 8  87370757.76145
       738.873         575.728
  23229972.092    23229971.9464   23229973.1314  122074344.899 6  95122871.38142
      2813.104        2192.008
  22226567.767    22226566.9184   22226565.9574  116801405.342 7  91014091.34244
     -1908.834       -1487.420
  23386814.629    23386812.6814   23386815.7804  122898533.131 6  95765110.28142
      3469.503        2703.500
  23660225.248    23660224.0764   23660225.8974  124335320.026 6  96884682.14942
      3011.230        2346.393
  21722195.707    21722195.3244   21722196.4724  114150907.793 8  88948773.05446
       991.485         772.577
  24236042.023    24236042.6294   24236043.7944  127361275.270 6  99242556.07342
     -3488.436       -2718.253
  24384275.576    24384275.1854   24384276.7994  128140261.133 6  99849542.66842
     -3017.785       -2351.517
 08  5  5 12 24 30.0000000  0 11G 2G 4G10G13G16G23G24G25G29G30G31
  21318892.849    21318892.3784   21318891.6104  112031538.078 8  87297316.15645
     -1495.998       -1165.712
  23680033.656    23680033.0254   23680035.6124  124439423.527 6  96965795.03142
     -3379.593       -2633.480
  22533747.637    22533746.7814   22533749.1864  118415642.864 6  92271948.76643
      3338.579        2601.480
  21332723.425    21332723.4284   21332724.0184  112104215.453 8  87353950.43545
       700.190         545.609
  23214005.436    23214004.6854   23214004.9284  121990435.322 6  95057487.35742
      2782.032        2167.817
  22237565.293    22237564.9174   22237563.4414  116859198.515 7  91059124.97544
     -1942.832       -1513.896
  23367084.299    23367084.2934   23367086.5614  122794852.823 5  95684320.42142
      3443.629        2683.343
  23643118.766    23643118.5334   23643120.1944  124245428.461 5  96814636.90742
      2982.978        2324.414
  21716641.666    21716641.6964   21716642.7914  114121723.163 7  88926031.77546
       955.260         744.352
  24256029.245    24256029.2564   24256029.9644  127466305.178 6  99324397.49542
     -3512.407       -2736.919
  24401578.874    24401578.0864   24401578.9364  128231190.657 6  99920396.80343
     -3043.199       -2371.326
 08  5  5 12 25  0.0000000  0 11G 2G 4G10G13G16G23G24G25G29G30G31
  21327534.063    21327533.3184   21327533.0924  112076947.228 8  87332699.86645
     -1530.877       -1192.896
  23699396.091    23699396.2754   23699397.6704  124541173.954 5  97045081.24242
     -3403.166       -2651.834
  22514771.304    22514770.1274   22514773.1594  118315923.448 6  92194245.30743
      3309.682        2578.960
  21328836.697    21328836.5434   21328837.1624  112083789.449 8  87338034.05345
       661.885         515.758
  23198212.368    23198211.6064   23198212.1264  121907440.573 6  94992816.17842
      2751.257        2143.872
  22248753.837    22248753.3454   22248752.2614  116917993.827 7  91104939.50844
     -1976.465       -1540.104
  23347499.188    23347499.0194   23347502.4944  122691934.448 5  95604124.34042
      3417.987        2663.383
  23626170.954    23626171.4744   23626173.0594  124156370.062 6  96745240.84342
      2954.852        2302.453
  21711291.373    21711291.4954   21711292.5244  114093607.434 8  88904123.46546
       919.570         716.535
  24276148.866    24276150.0414   24276151.4454  127572038.538 6  99406787.06742
     -3535.671       -2755.038
  24419023.326    24419023.1054   24419024.1744  128322862.210 6  99991829.10543
     -3068.102       -2390.680
 08  5  5 12 25 30.0000000  0 11G 2G 4G10G13G16G23G24G25G29G30G31
  21336371.225    21336370.9834   21336370.0964  112123388.102 8  87368887.56945
     -1565.525       -1219.887
  23718888.448    23718887.9984   23718889.7644  124643609.345 5  97124900.98842
     -3426.200       -2669.804
  22495958.449    22495957.3034   22495959.9404  118217057.990 6  92117207.30643
      3280.942        2556.534
  21325165.092    21325165.1794   21325165.7864  112064495.565 8  87322999.78745
       623.922         486.160
  23182590.092    23182589.7754   23182592.5514  121825351.582 6  94928850.75342
      2720.769        2120.065
  22260130.170    22260129.9374   22260128.5454  116977777.470 7  91151524.13644
     -2009.545       -1565.867
  23328057.136    23328057.6444   23328060.5874  122589768.725 6  95524514.73742
      3392.914        2643.801
  23609381.240    23609381.0704   23609383.2424  124068136.056 6  96676487.09442
      2926.986        2280.782
  21706142.424    21706142.6974   21706143.5694  114066549.794 8  88883039.56646
       884.008         688.832
  24296400.802    24296401.8384   24296402.7424  127678460.900 6  99489713.49842
     -3558.990       -2773.195
  24436605.838    24436606.1944   24436607.1084  128415261.741 6 100063828.71143
     -3092.373       -2409.637
 08  5  5 12 26  0.0000000  0 11G 2G 4G10G13G16G23G24G25G29G30G31
  21345406.078    21345405.9144   21345405.1824  112170867.298 8  87405884.35345
     -1599.484       -1246.345
  23738514.152    23738514.1024   23738515.6684  124746735.981 6  97205259.25942
     -3448.595       -2687.243
  22477309.504    22477308.4514   22477311.2464  118119057.962 6  92040843.58443
      3252.630        2534.537
  21321710.957    21321710.8754   21321711.6494  112046343.396 8  87308855.18345
       586.554         457.061
  23167144.084    23167142.9134   23167145.2094  121744179.447 6  94865599.80242
      2690.741        2096.699
  22271696.109    22271695.8374   22271694.5834  117038556.064 7  91198884.02944
     -2042.057       -1591.228
  23308761.729    23308761.9624   23308764.3304  122488366.626 6  95445500.14142
      3367.700        2624.158
  23592749.892    23592749.4794   23592750.6664  123980737.337 6  96608384.12442
      2899.943        2259.701
  21701196.410    21701196.8434   21701197.7374  114040559.388 8  88862787.26446
       848.956         661.523
  24316784.232    24316784.0614   24316785.6364  127785578.071 5  99573181.36342
     -3581.669       -2790.936
  24454328.306    24454329.3724   24454329.0654  128508395.239 6 100136400.25542
     -3116.371       -2428.371
 08  5  5 12 26 30.0000000  0 11G 2G 4G10G13G16G23G24G25G29G30G31
  21354636.307    21354636.2124   21354635.4914  112219373.480 8  87443681.38245
     -1634.107       -1273.333
  23758265.591    23758266.0094   23758269.5564  124850541.742 5  97286146.74742
     -3471.657       -2705.186
  22458824.489    22458823.2464   22458825.1724  118021915.551 6  91965148.14243
      3223.663        2511.931
  21318472.127    21318472.0094   21318473.0214  112029323.410 8  87295592.87745
       548.339         427.288
  23151871.723    23151870.1024   23151871.6404  121663916.776 6  94803057.47242
      2660.115        2072.805
  22283448.419    22283448.5264   22283447.5634  117100317.443 7  91247009.70344
     -2075.261       -1617.076
  23289610.600    23289609.5064   23289611.5674  122387720.713 6  95367074.75942
      3341.978        2604.128
  23576275.749    23576275.3494   23576276.9654  123894166.591 6  96540926.35342
      2871.644        2237.646
  21696452.367    21696452.4464   21696453.5124  114015627.615 7  88843359.90346
       813.111         633.589
  24337298.170    24337298.1474   24337300.5614  127893376.870 5  99657180.45541
     -3604.910       -2808.969
  24472188.832    24472188.9114   24472190.0124  128602250.041 6 100209533.81742
     -3140.626       -2447.242
 08  5  5 12 27  0.0000000  0 11G 2G 4G10G13G16G23G24G25G29G30G31
  21364057.526    21364057.0194   21364056.5814  112268880.893 8  87482258.59045
     -1667.373       -1299.234
  23778144.124    23778144.9854   23778146.9994  124954999.983 5  97367542.60542
     -3493.515       -2722.228
  22440497.938    22440496.3464   22440498.5224  117925609.493 7  91890104.56243
      3195.723        2490.175
  21315444.425    21315444.1744   21315444.8784  112013411.647 8  87283194.10545
       511.344         398.470
  23136766.576    23136765.1094   23136767.6814  121584541.947 6  94741206.94142
      2630.701        2049.924
  22295383.676    22295383.2834   22295382.1304  117163035.423 7  91295880.81744
     -2107.044       -1641.845
  23270597.460    23270597.5014   23270598.7444  122287809.235 6  95289221.67242
      3317.414        2584.982
  23559955.946    23559955.1374   23559957.2524  123808402.152 6  96474096.90042
      2844.928        2216.812
  21691905.003    21691905.0414   21691906.1084  113991730.752 8  88824739.01646
       778.808         606.869
  24357935.508    24357936.1144   24357937.2344  128001830.248 5  99741689.47241
     -3626.591       -2825.909
  24490180.978    24490181.7424   24490181.7804  128696799.543 6 100283208.69642
     -3163.588       -2465.110
 08  5  5 12 27 30.0000000  0 11G 2G 4G10G13G16G23G24G25G29G30G31
  21373662.625    21373662.1794   21373661.4954  112319355.554 7  87521589.48245
     -1698.401       -1323.419
  23798139.612    23798140.2004   23798143.7034  125060076.387 6  97449420.19142
     -3512.850       -2737.271
  22422324.192    22422323.6564   22422325.6124  117830110.399 6  91815689.64643
      3170.098        2470.245
  21312621.248    21312621.2674   21312621.8604  111998576.638 8  87271634.31845
       476.793         371.543
  23121824.733    23121824.5964   23121824.8854  121506025.331 6  94680025.19142
      2603.031        2028.310
  22307494.135    22307493.7574   22307491.9964  117226675.495 7  91345470.39544
     -2136.501       -1664.776
  23251718.703    23251718.4314   23251721.3714  122188602.694 6  95211917.90042
      3295.381        2567.833
  23543783.152    23543782.2764   23543784.1884  123723414.409 6  96407872.73242
      2820.269        2197.606
  21687548.605    21687548.4934   21687549.4954  113968837.623 8  88806900.25245
       746.566         581.759
  24378690.676    24378691.8904   24378694.0194  128110903.266 5  99826681.33941
     -3645.794       -2840.867
  24508298.932    24508299.3704   24508299.1194  128792009.087 6 100357397.85742
     -3184.550       -2481.439
 08  5  5 12 28  0.0000000  0 11G 2G 4G10G13G16G23G24G25G29G30G31
  21383454.742    21383454.6084   21383453.9554  112370814.522 7  87561687.31645
     -1731.124       -1348.916
  23818256.902    23818256.1804   23818259.6954  125165787.118 5  97531792.05542
     -3533.598       -2753.462
  22404308.915    22404308.6974   22404310.7044  117735439.603 6  91741920.20443
      3142.564        2448.770
  21310006.589    21310006.7034   21310007.2834  111984837.340 8  87260928.33145
       440.322         343.107
  23107051.567    23107050.1174   23107051.3104  121428387.994 6  94619528.58043
      2573.786        2005.546
  22319783.190    22319782.8374   22319781.8094  117291254.797 7  91395791.90744
     -2167.601       -1689.043
  23232978.776    23232978.5974   23232981.6334  122090121.749 6  95135179.53042
      3271.176        2548.955
  23527761.787    23527762.1764   23527763.9254  123639224.305 6  96342270.06042
      2793.679        2176.920
  21683386.492    21683386.6584   21683387.7604  113946967.465 8  88789858.57946
       712.548         555.222
  24399567.750    24399567.4464   24399571.7194  128220611.758 5  99912168.30641
     -3666.932       -2857.329
  24526545.204    24526545.4554   24526546.2724  128887894.695 6 100432113.86742
     -3206.804       -2498.832
 08  5  5 12 28 30.0000000  0 11G 2G 4G10G13G16G23G24G25G29G30G31
  21393428.706    21393428.5144   21393428.1184  112423227.684 7  87602528.66945
     -1763.438       -1374.104
  23838485.527    23838486.6244   23838490.7084  125272101.045 5  97614633.90042
     -3554.029       -2769.378
  22386446.376    22386445.6304   22386448.4094  117641570.814 7  91668775.68043
      3115.066        2427.320
  21307595.774    21307595.3174   21307595.8824  111972165.695 8  87251054.31945
       404.112         314.880
  23092440.241    23092438.8174   23092440.6284  121351603.947 6  94559696.88743
      2544.487        1982.730
  22332244.745    22332244.3994   22332243.2224  117356742.109 7  91446820.99844
     -2198.486       -1713.127
  23214371.058    23214370.7294   23214373.7284  121992340.193 6  95058986.14943
      3247.106        2530.175
  23511888.303    23511887.6944   23511889.9414  123555805.880 6  96277268.71042
      2767.058        2156.170
  21679414.138    21679414.3194   21679415.5274  113926092.794 8  88773592.61146
       678.657         528.817
  24420559.709    24420560.7364   24420562.7994  128330924.591 5  99998126.37841
     -3687.303       -2873.216
  24544914.613    24544914.3544   24544915.5394  128984425.173 6 100507332.42542
     -3228.746       -2515.901
 08  5  5 12 29  0.0000000  0 11G 2G 4G10G13G16G23G24G25G29G30G31
  21403583.563    21403582.8444   21403582.4174  112476589.500 7  87644109.24045
     -1793.857       -1397.832
  23858832.263    23858832.4924   23858834.6444  125379012.419 6  97697941.25742
     -3573.191       -2784.262
  22368736.720    22368735.6644   22368738.1534  117548503.022 7  91596255.33743
      3089.631        2407.486
  21305386.709    21305386.7054   21305387.4254  111960558.395 8  87242009.68345
       369.785         288.149
  23077990.430    23077989.7604   23077990.9784  121275671.775 6  94500528.97443
      2517.438        1961.621
  22344878.673    22344877.9104   22344876.8094  117423131.525 7  91498553.03644
     -2227.285       -1735.552
  23195897.274    23195897.1394   23195899.3064  121895256.815 6  94983336.76843
      3225.179        2513.118
  23496160.847    23496160.2854   23496161.4754  123473157.839 6  96212867.71542
      2742.461        2137.002
  21675631.078    21675630.9834   21675632.0704  113906210.367 8  88758099.78546
       646.866         504.049
  24441666.454    24441667.5934   24441666.3534  128441834.285 5 100084549.48541
     -3706.363       -2888.061
  24563405.433    24563405.6854   24563406.6944  129081594.170 6 100583048.44942
     -3248.699       -2531.537
 08  5  5 12 29 30.0000000  0 11G 2G 4G10G13G16G23G24G25G29G30G31
  21413916.699    21413916.1704   21413915.8054  112530890.520 8  87686421.65745
     -1825.006       -1422.053
  23879290.089    23879288.4594   23879290.4314  125486511.056 6  97781706.41442
     -3592.791       -2799.597
  22351177.772    22351176.7324   22351179.4524  117456230.458 7  91524354.56044
      3062.885        2386.683
  21303379.240    21303378.7644   21303379.7534  111950007.648 8  87233788.28245
       334.562         260.694
  23063701.491    23063701.4184   23063702.6944  121200585.975 6  94442020.55343
      2489.227        1939.693
  22357681.614    22357681.4524   22357680.1544  117490412.712 7  91550979.95544
     -2257.085       -1758.737
  23177554.839    23177553.8454   23177556.2964  121798866.175 6  94908227.20343
      3201.716        2494.854
  23480578.863    23480578.2834   23480580.3804  123391274.476 6  96149062.54742
      2717.257        2117.348
  21672035.067    21672035.0884   21672035.9864  113887313.247 8  88743374.79946
       614.053         478.486
  24462882.161    24462882.7114   24462881.3004  128553330.651 4 100171429.84741
     -3725.865       -2903.317
  24582016.057    24582016.2044   24582017.1494  129179391.195 6 100659253.88342
     -3269.925       -2548.027
 08  5  5 12 30  0.0000000  0 11G 2G 4G10G13G16G23G24G25G29G30G31
  21424420.700    21424420.5924   21424420.2504  112586091.645 7  87729435.51045
     -1855.646       -1445.960
  23899849.635    23899849.0334   23899851.4274  125594556.725 5  97865897.81942
     -3611.283       -2814.016
  22333763.802    22333763.0754   22333765.2024  117364719.040 6  91453046.95544
      3037.022        2366.520
  21301565.401    21301565.2024   21301565.9134  111940476.320 8  87226361.27945
       300.100         233.829
  23049567.794    23049567.6804   23049568.8224  121126311.108 6  94384144.06143
      2461.564        1918.095
  22370646.788    22370646.5794   22370645.4744  117558546.268 7  91604071.06544
     -2285.960       -1781.289
  23159337.179    23159336.8564   23159338.5804  121703133.090 6  94833630.04643
      3179.686        2477.663
  23465135.756    23465134.9934   23465136.9944  123310120.759 6  96085825.92743
      2692.373        2097.986
  21668619.165    21668619.4094   21668620.2204  113869363.972 8  88729388.37746
       581.959         453.465
  24484202.527    24484205.8714   24484206.7224  128665372.409 4 100258734.94741
     -3743.929       -2917.361
  24600737.729    24600737.8554   24600737.0984  129277775.941 6 100735917.32542
     -3289.672       -2563.403
 08  5  5 12 30 30.0000000  0 11G 2G 4G10G13G16G23G24G25G29G30G31
  21435098.786    21435098.5764   21435098.0564  112642204.742 7  87773159.98745
     -1886.477       -1469.979
  23920514.315    23920515.9104   23920517.8204  125703160.897 5  97950524.41342
     -3630.033       -2828.604
  22316497.669    22316496.9124   22316499.7694  117273984.940 6  91382345.06344
      3010.606        2345.909
  21299948.164    21299948.2324   21299948.6014  111931978.512 7  87219739.59945
       265.229         206.691
  23035591.857    23035590.5074   23035591.4934  121052863.998 6  94326912.55343
      2433.592        1896.317
  22383776.738    22383776.4054   22383775.1434  117627543.482 7  91657835.12044
     -2315.128       -1804.007
  23141248.292    23141247.2214   23141249.9564  121608073.467 6  94759557.60043
      3156.512        2459.612
  23449834.174    23449834.1334   23449836.5054  123229712.888 6  96023170.49142
      2666.889        2078.124
  21665386.985    21665387.0364   21665387.8484  113852377.698 8  88716152.35246
       549.308         428.040
  24505629.873    24505632.0764   24505632.7134  128777971.255 4 100346474.35041
     -3763.436       -2932.502
  24619573.393    24619573.2404   24619573.9654  129376760.002 5 100813047.77642
     -3310.126       -2579.274
 08  5  5 12 31  0.0000000  0 10G 2G 4G10G13G16G23G24G25G29G31
  21445944.313    21445943.7514   21445943.4434  112699197.405 8  87817569.86045
     -1914.222       -1491.626
  23941282.841    23941283.0454   23941284.9514  125812290.041 5  98035559.98942
     -3646.246       -2841.248
  22299373.599    22299373.1234   22299375.3804  117183999.775 7  91312226.77644
      2987.162        2327.630
  21298521.998    21298521.9284   21298522.7104  111924483.842 8  87213899.59845
       233.299         181.761
  23021767.361    23021766.3304   23021767.0874  120980216.093 6  94270303.82143
      2408.427        1876.703
  22397064.932    22397064.2524   22397062.7684  117697371.296 7  91712246.37944
     -2341.234       -1824.370
  23123281.433    23123281.1994   23123283.1784  121513659.005 6  94685987.86743
      3136.587        2444.080
  23434670.766    23434669.4184   23434671.1654  123150022.523 6  95961074.10442
      2644.420        2060.559
  21662331.969    21662332.1564   21662333.0964  113836324.048 8  88703643.02646
       519.851         405.062
  24638517.900    24638516.5114   24638517.4954  129476309.639 6 100890618.86042
     -3327.612       -2592.964
 08  5  5 12 31 30.0000000  0 10G 2G 4G10G13G16G23G24G25G29G31
  21456950.556    21456950.1654   21456949.8084  112757036.210 8  87862639.11045
     -1942.486       -1513.641
  23962143.553    23962142.0444   23962144.1904  125921910.779 5  98120978.64142
     -3662.707       -2854.002
  22282387.189    22282386.5904   22282389.2364  117094734.324 7  91242669.30644
      2962.896        2308.715
  21297280.641    21297280.8794   21297281.3564  111917961.216 8  87208817.08645
       200.651         156.337
  23008088.718    23008088.1954   23008089.3964  120908337.831 6  94214294.80243
      2382.622        1856.559
  22410504.158    22410503.3824   22410502.2084  117767995.903 7  91767278.52944
     -2367.831       -1845.064
  23105431.843    23105431.7824   23105434.0274  121419860.595 6  94612898.18643
      3115.793        2427.877
  23419636.841    23419636.0054   23419637.9784  123071020.310 6  95899513.91843
      2621.261        2042.546
  21659448.652    21659448.8404   21659449.7024  113821172.006 7  88691836.24146
       489.515         381.414
  24657562.228    24657562.5374   24657563.8794  129576390.646 6 100968603.98542
     -3345.464       -2606.894
 08  5  5 12 32  0.0000000  0 10G 2G 4G10G13G16G23G24G25G29G31
  21468119.258    21468118.7674   21468118.2894  112815727.045 8  87908372.20445
     -1970.945       -1535.800
  23983097.697    23983097.3544   23983100.4474  126032028.412 6  98206784.45042
     -3679.162       -2866.922
  22265539.349    22265538.0624   22265540.9204  117006198.915 6  91173680.63044
      2938.705        2289.874
  21296226.273    21296225.8904   21296226.6934  111912418.272 8  87204497.91545
       168.221         131.090
  22994560.058    22994558.9964   22994559.0444  120837239.814 6  94158893.74643
      2356.561        1836.292
  22424095.789    22424095.7144   22424095.2554  117839422.939 7  91822935.95344
     -2394.786       -1866.058
  23087701.959    23087701.5124   23087704.3114  121326688.878 6  94540296.88143
      3095.075        2411.738
  23404735.766    23404735.7414   23404737.2714  122992716.699 6  95838498.10743
      2598.309        2024.665
  21656738.582    21656738.6674   21656739.5494  113806930.105 8  88680738.69046
       459.264         357.863
  24676709.157    24676709.5834   24676709.4514  129677008.918 6 101047007.80542
     -3363.133       -2620.578
 08  5  5 12 32 30.0000000  0 10G 2G 4G10G13G16G23G24G25G29G31
  21479448.719    21479448.4604   21479448.1174  112875265.209 7  87954765.58845
     -1998.201       -1557.037
  24004142.424    24004145.1774   24004148.1534  126142637.498 5  98292973.21042
     -3694.788       -2879.049
  22248830.855    22248830.1754   22248832.7294  116918393.868 7  91105261.08044
      2915.215        2271.616
  21295357.145    21295357.1804   21295357.8374  111907852.251 8  87200939.97245
       136.351         106.244
  22981178.698    22981177.8244   22981178.4994  120766921.336 6  94104100.12543
      2331.498        1816.774
  22437839.966    22437839.5444   22437837.8084  117911647.085 7  91879214.46644
     -2420.200       -1885.878
  23070091.121    23070090.8694   23070093.5484  121234143.081 6  94468183.35843
      3075.041        2396.165
  23389967.667    23389968.2904   23389969.9574  122915111.112 6  95778026.24143
      2575.634        2006.976
  21654200.920    21654201.1534   21654202.1094  113793595.730 8  88670348.28846
       429.898         334.984
  24695957.520    24695957.2994   24695959.5574  129778158.215 6 101125825.39542
     -3380.052       -2633.826
 08  5  5 12 33  0.0000000  0 10G 2G 4G10G13G16G23G24G25G29G31
  21490939.747    21490939.3784   21490938.9254  112935648.967 7  88001817.81545
     -2027.624       -1579.972
  24025288.468    24025286.5644   24025288.2024  126253735.802 5  98379543.22042
     -3712.080       -2892.526
  22232261.555    22232260.1564   22232263.3484  116831321.499 7  91037412.57144
      2889.428        2251.496
  21294674.232    21294674.0594   21294674.8284  111904263.372 8  87198143.43545
       102.576          79.925
  22967945.474    22967945.3144   22967947.0274  120697384.670 6  94049915.70443
      2303.951        1795.310
  22451735.241    22451734.6994   22451733.5994  117984666.475 7  91936112.69344
     -2447.919       -1907.489
  23052600.277    23052599.2224   23052601.8784  121142225.105 6  94396558.91443
      3052.749        2378.768
  23375333.818    23375333.2104   23375335.0424  122838205.854 6  95718100.04843
      2551.225        1987.975
  21651836.780    21651836.5664   21651837.4214  113781169.738 8  88660665.72346
       398.312         310.367
  24715305.787    24715305.8004   24715306.3394  129879836.166 6 101205054.89842
     -3398.689       -2648.383
 08  5  5 12 33 30.0000000  0 10G 2G 4G10G13G16G23G24G25G29G31
  21502588.832    21502588.5044   21502588.1754  112996865.211 7  88049518.69145
     -2055.239       -1601.493
  24046517.754    24046519.2204   24046522.2224  126365309.762 5  98466483.95842
     -3727.935       -2904.870
  22215830.171    22215828.8874   22215831.3234  116744972.714 7  90970127.81044
      2865.260        2232.682
  21294175.227    21294175.2964   21294175.8464  111901640.334 8  87196099.47645
        70.452          54.890
  22954859.695    22954859.8244   22954861.0774  120628620.702 6  93996333.39043
      2278.454        1775.371
  22465779.095    22465778.2734   22465777.4604  118058467.143 7  91993619.69544
     -2473.913       -1927.756
  23035226.307    23035225.6884   23035228.3584  121050926.194 6  94325416.84943
      3032.133        2362.712
  23360830.282    23360830.2124   23360831.0734  122761992.051 6  95658712.68643
      2528.069        1969.922
  21649642.692    21649642.8884   21649643.6904  113769641.276 8  88651682.51646
       368.518         287.141
  24734752.771    24734752.6554   24734753.8184  129982028.784 6 101284685.49742
     -3416.109       -2661.952
 08  5  5 12 34  0.0000000  0 10G 2G 4G10G13G16G23G24G25G29G31
  21514395.093    21514394.6024   21514394.1804  113058906.753 7  88097862.73045
     -2082.024       -1622.355
  24067838.509    24067839.3934   24067842.8094  126477351.532 5  98553789.27042
     -3742.734       -2916.453
  22199535.456    22199534.2904   22199536.6104  116659344.678 7  90903404.60544
      2841.961        2214.529
  21293858.850    21293858.6714   21293859.5314  111899978.088 7  87194804.27845
        39.116          30.481
  22941921.666    22941920.7294   22941921.5434  120560626.442 6  93943350.82743
      2253.239        1755.784
  22479969.752    22479969.2584   22479968.3874  118133041.062 7  92051729.23944
     -2498.908       -1947.182
  23017969.623    23017968.9544   23017971.6154  120960243.394 6  94254754.96243
      3012.154        2347.135
  23346458.356    23346457.9844   23346459.8734  122686466.365 6  95599861.51343
      2505.477        1952.332
  21647618.910    21647618.6744   21647619.5874  113759005.179 7  88643394.64246
       339.349         264.432
  24754295.950    24754296.3384   24754296.6574  130084728.093 6 101364710.86842
     -3432.038       -2674.285
 08  5  5 12 34 30.0000000  0 10G 2G 4G10G13G16G23G24G25G29G31
  21526354.326    21526353.7224   21526353.3234  113121752.273 7  88146833.27745
     -2108.811       -1643.219
  24089243.045    24089246.5734   24089248.7424  126589838.653 5  98641441.36142
     -3757.351       -2927.797
  22183375.049    22183373.9594   22183376.3254  116574420.537 7  90837229.95244
      2818.498        2196.238
  21293721.197    21293721.3874   21293722.1284  111899257.103 7  87194242.49245
         7.733           6.031
  22929126.165    22929125.2894   22929126.6474  120493384.950 6  93890954.84643
      2228.148        1736.207
  22494303.721    22494303.6534   22494302.5134  118208366.669 7  92110424.46744
     -2523.937       -1966.713
  23000827.484    23000826.9014   23000829.9764  120870159.372 6  94184559.61443
      2992.149        2331.539
  23332214.807    23332214.4184   23332215.6994  122611611.783 6  95541533.29843
      2483.417        1935.123
  21645761.041    21645761.0624   21645761.7774  113749242.539 7  88635787.35346
       310.314         241.797
  24773931.091    24773931.4374   24773931.6834  130187911.936 6 101445113.79542
     -3447.923       -2686.721
 08  5  5 12 35  0.0000000  0 10G 2G 4G 7G10G13G16G23G24G25G29
  21538467.448    21538467.0924   21538466.8974  113185408.337 7  88196435.38045
     -2135.590       -1664.092
  24110736.464    24110736.6584   24110739.0964  126702778.251 5  98729446.23742
     -3772.339       -2939.505
  24650490.288    24650493.4714   24650493.8204  129539220.054 5 100939669.64941
      3601.022        2806.002
  22167350.512    22167349.4214   22167352.2264  116490211.515 6  90771612.44844
      2794.757        2177.749
  21293765.100    21293765.0314   21293765.6804  111899485.974 8  87194420.80745
       -23.674         -18.448
  22916476.158    22916475.2144   22916475.5904  120426907.028 6  93839153.90543
      2203.080        1716.677
  22508782.170    22508781.7224   22508780.8664  118284450.302 7  92169710.38944
     -2548.954       -1986.205
  22983800.960    22983800.7484   22983803.1884  120780685.433 6  94114839.64043
      2972.136        2315.960
  23318099.635    23318099.0254   23318100.1424  122537439.525 6  95483736.72343
      2460.883        1917.547
  21644071.116    21644071.3434   21644072.0444  113740362.799 8  88628868.09746
       281.107         219.048
 08  5  5 12 35 30.0000000  0 10G 2G 4G 7G10G13G16G23G24G25G29
  21550726.379    21550726.0914   21550725.7194  113249829.914 7  88246633.96145
     -2160.888       -1683.807
  24132307.895    24132305.5784   24132308.2964  126816124.620 5  98817768.07842
     -3785.668       -2949.814
  24629970.334    24629969.1694   24629969.7934  129431371.250 5 100855631.69441
      3587.347        2795.282
  22151454.464    22151453.8584   22151455.6484  116406676.941 7  90706520.54444
      2772.375        2160.254
  21293981.310    21293981.0894   21293982.0954  111900621.722 8  87195305.79645
       -53.615         -41.776
  22903962.959    22903962.3434   22903963.9494  120361151.877 6  93787916.18743
      2179.028        1697.932
  22523396.134    22523395.6824   22523395.2064  118361246.470 7  92229551.53744
     -2572.558       -2004.581
  22966883.196    22966883.0334   22966884.7974  120691780.542 6  94045563.01843
      2953.206        2301.188
  23304106.970    23304107.2194   23304108.5874  122463908.511 6  95426439.85243
      2439.605        1901.013
  21642541.442    21642541.4964   21642542.2814  113732322.898 8  88622603.23746
       253.257         197.349
 08  5  5 12 36  0.0000000  0 10G 2G 4G 7G10G13G16G23G24G25G29
  21563129.537    21563128.9144   21563128.4094  113315005.819 7  88297420.31145
     -2185.879       -1703.260
  24153949.983    24153950.6714   24153952.6554  126929865.924 5  98906397.70442
     -3798.981       -2960.195
  24609526.156    24609525.5714   24609527.3584  129323941.710 5 100771920.24841
      3573.001        2784.222
  22135685.816    22135684.7064   22135687.0054  116323809.411 7  90641948.33644
      2750.242        2143.067
  21294368.198    21294368.0654   21294368.7244  111902654.843 8  87196890.04845
       -83.574         -65.104
  22891586.119    22891585.5644   22891586.4134  120296112.154 6  93737235.91543
      2155.184        1679.385
  22538143.043    22538143.0434   22538141.5734  118438743.277 7  92289938.66044
     -2595.798       -2022.684
  22950071.733    22950071.4244   22950073.6044  120603437.449 7  93976724.17243
      2934.281        2286.484
  23290235.685    23290235.5264   23290236.0624  122391011.459 6  95369636.95943
      2418.365        1884.424
  21641169.799    21641169.6614   21641170.3774  113725113.939 8  88616985.86646
       225.603         175.816
 08  5  5 12 36 30.0000000  0 10G 2G 4G 7G10G13G16G23G24G25G29
  21575677.167    21575676.9244   21575676.4934  113380946.572 7  88348802.67945
     -2210.369       -1722.351
  24175673.541    24175669.5404   24175674.3854  127044012.249 5  98995343.02042
     -3811.057       -2969.653
  24589166.753    24589167.1274   24589168.7744  129216948.224 5 100688549.00641
      3559.656        2773.808
  22120046.718    22120044.9804   22120047.8684  116241624.356 7  90577908.00844
      2728.525        2126.145
  21294928.237    21294928.0134   21294928.8234  111905597.907 8  87199183.35345
      -112.952         -88.009
  22879348.745    22879348.0684   22879348.5634  120231802.788 6  93687124.75043
      2131.842        1661.200
  22553025.424    22553024.9264   22553024.1204  118516950.730 7  92350879.50144
     -2618.270       -2040.188
  22933370.567    22933370.4054   22933372.8734  120515671.423 6  93908335.07543
      2916.335        2272.504
  23276486.466    23276486.6264   23276487.8724  122318763.520 6  95313339.91443
      2397.951        1868.536
  21639958.092    21639958.0914   21639959.0774  113718748.726 8  88612025.94646
       198.396         154.601
 08  5  5 12 37  0.0000000  0 10G 2G 4G 7G10G13G16G23G24G25G29
  21588366.100    21588365.7824   21588365.1304  113447627.021 7  88400761.50945
     -2235.042       -1741.598
  24197462.347    24197464.3294   24197467.8904  127158537.624 5  99084583.61342
     -3824.218       -2979.917
  24568885.903    24568884.6194   24568887.2524  129110368.689 5 100605500.12741
      3546.051        2763.130
  22104532.511    22104531.8514   22104534.1734  116160101.123 7  90514383.47444
      2706.319        2108.815
  21295657.007    21295656.9234   21295657.4434  111909427.432 8  87202167.40945
      -142.618        -111.144
  22867246.005    22867245.2424   22867246.1114  120168202.310 6  93637565.97543
      2108.156        1642.694
  22568038.507    22568038.0664   22568037.0094  118595843.047 7  92412354.01844
     -2641.160       -2058.047
  22916775.617    22916775.2374   22916777.6544  120428461.282 6  93840379.11843
      2897.672        2257.922
  23262858.348    23262857.3334   23262858.9244  122247143.267 6  95257531.94343
      2376.760        1851.999
  21638903.389    21638903.3514   21638904.2384  113713204.469 8  88607705.71846
       171.019         133.264
 08  5  5 12 37 30.0000000  0 10G 2G 4G 7G10G13G16G23G24G25G29
  21601195.238    21601194.7754   21601194.4674  113515043.895 7  88453294.11545
     -2259.684       -1760.782
  24219332.753    24219330.8994   24219333.1354  127273438.397 5  99174116.47941
     -3836.370       -2989.388
  24548682.374    24548683.5374   24548683.6324  129004205.071 5 100522775.17641
      3531.576        2751.875
  22089145.553    22089144.4644   22089146.8494  116079240.663 7  90451375.30344
      2684.057        2091.474
  21296554.059    21296554.0604   21296554.9764  111914142.107 8  87205841.19945
      -172.141        -134.134
  22855277.797    22855277.6004   22855278.5324  120105312.178 6  93588560.70143
      2084.437        1624.263
  22583181.053    22583180.1474   22583179.6034  118675416.963 7  92474359.64044
     -2663.915       -2075.761
  22900285.999    22900284.9034   22900287.2884  120341807.985 6  93772857.02943
      2878.833        2243.255
  23249348.209    23249348.4024   23249348.9534  122176152.105 6  95202214.16743
      2355.643        1835.567
  21638004.299    21638004.3614   21638005.3244  113708480.301 8  88604024.52446
       143.584         111.881
 08  5  5 12 38  0.0000000  0 10G 2G 4G 7G10G13G16G23G24G25G29
  21614164.908    21614164.2214   21614163.7754  113583198.852 7  88506401.85045
     -2283.959       -1779.708
  24241268.196    24241266.5284   24241269.9744  127388716.720 5  99263943.74541
     -3848.466       -2998.846
  24528559.469    24528560.2494   24528560.5064  128898463.828 5 100440379.21141
      3517.884        2741.226
  22073885.727    22073884.8204   22073887.2044  115999049.372 7  90388888.54844
      2662.010        2074.304
  21297620.418    21297620.2664   21297621.1874  111919745.624 8  87210207.56045
      -201.475        -156.986
  22843446.702    22843446.2904   22843446.6744  120043138.404 6  93540113.65743
      2060.727        1605.754
  22598453.490    22598452.8884   22598452.1434  118755673.642 7  92536897.29144
     -2686.356       -2093.243
  22883903.348    22883902.9104   22883905.0494  120255717.902 6  93705773.81543
      2860.522        2229.008
  23235961.286    23235960.3354   23235961.3854  122105796.073 6  95147391.35843
      2334.871        1819.398
  21637262.347    21637262.2624   21637263.1364  113704580.172 8  88600985.43246
       116.318          90.660
 08  5  5 12 38 30.0000000  0 10G 2G 4G 7G10G13G16G23G24G25G29
  21627271.255    21627271.1714   21627270.6154  113652074.783 7  88560071.36045
     -2308.730       -1799.011
  24263273.914    24263272.8184   24263275.4824  127504354.819 5  99354051.33641
     -3861.668       -3009.157
  24508516.908    24508516.8684   24508518.1854  128793133.781 5 100358303.97941
      3503.237        2729.809
  22058750.683    22058749.8634   22058751.9154  115919513.835 7  90326912.78944
      2639.139        2056.469
  21298853.071    21298852.8144   21298853.6974  111926222.715 8  87215254.64645
      -231.372        -180.306
  22831748.823    22831749.0384   22831750.1384  119981667.669 6  93492214.45143
      2036.375        1586.771
  22613851.788    22613851.7584   22613851.0834  118836595.521 7  92599953.29244
     -2709.361       -2111.221
  22867625.740    22867625.0174   22867628.0434  120170177.801 6  93639119.14743
      2841.398        2214.073
  23222690.537    23222690.5384   23222691.9234  122036061.835 6  95093052.95343
      2313.031        1802.406
  21636674.119    21636674.0884   21636675.0874  113701489.333 8  88598576.94846
        88.520          68.957
 08  5  5 12 39  0.0000000  0 10G 2G 4G 7G10G13G16G23G24G25G29
  21640516.655    21640516.3434   21640515.8954  113721679.532 8  88614308.85745
     -2331.970       -1817.107
  24285348.455    24285347.4224   24285350.2434  127620359.657 6  99444444.59841
     -3872.616       -3017.600
  24488554.337    24488552.4134   24488556.5654  128688226.671 5 100276558.16741
      3490.034        2719.515
  22043742.954    22043741.9564   22043743.9484  115840646.908 7  90265458.07644
      2618.040        2040.058
  21300253.640    21300253.4154   21300254.3194  111933582.791 8  87220989.81545
      -259.748        -202.390
  22820188.135    22820187.3054   22820188.1044  119920911.913 6  93444872.32543
      2013.522        1568.981
  22629379.162    22629378.5404   22629377.9494  118918189.603 7  92663533.06843
     -2730.615       -2127.751
  22851454.970    22851454.3074   22851457.0924  120085200.180 6  93572902.87843
      2823.497        2200.115
  23209541.481    23209540.9354   23209542.3444  121966961.766 6  95039208.77943
      2292.969        1786.760
  21636241.719    21636241.8784   21636242.7364  113699217.637 8  88596806.80146
        62.515          48.724
 08  5  5 12 39 30.0000000  0 11G 2G 4G 7G10G13G16G23G24G25G27G29
  21653894.591    21653894.2474   21653893.9744  113791981.378 7  88669089.51145
     -2355.333       -1835.307
  24307480.974    24307485.9144   24307488.0774  127736699.189 5  99535098.61441
     -3884.259       -3026.638
  24468666.616    24468666.1314   24468667.2774  128583715.975 5 100195121.41341
      3476.540        2709.019
  22028856.987    22028855.7954   22028858.3334  115762421.867 7  90204503.58644
      2596.503        2023.269
  21301816.321    21301816.3664   21301817.0224  111941795.785 8  87227389.57545
      -288.310        -224.649
  22808757.446    22808756.8574   22808758.2434  119860843.497 6  93398065.80643
      1990.511        1551.025
  22645027.737    22645027.3894   22645026.2894  119000423.782 6  92727611.61743
     -2752.207       -2144.571
  22835385.645    22835385.3054   22835387.8614  120000757.264 7  93507103.35443
      2805.449        2186.076
  23196507.057    23196506.9604   23196507.8154  121898468.078 6  94985837.15843
      2272.752        1770.987
  24877268.935    24877269.5464   24877277.1034  130730959.751 4 101868289.27641
      3151.057        2455.309
  21635959.942    21635959.7834   21635960.7174  113697735.657 8  88595651.99846
        35.918          27.993
 08  5  5 12 40  0.0000000  0 11G 2G 4G 7G10G13G16G23G24G25G27G29
  21667405.079    21667404.5404   21667404.1574  113862978.685 7  88724412.05245
     -2378.974       -1853.753
  24329687.565    24329688.0524   24329691.0264  127853372.066 6  99626012.50841
     -3895.741       -3035.648
  24448853.944    24448853.4104   24448854.8514  128479604.536 5 100113995.58442
      3462.578        2698.135
  22014093.486    22014093.1024   22014095.1674  115684840.796 7  90144050.87244
      2574.268        2005.942
  21303541.710    21303541.6334   21303542.1974  111950862.179 8  87234454.27745
      -317.288        -247.225
  22797457.391    22797457.6324   22797458.4554  119801465.211 6  93351797.03443
      1966.968        1532.704
  22660797.735    22660797.1924   22660796.0564  119083296.670 6  92792187.86443
     -2774.025       -2161.588
  22819418.956    22819418.4254   22819420.8594  119916851.821 7  93441722.55843
      2786.952        2171.652
  23183588.327    23183588.7124   23183590.3624  121830583.870 6  94932940.45743
      2251.582        1754.477
  24859307.494    24859308.9514   24859315.6434  130636576.193 5 101794743.75241
      3139.394        2446.280
  21635827.920    21635828.2354   21635829.2924  113697044.423 8  88595113.36346
         8.970           6.990
 08  5  5 12 40 30.0000000  0 11G 2G 4G 7G10G13G16G23G24G25G27G29
  21681049.344    21681048.7894   21681048.5884  113934679.949 7  88780283.13945
     -2401.333       -1871.152
  24351955.019    24351955.2534   24351957.3444  127970386.287 5  99717192.34541
     -3905.709       -3043.373
  24429120.629    24429121.0744   24429122.2954  128375906.534 5 100033192.02541
      3450.054        2688.242
  21999455.777    21999454.8764   21999456.7394  115607916.982 7  90084110.28844
      2553.593        1989.821
  21305431.330    21305431.2194   21305432.1224  111960792.491 8  87242192.19445
      -344.939        -268.774
  22786291.823    22786291.4214   22786292.8334  119742789.868 6  93306075.99343
      1944.611        1515.259
  22676691.238    22676690.5504   22676689.9394  119166816.126 6  92857267.93143
     -2794.310       -2177.366
  22803556.830    22803556.5824   22803559.9394  119833496.896 6  93376770.70543
      2769.747        2158.260
  23170789.289    23170789.4684   23170790.8084  121763321.569 6  94880528.31243
      2232.043        1739.250
  24841418.813    24841417.2254   24841422.3334  130542552.442 5 101721478.62041
      3128.562        2437.873
  21635849.154    21635849.1934   21635850.1914  113697154.692 8  88595199.26146
       -16.657         -12.979
 08  5  5 12 41  0.0000000  0 11G 2G 4G 7G10G13G16G23G24G25G27G29
  21694821.550    21694821.5334   21694821.1874  114007055.079 7  88836679.30345
     -2423.884       -1888.755
  24374282.472    24374281.4824   24374283.4934  128087711.068 5  99808613.98341
     -3916.139       -3051.552
  24409461.572    24409460.5104   24409462.9944  128272596.485 5  99952690.91641
      3437.198        2678.314
  21984937.652    21984936.8774   21984938.6014  115531624.492 7  90024661.62144
      2532.356        1973.257
  21307480.076    21307479.8204   21307480.4364  111971557.859 8  87250580.79245
      -372.923        -290.589
  22775255.906    22775255.2294   22775256.4114  119684791.471 6  93260882.44843
      1922.032        1497.668
  22692701.490    22692700.7174   22692700.0594  119250951.303 7  92922827.77543
     -2814.960       -2193.489
  22787795.053    22787794.2704   22787797.1564  119750666.528 6  93312227.60843
      2752.074        2144.501
  23158103.189    23158103.0104   23158104.8794  121696655.418 6  94828580.65243
      2211.980        1723.621
  24823591.342    24823588.9594   24823592.4134  130448862.342 5 101648473.42741
      3117.056        2428.844
  21636017.154    21636017.4894   21636018.3254  113698037.995 8  88595887.54546
       -42.491         -33.120
 08  5  5 12 41 30.0000000  0 11G 2G 4G 7G10G13G16G23G24G25G27G29
  21708722.949    21708722.4754   21708722.0744  114080104.782 7  88893601.11545
     -2446.048       -1906.015
  24396666.131    24396667.0584   24396668.1524  128205347.437 5  99900278.49241
     -3926.539       -3059.688
  24389876.640    24389876.1684   24389878.1044  128169679.401 5  99872495.66441
      3424.019        2668.060
  21970540.667    21970539.7464   21970542.1154  115455968.496 7  89965708.91844
      2511.391        1956.947
  21309687.977    21309687.8664   21309688.7304  111983161.238 8  87259622.39545
      -400.662        -312.201
  22764348.574    22764347.6604   22764348.8724  119627475.014 6  93216220.29043
      1899.206        1479.898
  22708829.028    22708828.4004   22708828.1394  119335702.347 6  92988867.50543
     -2835.103       -2209.148
  22772133.573    22772133.1244   22772135.8194  119668366.187 6  93248097.53543
      2734.535        2130.815
  23145531.607    23145531.5664   23145532.9584  121630590.162 6  94777101.24543
      2192.338        1708.265
  24805827.272    24805824.8904   24805830.0474  130355511.118 5 101575732.24841
      3106.322        2420.599
  21636333.165    21636333.3644   21636334.1954  113699697.873 8  88597180.99246
       -68.105         -53.071
 08  5  5 12 42  0.0000000  0 11G 2G 4G 7G10G13G16G23G24G25G27G29
  21722751.073    21722750.5504   21722750.0464  114153822.859 7  88951043.79445
     -2468.829       -1923.770
  24419111.779    24419110.7784   24419115.1194  128323289.311 5  99992181.40341
     -3936.623       -3067.456
  24370367.579    24370367.7484   24370365.3634  128067154.462 6  99792606.13042
      3410.713        2657.681
  21956264.700    21956263.6774   21956265.8874  115380946.895 7  89907250.56344
      2489.679        1939.997
  21312054.618    21312054.6674   21312055.0764  111995598.021 8  87269313.41345
      -428.947        -334.262
  22753571.345    22753570.4754   22753570.5614  119570837.900 6  93172087.49143
      1876.089        1461.877
  22725072.456    22725071.7974   22725070.9924  119421062.820 6  93055382.11943
     -2855.759       -2225.282
  22756572.827    22756572.4684   22756574.6844  119586593.690 6  93184378.75443
      2716.383        2116.678
  23133073.769    23133073.1274   23133074.8854  121565123.936 6  94726088.54943
      2171.744        1692.247
  24788127.081    24788126.2824   24788129.2844  130262496.819 5 101503253.51541
      3094.458        2411.294
  21636796.170    21636796.0664   21636797.1264  113702130.088 8  88599076.24346
       -94.390         -73.570
 08  5  5 12 42 30.0000000  0 11G 2G 4G 7G10G13G16G23G24G25G27G29
  21736906.005    21736905.8274   21736905.3974  114228209.000 7  89009007.02145
     -2490.971       -1941.040
  24441613.920    24441612.2264   24441614.2014  128441535.012 5 100084320.97341
     -3946.942       -3075.563
  24350933.278    24350933.3094   24350933.7174  127965025.993 6  99713025.48642
      3397.444        2647.305
  21942110.274    21942109.0254   21942111.3844  115306564.033 7  89849289.90444
      2468.435        1923.455
  21314580.245    21314579.9924   21314580.6344  112008869.258 8  87279654.59045
      -456.719        -355.888
  22742923.094    22742922.7844   22742923.5054  119514884.207 6  93128487.21643
      1853.328        1444.175
  22741431.817    22741431.3184   22741430.8054  119507031.937 7  93122371.00643
     -2876.067       -2241.078
  22741112.636    22741112.4754   22741115.3784  119505352.628 6  93121074.03743
      2698.899        2103.053
  23120731.023    23120730.4954   23120731.9814  121500260.858 6  94675545.90343
      2151.531        1676.544
  24770489.232    24770489.9384   24770491.9544  130169823.287 5 101431040.13241
      3082.724        2402.042
  21637406.114    21637406.1084   21637407.3264  113705336.224 8  88601574.52546
      -120.091         -93.567
 08  5  5 12 43  0.0000000  0 11G 2G 4G 7G10G13G16G23G24G25G27G29
  21751184.420    21751183.9844   21751183.4664  114303240.984 7  89067473.50445
     -2511.926       -1957.353
  24464163.862    24464166.5844   24464169.2904  128560061.907 5 100176679.35041
     -3955.857       -3082.462
  24331569.664    24331570.1464   24331572.3344  127863277.228 5  99633740.73441
      3385.082        2637.752
  21928073.440    21928072.8444   21928074.7424  115232802.047 7  89791813.05044
      2448.153        1907.641
  21317260.235    21317260.4174   21317261.0744  112022954.447 7  87290630.05645
      -483.319        -376.632
  22732401.650    22732401.6344   22732402.3214  119459595.907 6  93085405.43543
      1831.649        1427.237
  22757903.176    22757902.3984   22757901.4674  119593586.898 6  93189816.39443
     -2895.121       -2255.939
  22725750.905    22725750.2474   22725753.2414  119424625.332 6  93058169.69943
      2682.282        2090.099
  23108498.662    23108498.4664   23108499.8504  121435982.532 6  94625458.91143
      2132.625        1661.785
  24752917.152    24752917.8194   24752921.7194  130077473.932 5 101359079.63441
      3072.568        2394.160
  21638159.721    21638159.8374   21638160.6284  113709296.570 7  88604660.51745
      -144.787        -112.829
 08  5  5 12 43 30.0000000  0 11G 2G 4G 7G10G13G16G23G24G25G27G29
  21765588.351    21765587.8344   21765587.5424  114378933.981 7  89126455.07345
     -2534.342       -1974.828
  24486783.207    24486778.0024   24486782.1024  128678885.895 5 100269269.19341
     -3965.793       -3090.174
  24312284.692    24312285.7934   24312285.6614  127761927.446 5  99554766.47642
      3371.435        2627.125
  21914159.208    21914158.0294   21914160.3144  115159681.271 7  89734835.79844
      2426.510        1890.781
  21320098.948    21320098.9224   21320099.2724  112037871.050 8  87302253.42645
      -511.260        -398.389
  22722011.430    22722011.1384   22722011.9534  119404992.601 6  93042857.39243
      1808.387        1409.142
  22774487.458    22774487.4704   22774486.8284  119680742.789 6  93257730.05043
     -2915.553       -2271.844
  22710491.191    22710490.1294   22710492.9694  119344431.753 6  92995681.21643
      2663.928        2075.783
  23096382.284    23096381.9784   23096383.6914  121372308.858 6  94575843.05143
      2112.136        1645.812
  24735408.496    24735409.9344   24735412.6834  129985468.389 5 101287387.29041
      3060.946        2385.142
  21639060.334    21639060.3574   21639061.2194  113714028.756 8  88608347.94146
      -170.845        -133.133
 08  5  5 12 44  0.0000000  0 11G 2G 4G 7G10G13G16G23G24G25G27G29
  21780113.416    21780112.7414   21780112.2024  114455263.166 7  89185932.34945
     -2555.056       -1990.934
  24509437.462    24509442.6394   24509446.2584  128797982.739 5 100362072.05941
     -3974.680       -3097.160
  24293070.703    24293072.2014   24293073.3364  127660959.560 5  99476090.58841
      3359.235        2617.624
  21900362.831    21900362.1104   21900364.1664  115087181.386 7  89678342.38344
      2406.201        1874.971
  21323091.286    21323091.3204   21323092.1934  112053596.285 8  87314506.87745
      -537.774        -419.040
  22711747.833    22711747.1964   22711747.7144  119351053.855 6  93000827.19843
      1786.938        1392.418
  22791183.019    22791182.3464   22791182.0044  119768474.841 6  93326092.66043
     -2934.109       -2286.344
  22695328.244    22695327.7294   22695330.0424  119264751.655 6  92933592.81243
      2647.252        2062.819
  23084377.021    23084376.6144   23084377.8834  121309219.696 6  94526682.67343
      2093.028        1630.957
  24717962.095    24717963.1174   24717966.1014  129893785.548 5 101215946.04141
      3050.837        2377.243
  21640103.388    21640103.5124   21640104.4634  113719510.601 8  88612619.49746
      -195.387        -152.243
 08  5  5 12 44 30.0000000  0 11G 2G 4G 7G10G13G16G23G24G25G27G29
  21794758.217    21794758.0704   21794757.6264  114532224.814 7  89245902.46245
     -2576.456       -2007.631
  24532158.994    24532155.7964   24532157.2124  128917346.563 5 100455082.55041
     -3983.717       -3104.240
  24273929.843    24273928.4994   24273927.8374  127560372.017 5  99397710.93842
      3345.924        2607.206
  21886684.844    21886683.7724   21886685.7294  115015302.333 7  89622332.74144
      2384.939        1858.411
  21326237.084    21326237.1274   21326237.5724  112070126.706 8  87327387.65845
      -565.024        -440.274
  22701610.100    22701608.9734   22701609.9004  119297779.350 7  92959314.59143
      1764.285        1374.759
  22807986.676    22807986.0194   22807985.0124  119856778.010 6  93394900.30943
     -2953.713       -2301.607
  22680263.107    22680262.9214   22680265.4484  119185584.961 6  92871904.50444
      2629.751        2049.141
  23072482.404    23072482.5304   23072483.7404  121246714.536 6  94477977.37143
      2073.027        1615.328
  24700577.391    24700578.7724   24700580.4014  129802425.811 5 101144756.53141
      3038.953        2368.079
  21641288.794    21641288.8024   21641289.8174  113725739.436 7  88617473.13346
      -220.693        -171.977
 08  5  5 12 45  0.0000000  0 11G 2G 4G 7G10G13G16G23G24G25G27G29
  21809521.313    21809520.9024   21809520.6074  114609804.191 7  89306353.90745
     -2595.776       -2022.678
  24554921.721    24554919.8084   24554920.5734  129036963.749 5 100548290.81941
     -3991.215       -3110.050
  24254859.444    24254858.2934   24254860.2054  127460155.139 5  99319619.66942
      3334.548        2598.341
  21873122.902    21873122.0964   21873124.0584  114944033.738 7  89566798.76244
      2365.772        1843.449
  21329533.328    21329533.4964   21329534.3424  112087450.039 8  87340886.38145
      -590.475        -460.115
  22691596.780    22691596.0684   22691595.9744  119245158.728 6  92918311.49143
      1743.556        1358.602
  22824895.702    22824896.4134   22824894.4994  119945637.341 6  93464141.29743
     -2971.002       -2315.040
  22665294.395    22665293.6074   22665296.0454  119106921.491 6  92810608.29844
      2614.057        2036.920
  23060697.309    23060697.1164   23060697.8964  121184783.228 6  94429719.20743
      2055.031        1601.336
  24683251.597    24683251.9444   24683255.5214  129711379.727 5 101073811.58941
      3030.139        2361.111
  21642613.956    21642613.8654   21642615.0524  113732702.841 8  88622899.14645
      -244.099        -190.207
 08  5  5 12 45 30.0000000  0 11G 2G 4G 7G10G13G16G23G24G25G27G29
  21824401.967    21824401.6224   21824401.2964  114688002.494 7  89367287.64545
     -2617.351       -2039.509
  24577731.480    24577730.5204   24577732.4314  129156835.244 5 100641697.16641
     -4000.195       -3117.091
  24235859.968    24235860.4284   24235861.3954  127360316.959 5  99241823.93542
      3321.292        2588.023
  21859678.494    21859677.5104   21859679.0284  114873381.822 7  89511745.28944
      2344.362        1826.762
  21332981.852    21332981.5894   21332981.9104  112105569.309 8  87355005.25245
      -617.642        -481.279
  22681708.425    22681707.8264   22681708.7814  119193197.850 7  92877822.50043
      1720.599        1340.697
  22841911.572    22841911.1114   22841910.8424  120035054.255 6  93533816.78843
     -2990.159       -2329.972
  22650421.952    22650421.4944   22650424.2824  119028767.540 6  92749709.15344
      2596.221        2023.044
  23049022.573    23049022.6974   23049023.5104  121123431.675 6  94381912.80043
      2035.113        1585.804
  24665988.672    24665987.4984   24665989.9474  129620652.971 5 101003115.51141
      3018.232        2351.834
  21644079.294    21644079.4014   21644080.5084  113740404.531 8  88628900.45546
      -269.384        -209.913
 08  5  5 12 46  0.0000000  0 11G 2G 4G 7G10G13G16G23G24G25G27G29
  21839401.532    21839401.1344   21839400.5274  114766825.451 7  89428708.11345
     -2637.934       -2055.523
  24600590.870    24600589.8384   24600593.6144  129276966.399 5 100735305.77441
     -4008.803       -3123.640
  24216936.283    24216936.0234   24216936.1914  127260866.891 5  99164330.50142
      3308.354        2577.905
  21846352.930    21846352.0834   21846353.9414  114803356.359 7  89457179.99444
      2323.521        1810.545
  21336582.409    21336582.4504   21336582.9114  112124491.693 8  87369749.96045
      -644.354        -502.087
  22671947.673    22671947.6164   22671948.6414  119141906.082 6  92837854.88243
      1698.326        1323.385
  22859033.769    22859034.0964   22859032.6434  120125033.496 6  93603930.45143
     -3008.840       -2344.523
  22635648.466    22635647.8334   22635650.8544  118951132.954 6  92689214.74943
      2578.930        2009.549
  23037459.571    23037459.4774   23037460.7684  121062669.476 6  94334565.66443
      2015.521        1570.559
  24648785.755    24648784.5014   24648787.9574  129530255.564 5 100932676.06541
      3007.565        2343.564
  21645686.951    21645686.7774   21645688.1364  113748852.036 8  88635482.92446
      -294.134        -229.199
 08  5  5 12 46 30.0000000  0 11G 2G 4G 7G10G13G16G23G24G25G27G29
  21854516.282    21854515.7754   21854515.4864  114846252.949 7  89490599.65245
     -2657.680       -2070.932
  24623493.774    24623494.0284   24623498.6864  129397337.206 5 100829101.21541
     -4016.841       -3130.047
  24198082.401    24198081.4704   24198082.0854  127161790.382 6  99087128.03142
      3296.085        2568.373
  21833143.909    21833142.6354   21833144.8274  114733942.263 7  89403091.06544
      2303.327        1794.788
  21340332.716    21340332.5184   21340333.1884  112144198.746 8  87385106.09445
      -670.290        -522.313
  22662311.435    22662311.2884   22662312.2354  119091267.687 7  92798396.39143
      1676.850        1306.636
  22876259.459    22876259.7264   22876258.7614  120215555.057 6  93674466.72343
     -3026.515       -2358.322
  22620971.137    22620970.2494   22620973.0154  118874002.002 7  92629112.74244
      2562.324        1996.606
  23026006.505    23026006.4064   23026007.5244  121002481.058 6  94287665.58943
      1996.628        1555.843
  24631643.820    24631643.0104   24631647.2284  129440172.234 5 100862481.40241
      2997.361        2335.561
  21647432.961    21647433.0724   21647434.1824  113758028.091 8  88642633.10145
      -318.224        -247.977
 08  5  5 12 47  0.0000000  0 11G 2G 4G 7G10G13G16G23G24G25G27G29
  21869747.981    21869747.7454   21869747.3844  114926298.197 7  89552972.55845
     -2678.514       -2087.155
  24646449.914    24646448.7044   24646451.3144  129517960.677 5 100923093.62241
     -4025.028       -3136.380
  24179301.568    24179301.1894   24179302.9314  127063104.898 5  99010230.28742
      3283.135        2558.242
  21820054.466    21820053.6494   21820055.5304  114665157.044 7  89349492.18444
      2282.301        1778.398
  21344234.919    21344234.7714   21344235.5554  112164705.157 8  87401085.10645
      -696.778        -542.957
  22652803.322    22652802.6144   22652803.0934  119041299.700 7  92759460.29843
      1654.318        1289.064
  22893590.961    22893590.3384   22893589.9984  120306631.203 6  93745435.12443
     -3045.026       -2372.780
  22606392.419    22606392.2764   22606394.9054  118797392.017 7  92569416.68644
      2544.987        1983.100
  23014665.804    23014665.2084   23014666.8894  120942883.523 6  94241225.91243
      1976.745        1540.344
  24614565.213    24614564.3274   24614565.7494  129350420.091 5 100792544.64541
      2986.218        2326.892
  21649320.544    21649320.7054   21649321.6324  113767947.610 7  88650362.59346
      -343.031        -267.300
 08  5  5 12 47 30.0000000  0 11G 2G 4G 7G10G13G16G23G24G25G27G29
  21885090.645    21885090.5134   21885090.1454  115006923.668 7  89615797.59245
     -2697.286       -2101.750
  24669445.635    24669442.7054   24669446.8834  129638798.754 4 101017253.08441
     -4031.206       -3141.244
  24160589.879    24160590.9994   24160592.8774  126964778.623 5  98933612.44542
      3271.409        2549.149
  21807078.274    21807077.8084   21807079.9874  114596967.931 7  89296357.82444
      2262.873        1763.278
  21348282.206    21348282.4014   21348282.6504  112185975.013 8  87417659.06145
      -721.953        -562.541
  22643417.083    22643414.8184   22643416.4994  118991968.713 7  92721020.58143
      1633.637        1272.982
  22911021.070    22911020.2754   22911019.5134  120398224.269 6  93816806.31243
     -3061.948       -2385.903
  22591906.620    22591906.5314   22591908.7244  118721269.927 6  92510100.81944
      2528.975        1970.646
  23003430.085    23003430.1774   23003431.2254  120883843.842 6  94195221.03143
      1958.438        1526.080
  24597541.973    24597541.1874   24597542.3294  129260966.534 5 100722840.64541
      2976.472        2319.351
  21651342.853    21651343.1544   21651344.0474  113778574.988 8  88658643.66946
      -366.213        -285.337
 08  5  5 12 48  0.0000000  0 11G 2G 4G 7G10G13G16G23G24G25G27G29
  21900546.626    21900546.4354   21900545.7264  115088144.589 7  89679086.58645
     -2717.337       -2117.394
  24692485.406    24692483.0364   24692486.8184  129759867.143 4 101111592.05941
     -4039.119       -3147.326
  24141951.438    24141952.8634   24141955.4574  126866832.139 5  98857290.55042
      3258.379        2538.968
  21794219.698    21794218.5164   21794220.5564  114529393.530 7  89243702.44944
      2242.160        1747.131
  21352478.251    21352478.4044   21352478.9194  112208025.279 8  87434841.13245
      -748.044        -582.897
  22634153.635    22634153.1244   22634153.6904  118943294.336 7  92683092.47844
      1611.420        1255.658
  22928551.311    22928551.8104   22928550.1044  120490349.209 6  93888591.92743
     -3079.718       -2399.758
  22577517.741    22577517.5584   22577520.2934  118645655.488 6  92451180.55044
      2512.049        1957.443
  22992306.052    22992305.2164   22992305.9384  120825381.346 6  94149665.87843
      1939.096        1510.982
  24580580.726    24580580.7544   24580582.4164  129171831.753 5 100653385.09541
      2965.708        2310.943
  21653503.350    21653503.3514   21653504.4534  113789927.815 8  88667490.04846
      -390.546        -304.319
 08  5  5 12 48 30.0000000  0 11G 2G 4G 7G10G13G16G23G24G25G27G29
  21916107.839    21916107.1794   21916106.7144  115169918.144 7  89742806.20945
     -2735.754       -2131.755
  24715553.561    24715556.6104   24715559.1354  129881123.539 5 101206077.92341
     -4045.985       -3152.621
  24123380.229    24123379.7924   24123381.3264  126769227.945 6  98781235.45042
      3246.445        2529.710
  21781469.932    21781469.8824   21781471.5274  114462396.541 7  89191497.01344
      2222.743        1732.002
  21356815.077    21356815.2004   21356815.5964  112230814.743 8  87452599.17945
      -772.688        -602.095
  22625009.082    22625007.9154   22625009.1654  118895238.049 7  92645646.03243
      1590.801        1239.582
  22946175.154    22946174.7554   22946174.0124  120582962.888 6  93960758.37343
     -3096.109       -2412.540
  22563218.257    22563218.0754   22563221.0704  118570510.528 6  92392626.07644
      2496.133        1945.036
  22981283.188    22981283.1684   22981284.0394  120767457.702 7  94104530.58043
      1920.918        1496.843
  24563671.780    24563672.1824   24563674.2474  129082977.064 5 100584147.68941
      2956.516        2303.762
  21655794.028    21655794.0564   21655795.0884  113801965.521 8  88676870.09746
      -413.515        -322.217
 08  5  5 12 49  0.0000000  0 11G 2G 4G 7G10G13G16G23G24G25G27G29
  21931778.904    21931778.3904   21931777.8414  115252270.689 7  89806977.01344
     -2754.574       -2146.429
  24738672.552    24738672.0194   24738674.8644  130002592.731 5 101300729.11141
     -4052.296       -3157.638
  24104876.815    24104876.1854   24104877.8244  126671996.678 6  98705470.89142
      3235.050        2520.887
  21768836.621    21768836.1264   21768837.8994  114396007.140 7  89139764.99644
      2203.193        1716.767
  21361297.696    21361297.5854   21361298.1554  112254370.776 8  87470954.56545
      -797.834        -621.677
  22615986.936    22615986.5294   22615987.9404  118847830.096 7  92608704.77644
      1569.684        1223.125
  22963896.644    22963896.8634   22963895.5684  120676090.722 6  94033325.47643
     -3112.490       -2425.316
  22549013.774    22549013.7974   22549015.6214  118495865.515 7  92334461.13244
      2479.964        1932.445
  22970369.352    22970368.8944   22970369.8434  120710103.198 7  94059838.72743
      1902.552        1482.514
  24546822.367    24546821.4304   24546826.5084  128994433.555 5 100515152.83341
      2946.567        2296.031
  21658220.284    21658220.3544   21658221.5124  113814716.122 7  88686805.62946
      -436.735        -340.312
 08  5  5 12 49 30.0000000  0 11G 2G 4G 7G10G13G16G23G24G25G27G29
  21947557.466    21947557.2294   21947556.7644  115335188.186 7  89871588.03044
     -2774.338       -2161.834
  24761824.421    24761825.1324   24761826.0334  130124261.710 4 101395536.09041
     -4060.351       -3163.884
  24086443.902    24086444.0164   24086444.2104  126575129.952 5  98629990.44842
      3221.352        2510.144
  21756317.391    21756316.5764   21756318.4354  114330216.209 7  89088499.33244
      2181.948        1700.220
  21365923.636    21365923.8474   21365924.0534  112278681.397 8  87489897.89245
      -824.007        -642.087
  22607086.697    22607086.5704   22607087.3454  118801060.594 7  92572261.01844
      1547.287        1205.659
  22981714.588    22981713.2324   22981712.2674  120769719.130 6  94106282.63643
     -3130.279       -2439.202
  22534902.296    22534902.3794   22534904.6934  118421711.200 7  92276678.56944
      2462.526        1918.842
  22959561.027    22959560.6194   22959562.7744  120653308.394 7  94015583.03343
      1882.730        1467.063
  24530029.321    24530029.6494   24530031.1404  128906191.958 5 100446393.22841
      2935.373        2287.343
  21660780.118    21660780.0984   21660781.4544  113828167.855 8  88697287.50546
      -461.158        -359.345
 08  5  5 12 50  0.0000000  0 11G 2G 4G 7G10G13G16G23G24G25G27G29
  21963445.194    21963444.6844   21963444.2594  115418677.527 7  89936644.63744
     -2792.024       -2175.597
  24785012.120    24785016.7184   24785020.8904  130246137.726 4 101490504.52941
     -4065.738       -3168.088
  24068081.500    24068082.4144   24068083.6404  126478639.761 5  98554803.47342
      3210.495        2501.656
  21743913.883    21743912.5914   21743914.7304  114265035.273 7  89037709.01544
      2163.183        1685.608
  21370695.158    21370695.1014   21370695.3354  112303755.015 8  87509435.78245
      -847.959        -660.746
  22598310.629    22598310.6254   22598311.3524  118754940.488 7  92536323.26644
      1526.858        1189.748
  22999626.733    22999627.4454   22999626.1594  120863854.403 6  94179634.76843
     -3145.642       -2451.101
  22520886.953    22520886.8184   22520889.0264  118348058.839 7  92219287.16244
      2447.319        1907.005
  22948862.708    22948861.7854   22948863.1864  120597084.469 7  93971772.21943
      1864.949        1453.200
  24513297.339    24513298.5434   24513300.2014  128818263.775 5 100377877.93441
      2926.202        2280.147
  21663475.060    21663475.0934   21663476.0864  113842329.703 8  88708322.71046
      -483.405        -376.684
 08  5  5 12 50 30.0000000  0 11G 2G 4G 7G10G13G16G23G24G25G27G29
  21979437.088    21979437.2554   21979436.6054  115502718.890 7  90002131.40344
     -2811.218       -2190.559
  24808242.750    24808245.0844   24808246.8444  130368199.723 4 101585617.76441
     -4072.495       -3173.352
  24049789.288    24049788.6484   24049790.5274  126382511.171 5  98479898.25642
      3197.780        2491.753
  21731623.373    21731622.4444   21731624.3104  114200448.463 7  88987381.66544
      2142.421        1669.426
  21375608.180    21375607.9234   21375608.5624  112329573.246 8  87529553.90145
      -873.603        -680.728
  22589655.293    22589654.8404   22589655.3794  118709453.828 7  92500879.12144
      1505.158        1172.844
  23017633.314    23017632.8994   23017631.9674  120958476.301 6  94253366.03843
     -3162.651       -2464.413
  22506964.759    22506963.7794   22506966.2564  118274892.922 7  92162274.75144
      2430.208        1893.664
  22938268.602    22938268.5344   22938269.8304  120541415.559 7  93928393.83643
      1845.923        1438.405
  24496624.045    24496622.6624   24496624.2114  128730633.792 6 100309594.95441
      2915.489        2271.792
  21666301.626    21666301.7124   21666302.8024  113857184.033 7  88719897.52246
      -507.359        -395.359
 08  5  5 12 51  0.0000000  0 10G 2G 7G10G13G16G23G24G25G27G29
  21995537.747    21995536.7154   21995536.3974  115587322.951 7  90068056.61244
     -2830.026       -2205.222
  24031568.926    24031568.4144   24031569.6994  126286759.969 5  98405287.00342
      3184.885        2481.746
  21719448.868    21719447.7554   21719449.8904  114136470.915 7  88937529.04345
      2121.885        1653.411
  21380665.066    21380665.1854   21380665.7034  112356148.246 8  87550261.68645
      -899.010        -700.526
  22581122.829    22581122.7784   22581122.7924  118664615.830 7  92465940.43844
      1482.992        1155.559
  23035734.085    23035733.4114   23035732.4384  121053595.090 6  94327484.49343
     -3179.331       -2477.377
  22493136.538    22493136.0474   22493138.4594  118202228.687 7  92105653.30144
      2413.215        1880.415
  22927783.667    22927783.1634   22927784.6394  120486316.744 7  93885459.68643
      1826.583        1423.321
  24480006.219    24480006.5664   24480006.9544  128643317.306 5 100241556.32741
      2904.946        2263.578
  21669262.606    21669262.6064   21669263.7524  113872743.301 8  88732021.61745
      -530.827        -413.635
 08  5  5 12 51 30.0000000  0 10G 2G 7G10G13G16G23G24G25G27G29
  22011741.411    22011741.1594   22011740.9164  115672477.332 7  90134410.66044
     -2847.642       -2218.938
  24013417.915    24013418.0724   24013420.0754  126191379.233 6  98330964.41442
      3173.333        2472.719
  21707388.538    21707387.5354   21707389.9054  114073094.830 7  88888145.09045
      2102.464        1638.292
  21385863.955    21385864.1684   21385864.5614  112383469.005 8  87571550.60145
      -923.203        -719.391
  22572712.395    22572711.7394   22572712.0954  118620418.039 7  92431500.60044
      1462.583        1139.682
  23053926.236    23053926.0634   23053924.8064  121149198.048 6  94401980.17743
     -3194.804       -2489.463
  22479402.947    22479402.2294   22479405.0264  118130058.279 7  92049416.63844
      2397.451        1868.148
  22917405.892    22917405.7684   22917406.9854  120431779.900 6  93842963.42043
      1808.345        1409.117
  24463450.340    24463448.9514   24463450.3024  128556306.484 5 100173755.87041
      2895.187        2255.972
  21672355.453    21672355.7594   21672356.7184  113888997.162 8  88744686.96246
      -553.512        -431.319
 08  5  5 12 52  0.0000000  0 10G 2G 7G10G13G16G23G24G25G27G29
  22028047.837    22028047.7094   22028047.0864  115758168.917 7  90201183.32944
     -2866.215       -2233.429
  23995337.298    23995336.4474   23995337.9204  126096360.835 6  98256924.13042
      3160.497        2462.774
  21695441.344    21695440.4404   21695442.5974  114010311.733 7  88839223.17945
      2082.072        1622.397
  21391202.826    21391202.7664   21391203.3854  112411524.188 8  87593411.77445
      -948.275        -738.917
  22564421.926    22564421.5194   22564421.4984  118576851.465 6  92397552.61744
      1440.881        1122.787
  23072209.122    23072208.2894   23072208.0174  121245271.939 6  94476842.84643
     -3211.147       -2502.197
  22465761.725    22465761.6394   22465763.5744  118058373.060 7  91993558.04144
      2380.455        1854.883
  22907132.491    22907132.2514   22907133.7494  120377796.213 6  93800898.22943
      1789.436        1394.395
  24446948.426    24446947.0234   24446949.9364  128469592.840 5 100106186.95441
      2884.662        2247.772
  21675578.624    21675578.7064   21675579.8934  113905934.753 8  88757885.07246
      -576.830        -449.488
 08  5  5 12 52 30.0000000  0 10G 2G 7G10G13G16G23G24G25G27G29
  22044457.057    22044457.2454   22044456.5134  115844400.556 7  90268376.80644
     -2883.342       -2246.757
  23977324.671    23977326.4874   23977326.9084  126001712.914 5  98183172.57642
      3148.839        2453.644
  21683608.128    21683607.4884   21683609.5094  113948128.228 7  88790768.49345
      2062.960        1607.508
  21396681.873    21396681.9854   21396682.3494  112440317.814 8  87615848.36245
      -971.877        -757.310
  22556252.236    22556252.1084   22556253.0164  118533922.658 7  92364101.60744
      1420.456        1106.830
  23090581.517    23090581.2654   23090581.3144  121341818.950 6  94552074.21643
     -3225.921       -2513.713
  22452214.492    22452213.8824   22452215.9214  117987179.960 7  91938082.90344
      2365.005        1842.825
  22896966.193    22896966.5234   22896967.6664  120324372.387 7  93759269.29144
      1771.578        1380.472
  24430505.156    24430503.8734   24430506.2234  128383183.650 5 100038855.25941
      2875.554        2240.658
  21678932.847    21678932.8684   21678934.0414  113923560.487 8  88771619.40445
      -598.881        -466.657
 08  5  5 12 53  0.0000000  0 10G 2G 7G10G13G16G23G24G25G27G29
  22060967.649    22060967.3934   22060967.0454  115931162.509 7  90335983.50344
     -2901.221       -2260.690
  23959384.561    23959384.3604   23959386.6584  125907430.489 5  98109705.88342
      3136.305        2443.923
  21671888.335    21671887.3514   21671889.5424  113886539.216 7  88742777.04945
      2042.680        1591.715
  21402300.147    21402300.2184   21402300.7564  112469841.345 7  87638853.70145
      -996.611        -776.588
  22548203.583    22548203.1824   22548204.5874  118491625.896 7  92331143.08744
      1398.989        1090.120
  23109041.837    23109041.7854   23109040.2204  121438828.735 6  94627666.14243
     -3241.818       -2526.123
  22438759.042    22438758.8224   22438760.5484  117916473.769 7  91882987.19244
      2348.312        1829.863
  22886905.628    22886905.2314   22886907.1474  120271502.929 6  93718072.32443
      1752.606        1365.670
  24414118.507    24414117.6784   24414120.1324  128297073.768 5  99971756.72541
      2864.951        2232.457
  21682416.565    21682416.4784   21682417.4914  113941866.764 7  88785884.01345
      -621.870        -484.564
 08  5  5 12 53 30.0000000  0 10G 2G 7G10G13G16G23G24G25G27G29
  22077578.673    22077577.8424   22077577.9164  116018450.798 7  90404000.30144
     -2918.942       -2274.505
  23941512.741    23941512.8294   23941514.0474  125813515.319 6  98036525.33242
      3123.847        2434.144
  21660281.504    21660280.5504   21660283.0294  113825545.708 7  88695249.64445
      2022.627        1576.087
  21408056.959    21408056.7424   21408057.1894  112500092.237 8  87662425.80745
     -1021.133        -795.686
  22540275.195    22540274.6344   22540275.8594  118449961.371 7  92298677.21144
      1377.660        1073.513
  23127589.211    23127589.1614   23127588.7694  121536297.700 6  94703615.92543
     -3257.150       -2538.043
  22425396.957    22425396.1714   22425398.7074  117846255.067 7  91828271.34244
      2331.673        1816.868
  22876950.658    22876950.6444   22876952.1124  120219188.178 7  93677307.56944
      1733.870        1351.084
  24397788.774    24397788.8634   24397792.5074  128211264.193 5  99904892.23041
      2854.346        2224.115
  21686029.088    21686029.2114   21686030.3684  113960851.514 8  88800677.31446
      -644.775        -502.432
 08  5  5 12 54  0.0000000  0 10G 2G 7G10G13G16G23G24G25G27G29
  22094287.027    22094286.9864   22094286.5544  116106257.096 7  90472420.80444
     -2935.555       -2287.472
  23923709.428    23923710.7614   23923710.6194  125719963.864 5  97963628.18942
      3112.108        2425.009
  21648787.456    21648786.4524   21648788.8994  113765143.594 7  88648183.07245
      2003.512        1561.178
  21413950.615    21413950.4924   21413951.1034  112531064.079 8  87686559.70645
     -1044.458        -813.862
  22532466.219    22532465.6574   22532467.0074  118408924.981 7  92266700.79744
      1357.347        1057.670
  23146222.908    23146223.0254   23146222.2354  121634217.099 6  94779916.65943
     -3271.544       -2549.218
  22412126.979    22412126.6984   22412128.6994  117776520.201 6  91773932.49144
      2316.252        1804.871
  22867100.073    22867100.2854   22867101.2954  120167424.370 6  93636972.12144
      1716.042        1337.201
  24381515.351    24381517.0934   24381519.6564  128125751.208 5  99838258.81842
      2845.390        2217.239
  21689769.898    21689769.8214   21689770.9744  113980508.798 8  88815994.68346
      -666.603        -519.434
 08  5  5 12 54 30.0000000  0 10G 2G 7G10G13G16G23G24G25G27G29
  22111095.180    22111094.8874   22111094.6974  116194584.016 7  90541246.99044
     -2953.838       -2301.690
  23905978.980    23905978.3414   23905979.1264  125626783.836 6  97891020.33242
      3098.950        2414.750
  21637407.234    21637406.2644   21637408.5174  113705339.747 7  88601582.68945
      1982.425        1544.744
  21419982.103    21419982.0844   21419982.5714  112562760.377 8  87711258.10345
     -1069.586        -833.470
  22524778.064    22524777.6064   22524778.8084  118368523.220 7  92235218.91244
      1335.155        1040.385
  23164943.201    23164942.1644   23164942.5424  121732588.909 6  94856569.95043
     -3287.473       -2561.675
  22398950.170    22398949.7554   22398952.3564  117707275.996 7  91719975.96844
      2298.995        1791.407
  22857356.357    22857356.1964   22857357.4984  120116218.035 6  93597071.09044
      1696.483        1321.946
  24365301.045    24365301.5114   24365304.2964  128040542.021 5  99771862.10541
      2834.306        2208.584
  21693639.266    21693639.3044   21693640.3534  114000843.026 8  88831839.53546
      -690.161        -537.806
 08  5  5 12 55  0.0000000  0 10G 2G 7G10G13G16G23G24G25G27G29
  22128001.386    22128001.1684   22128001.0994  116283427.917 7  90610475.97544
     -2970.465       -2314.643
  23888317.255    23888319.0734   23888319.5454  125533976.988 6  97818703.31343
      3086.836        2405.317
  21626140.779    21626140.0104   21626142.0704  113646134.767 7  88555448.94545
      1962.948        1529.568
  21426151.183    21426151.2394   21426151.6784  112595179.145 8  87736519.46045
     -1093.096        -851.768
  22517211.300    22517210.2564   22517210.9334  118328756.505 7  92204231.84844
      1314.374        1024.216
  23183747.180    23183746.9604   23183746.9134  121831409.266 6  94933572.66443
     -3301.933       -2572.928
  22385866.965    22385866.6314   22385868.9884  117638523.563 7  91666402.66144
      2283.072        1779.003
  22847717.924    22847717.6614   22847719.6574  120065569.937 6  93557605.04544
      1678.468        1307.894
  24349145.557    24349144.1154   24349147.4584  127955637.737 5  99705702.95442
      2824.802        2201.156
  21697637.182    21697637.2894   21697638.2664  114021852.205 8  88848210.31945
      -711.974        -554.778
 08  5  5 12 55 30.0000000  0 10G 2G 7G10G13G16G23G24G25G27G29
  22145004.083    22145003.5874   22145003.7624  116372775.887 7  90680097.78444
     -2986.335       -2327.008
  23870728.281    23870727.2384   23870729.0884  125441536.040 6  97746671.37242
      3075.547        2396.580
  21614986.853    21614986.3154   21614988.2314  113587521.067 7  88509775.95145
      1944.335        1515.072
  21432455.796    21432455.7054   21432456.1184  112628309.025 8  87762334.94445
     -1115.769        -869.420
  22509762.616    22509762.1674   22509762.6654  118289616.108 7  92173732.84044
      1294.586        1008.756
  23202635.850    23202635.2154   23202635.2154  121930665.160 6  95010914.84843
     -3315.394       -2583.440
  22372876.163    22372875.3944   22372877.8904  117570254.555 7  91613206.04144
      2267.888        1767.202
  22838184.471    22838184.6004   22838186.4484  120015471.142 7  93518566.97944
      1661.272        1294.482
  24333045.187    24333043.7174   24333047.3414  127871030.485 5  99639775.26142
      2815.416        2193.809
  21701761.563    21701761.5654   21701762.8764  114043525.675 8  88865098.72946
      -733.182        -571.306
 08  5  5 12 56  0.0000000  0 10G 2G 7G10G13G16G23G24G25G27G29
  22162099.411    22162098.9934   22162098.6014  116462611.794 7  90750099.77744
     -3002.739       -2339.803
  23853202.598    23853204.4514   23853204.5364  125349449.853 6  97674915.91343
      3063.352        2387.014
  21603943.721    21603942.5014   21603944.7474  113529486.290 8  88464554.04445
      1924.645        1499.721
  21438892.313    21438892.6344   21438892.8974  112662134.748 8  87788692.64645
     -1139.143        -887.634
  22502431.408    22502430.9614   22502431.5674  118251089.898 7  92143712.39944
      1273.699         992.496
  23221602.297    23221602.0924   23221601.9714  122030340.065 6  95088583.51343
     -3329.526       -2594.484
  22359974.687    22359974.0514   22359976.5204  117502457.155 7  91560376.91944
      2251.879        1754.693
  22828753.601    22828753.1404   22828754.5904  119965910.167 7  93479948.05544
      1642.872        1280.157
  24317000.211    24316998.0364   24317000.6084  127786708.575 5  99574069.89342
      2805.983        2186.460
  21706009.599    21706009.5764   21706010.6694  114065849.157 8  88882493.65346
      -755.036        -588.337
 08  5  5 12 56 30.0000000  0 10G 2G 7G10G13G16G23G24G25G27G29
  22179292.005    22179291.8844   22179291.2164  116552960.317 7  90820501.22144
     -3020.581       -2353.706
  23835753.633    23835753.4334   23835754.8974  125257747.590 6  97603459.51143
      3049.707        2376.405
  21593015.058    21593014.3524   21593016.6434  113472058.962 8  88419805.48645
      1903.487        1483.242
  21445466.759    21445466.6984   21445467.2624  112696682.492 8  87815612.95245
     -1164.153        -907.145
  22495222.435    22495221.8874   22495223.0884  118213206.152 7  92114192.60644
      1251.544         975.236
  23240655.122    23240654.3854   23240655.1434  122130458.142 6  95166597.52043
     -3345.382       -2606.789
  22347168.209    22347167.8784   22347169.7904  117435160.359 7  91507937.86644
      2234.250        1740.956
  22819430.588    22819430.0864   22819431.6034  119916915.094 7  93441770.02244
      1623.125        1264.748
  24301013.250    24301011.8994   24301014.5764  127702701.103 5  99508609.58642
      2794.510        2177.505
  21710386.344    21710386.3914   21710387.4474  114088848.869 8  88900415.50246
      -778.474        -606.616
 08  5  5 12 57  0.0000000  0 10G 2G 7G10G13G16G23G24G25G27G29
  22196577.350    22196577.0064   22196576.9674  116643796.262 7  90891282.46844
     -3036.180       -2365.836
  23818371.842    23818372.5844   23818374.6204  125166410.189 5  97532287.56942
      3038.148        2367.386
  21582199.156    21582198.2834   21582200.3854  113415219.005 8  88375514.61245
      1884.419        1468.383
  21452173.920    21452173.8704   21452174.3624  112731928.363 8  87843077.25845
     -1186.920        -924.861
  22488131.451    22488131.0964   22488131.7484  118175943.808 7  92085157.02344
      1231.308         959.469
  23259786.154    23259785.9184   23259784.6014  122230994.094 6  95244937.16742
     -3358.452       -2616.951
  22334453.027    22334453.0774   22334455.2264  117368343.329 7  91455872.65944
      2218.810        1728.953
  22810210.194    22810210.0034   22810211.9734  119868465.553 7  93404017.13644
      1605.371        1250.939
  24285081.400    24285081.4724   24285084.1374  127618987.582 5  99443378.21642
      2785.189        2170.357
  21714887.201    21714887.3504   21714888.5144  114112501.742 8  88918846.31446
      -799.676        -623.122
 08  5  5 12 57 30.0000000  0 10G 2G 7G10G13G16G23G24G25G27G29
  22213955.671    22213955.4114   22213955.1334  116735119.115 7  90962443.14044
     -3052.440       -2378.526
  23801061.502    23801062.1614   23801063.4024  125075442.262 6  97461403.46443
      3025.865        2357.815
  21571495.480    21571494.4094   21571496.6154  113358970.069 7  88331684.29145
      1864.808        1453.105
  21459013.868    21459013.7964   21459014.4524  112767873.183 7  87871086.19745
     -1210.098        -942.929
  22481159.370    22481159.0014   22481159.7504  118139306.302 7  92056608.30644
      1210.510         943.237
  23278996.947    23278996.2444   23278996.4224  122331947.225 6  95323601.94242
     -3372.292       -2627.691
  22321830.459    22321830.2164   22321832.7574  117302010.206 7  91404184.50644
      2202.667        1716.373
  22801095.365    22801095.4414   22801097.0284  119820564.850 7  93366691.86144
      1587.206        1236.769
  24269209.189    24269208.3334   24269211.3684  127535572.465 5  99378379.31942
      2775.489        2162.732
  21719512.741    21719512.9264   21719513.8934  114136808.983 7  88937786.99446
      -821.387        -640.039
 08  5  5 12 58  0.0000000  0 10G 2G 7G10G13G16G23G24G25G27G29
  22231425.425    22231425.4424   22231425.0304  116826925.199 7  91033980.35044
     -3067.604       -2390.369
  23783821.912    23783822.3254   23783822.8984  124984845.317 6  97390808.36343
      3013.986        2348.528
  21560903.978    21560903.2074   21560905.2384  113303313.185 7  88288315.30045
      1845.881        1438.328
  21465986.754    21465986.7264   21465987.0854  112804514.797 8  87899638.08245
     -1232.465        -960.389
  22474306.782    22474306.5394   22474307.2194  118103294.388 7  92028547.07344
      1190.453         927.590
  23298286.279    23298286.3634   23298285.3074  122433313.780 6  95402588.92142
     -3385.106       -2637.766
  22309300.149    22309299.9114   22309302.4684  117236162.301 7  91352874.45844
      2187.526        1704.543
  22792084.706    22792084.4904   22792086.0124  119773214.116 7  93329795.18644
      1569.766        1223.173
  24253392.105    24253392.2674   24253393.7524  127452457.307 5  99313614.27842
      2766.167        2155.412
  21724262.493    21724262.6784   21724263.6484  114161769.184 8  88957236.49246
      -842.450        -656.487
 08  5  5 12 58 30.0000000  0 10G 2G 7G10G13G16G23G24G25G27G29
  22248984.596    22248984.4114   22248983.4214  116919197.341 7  91105880.73844
     -3083.514       -2402.737
  23766650.677    23766650.7884   23766650.8994  124894607.262 6  97320492.93642
      3001.846        2339.065
  21550422.970    21550422.1684   21550424.2514  113248234.926 8  88245397.21045
      1826.211        1423.022
  21473088.831    21473088.7274   21473089.3564  112841836.841 8  87928720.17145
     -1255.484        -978.299
  22467570.372    22467569.8964   22467571.2894  118067894.408 7  92000962.68744
      1169.683         911.454
  23317651.718    23317649.8074   23317649.9684  122535075.830 6  95481884.05342
     -3398.617       -2648.310
  22296859.747    22296859.1374   22296861.6424  117170786.433 7  91301932.23344
      2171.298        1691.940
  22783176.376    22783176.3344   22783177.1224  119726399.677 7  93293316.42644
      1551.360        1208.893
  24237631.404    24237629.4764   24237631.9404  127369629.089 5  99249072.84442
      2756.247        2147.711
  21729133.556    21729133.7364   21729134.8624  114187366.688 8  88977182.58446
      -863.935        -673.184
 08  5  5 12 59  0.0000000  0 10G 2G 7G10G13G16G23G24G25G27G29
  22266632.643    22266632.4954   22266632.0654  117011940.948 7  91178148.47744
     -3100.452       -2415.953
  23749549.056    23749549.4544   23749550.8274  124804739.375 6  97250466.15743
      2988.567        2328.744
  21540054.033    21540053.1884   21540055.3374  113193745.194 7  88202937.69845
      1805.495        1406.871
  21480321.827    21480321.7614   21480322.2844  112879846.323 8  87958337.94745
     -1279.414        -996.959
  22460951.717    22460951.6414   22460952.2914  118033115.589 7  91973862.29344
      1147.831         894.393
  23337091.697    23337092.1414   23337090.9524  122637238.571 6  95561491.39842
     -3413.223       -2659.656
  22284510.915    22284510.2904   22284512.3764  117105892.332 7  91251365.41444
      2154.054        1678.461
  22774371.754    22774371.3274   22774373.1284  119680131.234 7  93257263.11844
      1532.065        1193.807
  24221925.333    24221925.7914   24221928.2724  127287097.550 5  99184762.35042
      2744.988        2138.959
  21734127.353    21734127.6064   21734128.4424  114213608.625 8  88997630.83346
      -886.412        -690.724
 08  5  5 12 59 30.0000000  0 10G 2G 7G10G13G16G23G24G25G27G29
  22284372.789    22284372.8244   22284371.8674  117105163.707 7  91250789.58544
     -3115.851       -2427.932
  23732519.473    23732520.7034   23732522.0904  124715253.490 6  97180736.86643
      2975.799        2318.782
  21529799.087    21529798.3124   21529800.4604  113139856.861 8  88160946.80345
      1785.735        1391.479
  21487687.323    21487687.1214   21487687.5754  112918552.016 8  87988498.23245
     -1302.259       -1014.760
  22454454.737    22454453.7664   22454454.9164  117998969.838 7  91947255.22544
      1127.326         878.418
  23356609.450    23356609.4014   23356609.3034  122739809.688 6  95641416.95542
     -3426.304       -2669.823
  22272255.594    22272255.4944   22272257.7964  117041492.491 7  91201183.73144
      2137.746        1665.747
  22765673.655    22765673.1014   22765674.2594  119634420.785 6  93221644.61844
      1513.921        1179.648
  24206280.895    24206279.6534   24206281.6584  127204876.313 5  99120693.89242
      2735.074        2131.212
  21739245.397    21739245.6714   21739246.6644  114240504.737 8  89018588.82545
      -907.913        -707.464
 08  5  5 13  0  0.0000000  0 10G 2G 7G10G13G16G23G24G25G27G29
  22302201.894    22302201.7544   22302201.2844  117198857.838 7  91323798.02544
     -3131.126       -2439.858
  23715563.758    23715564.0204   23715564.8934  124626147.339 6  97111303.36743
      2963.788        2309.418
  21519658.573    21519657.4504   21519659.7174  113086565.628 8  88119421.17145
      1766.275        1376.310
  21495183.848    21495183.9654   21495184.3714  112957947.313 8  88019195.83045
     -1324.809       -1032.318
  22448076.321    22448075.6724   22448077.2614  117965453.085 7  91921138.28744
      1106.702         862.359
  23376205.660    23376205.3374   23376205.2804  122842780.729 6  95721654.09842
     -3439.234       -2680.003
  22260094.256    22260093.7304   22260096.3904  116977583.466 7  91151384.49944
      2122.128        1653.603
  22757080.483    22757079.8824   22757081.6714  119589264.473 7  93186457.88644
      1495.797        1165.543
  24190690.567    24190692.7114   24190693.6354  127122960.951 6  99056863.54641
      2725.649        2123.829
  21744486.844    21744487.0894   21744488.2074  114268049.198 7  89040052.02945
      -929.075        -723.960
 08  5  5 13  0 30.0000000  0 10G 2G 7G10G13G16G23G24G25G27G29
  22320116.578    22320116.5214   22320115.1284  117292997.626 7  91397153.69044
     -3145.218       -2450.836
  23698676.202    23698676.6764   23698677.3154  124537401.542 6  97042150.96743
      2952.226        2300.428
  21509626.807    21509626.1834   21509628.1444  113033850.644 7  88078344.56345
      1747.763        1361.900
  21502807.072    21502807.1334   21502807.4614  112998007.791 8  88050411.78845
     -1346.327       -1049.090
  22441813.968    22441813.5214   22441814.5864  117932543.450 7  91895494.43544
      1086.975         846.974
  23395870.828    23395870.5394   23395870.1544  122946125.867 6  95802182.78242
     -3450.925       -2689.098
  22248022.291    22248021.8044   22248024.2714  116914143.956 7  91101951.13744
      2106.996        1641.807
  22748588.990    22748588.2924   22748589.6894  119544640.929 7  93151686.33644
      1478.788        1152.308
  24175157.679    24175157.0924   24175159.9714  127041331.123 5  98993255.71042
      2716.424        2116.704
  21749846.943    21749847.2074   21749848.4144  114296217.802 8  89062001.58045
      -949.261        -739.698
 08  5  5 13  1  0.0000000  0 10G 2G 7G10G13G16G23G24G25G27G29
  22338116.552    22338116.0494   22338115.4764  117387587.351 7  91470859.98444
     -3160.960       -2463.090
  23681858.958    23681859.0254   23681860.5894  124449024.459 6  96973285.74343
      2939.203        2290.305
  21499706.925    21499706.1214   21499708.0724  112981720.151 7  88037723.39445
      1727.432        1346.046
  21510558.214    21510557.9454   21510558.6504  113038738.587 8  88082150.05445
     -1369.323       -1067.005
  22435668.652    22435668.3114   22435669.1864  117900249.100 7  91870330.04044
      1065.703         830.413
  23415609.753    23415608.3374   23415607.9024  123049849.175 6  95883006.08242
     -3464.292       -2699.427
  22236041.384    22236040.5594   22236042.8934  116851182.369 7  91052890.15344
      2090.250        1628.766
  22740199.994    22740200.1404   22740201.3764  119500558.280 6  93117336.24144
      1459.851        1137.535
  24159681.205    24159679.8884   24159682.4394  126959996.110 5  98929877.63842
      2705.847        2108.458
  21755327.440    21755327.5774   21755328.7514  114325016.712 7  89084442.28445
      -970.852        -756.511
 08  5  5 13  1 30.0000000  0 10G 2G 7G10G13G16G23G24G25G27G29
  22356202.338    22356201.4854   22356201.4324  117482630.212 7  91544919.35744
     -3176.438       -2475.150
  23665113.334    23665113.5564   23665113.9904  124361025.312 6  96904714.90543
      2926.112        2280.090
  21489899.659    21489898.6314   21489900.6874  112930182.001 8  87997563.80545
      1707.155        1330.256
  21518437.236    21518437.1604   21518437.9074  113080144.763 8  88114414.59145
     -1392.317       -1084.930
  22429641.432    22429641.0714   22429642.3044  117868577.704 7  91845651.08244
      1044.307         813.749
  23435418.945    23435419.1284   23435418.6794  123153954.074 6  95964126.78142
     -3477.490       -2709.794
  22224152.576    22224152.1814   22224154.4554  116788707.062 7  91004208.06844
      2073.464        1615.673
  22731915.995    22731915.7154   22731916.9564  119457024.475 7  93083413.82044
      1441.134        1122.979
  24144261.579    24144259.9894   24144262.3404  126878964.978 5  98866736.69242
      2695.149        2100.107
  21760928.673    21760929.0354   21760929.9064  114354451.153 8  89107378.21345
      -992.498        -773.370
 08  5  5 13  2  0.0000000  0 10G 2G 7G10G13G16G23G24G25G27G29
  22374375.509    22374375.0624   22374374.6994  117578131.358 7  91619335.82844
     -3191.619       -2486.993
  23648441.633    23648441.2464   23648442.4714  124273413.900 6  96836446.26943
      2913.192        2270.011
  21480206.393    21480205.8054   21480207.8854  112879245.324 8  87957872.89545
      1687.336        1314.813
  21526446.090    21526446.2574   21526447.1144  113122231.964 7  88147209.81045
     -1414.777       -1102.408
  22423734.417    22423734.0884   22423734.9094  117837537.164 7  91821463.68944
      1023.718         797.702
  23455303.653    23455303.0434   23455302.9794  123258444.566 6  96045547.91642
     -3489.940       -2719.430
  22212358.072    22212357.7224   22212359.9674  116726726.966 7  90955911.87144
      2057.125        1602.969
  22723737.329    22723737.3684   22723739.1214  119414047.941 7  93049925.61644
      1422.729        1108.631
  24128900.303    24128900.2264   24128903.0284  126798245.665 5  98803838.52942
      2685.104        2092.316
  21766651.777    21766652.1804   21766653.2624  114384527.354 8  89130814.23145
     -1013.765        -789.945
 08  5  5 13  2 30.0000000  0 10G 2G 7G10G13G16G23G24G25G27G29
  22392633.825    22392633.5354   22392633.4104  117674079.198 7  91694100.40944
     -3205.922       -2498.133
  23631842.075    23631842.0984   23631842.8174  124186184.549 6  96768475.48243
      2900.844        2260.388
  21470626.545    21470625.8464   21470627.9324  112828902.846 8  87918645.00545
      1667.840        1299.597
  21534582.872    21534583.0644   21534583.4954  113164989.904 7  88180527.67245
     -1436.718       -1119.529
  22417946.422    22417946.2454   22417947.1884  117807120.422 7  91797762.37244
      1003.313         781.783
  23475258.650    23475257.7514   23475256.9754  123363309.105 6  96127260.49742
     -3502.106       -2728.909
  22200656.687    22200656.0764   22200658.4424  116665235.238 7  90907996.19344
      2041.366        1590.651
  22715663.922    22715663.9564   22715665.3024  119371621.584 7  93016866.13144
      1404.751        1094.596
  24113598.871    24113598.3344   24113601.0774  126717832.139 6  98741178.77342
      2675.204        2084.570
  21772495.621    21772495.8874   21772496.8754  114415235.731 7  89154742.84546
     -1034.440        -806.062
 08  5  5 13  3  0.0000000  0 10G 2G 7G10G13G16G23G24G25G27G29
  22410976.961    22410976.4874   22410976.1674  117770473.398 7  91769212.70144
     -3220.140       -2509.208
  23615316.661    23615315.9404   23615317.9524  124099342.128 6  96700806.16643
      2888.898        2251.079
  21461160.485    21461160.1344   21461161.8784  112779159.114 8  87879883.65845
      1648.700        1284.699
  21542847.119    21542847.3944   21542848.0034  113208419.551 8  88214368.93245
     -1458.221       -1136.282
  22412277.439    22412277.5234   22412278.2534  117777330.947 7  91774549.80644
       982.929         765.919
  23495284.316    23495283.4624   23495284.2804  123468547.417 6  96209264.38142
     -3513.327       -2737.628
  22189049.245    22189048.4434   22189050.7094  116604236.151 7  90860464.42244
      2025.687        1578.449
  22707696.287    22707696.2494   22707697.6314  119329749.193 7  92984238.27944
      1387.148        1080.888
  24098354.570    24098355.8284   24098357.0704  126637728.578 5  98678760.42942
      2665.583        2077.085
  21778459.736    21778459.9434   21778461.1284  114446577.667 7  89179165.12345
     -1054.694        -821.845
 08  5  5 13  3 30.0000000  0 10G 2G 7G10G13G16G23G24G25G27G29
  22429404.006    22429403.7344   22429403.5074  117867308.380 7  91844668.36844
     -3235.034       -2520.790
  23598864.064    23598864.0564   23598865.5374  124012886.046 6  96633437.79143
      2875.586        2240.757
  21451808.651    21451807.7444   21451809.6144  112730012.355 8  87841587.47645
      1628.434        1268.936
  21551238.622    21551238.7344   21551239.4754  113252516.720 7  88248730.33845
     -1480.896       -1153.922
  22406728.228    22406727.9094   22406728.4704  117748167.270 7  91751824.85744
       961.870         749.542
  23515381.545    23515381.5174   23515379.2424  123574153.693 6  96291554.92142
     -3526.051       -2747.535
  22177534.761    22177534.3804   22177536.4184  116543728.551 7  90813315.66044
      2008.941        1565.417
  22699833.281    22699833.3234   22699834.5924  119288429.524 7  92952041.11644
      1368.176        1066.128
  24083170.830    24083170.8864   24083172.6534  126557934.853 5  98616583.64242
      2654.860        2068.753
  21784543.823    21784543.8764   21784545.0404  114478549.584 7  89204078.31545
     -1075.925        -838.358
 08  5  5 13  4  0.0000000  0 10G 2G 7G10G13G16G23G24G25G27G29
  22447910.933    22447910.7334   22447910.5734  117964562.896 6  91920450.97644
     -3249.339       -2531.969
  23582483.040    23582483.1434   23582484.3334  123926799.781 6  96566357.40943
      2862.872        2230.804
  21442566.652    21442565.6444   21442567.8644  112681445.551 7  87803743.21045
      1608.717        1253.540
  21559753.086    21559753.1714   21559753.6444  113297260.756 8  88283595.82145
     -1502.745       -1170.981
  22401294.325    22401293.7684   22401294.5234  117719611.239 7  91729573.38644
       941.240         733.433
  23535543.241    23535543.9774   23535542.0314  123680106.109 6  96374115.22942
     -3538.254       -2757.083
  22166110.308    22166110.2534   22166112.8224  116483695.414 7  90766536.61444
      1992.660        1552.719
  22692072.495    22692072.2324   22692072.9834  119247645.068 7  92920261.02844
      1350.079        1051.981
  24068041.426    24068041.4094   24068044.1474  126478433.689 5  98554634.80542
      2644.547        2060.652
  21790744.106    21790744.1424   21790745.0474  114511131.569 8  89229466.85745
     -1096.757        -854.626
 08  5  5 13  4 30.0000000  0 10G 2G 7G10G13G16G23G24G25G27G29
  22466499.967    22466500.2054   22466499.9534  118062249.455 6  91996570.25544
     -3263.982       -2543.366
  23566174.133    23566175.5044   23566175.5404  123841101.260 6  96499578.83443
      2849.533        2220.408
  21433438.174    21433437.3974   21433439.5114  112633475.495 7  87766363.94045
      1588.425        1237.736
  21568393.119    21568393.4494   21568394.0134  113342665.466 8  88318976.11245
     -1525.052       -1188.347
  22395978.897    22395978.7134   22395979.3464  117691679.585 7  91707808.45344
       920.071         716.931
  23555773.622    23555773.4434   23555773.7554  123786417.468 6  96456955.24842
     -3550.330       -2766.464
  22154780.214    22154780.2294   22154782.2154  116424153.890 7  90720140.61545
      1975.917        1539.677
  22684416.388    22684415.9894   22684418.2324  119207412.588 7  92888911.06044
      1331.276        1037.346
  24052971.664    24052971.0224   24052975.5644  126399242.683 5  98492927.55642
      2633.596        2052.130
  21797063.102    21797063.2134   21797064.0634  114544338.139 7  89255342.11945
     -1117.842        -871.061
 08  5  5 13  5  0.0000000  0 10G 2G 7G10G13G16G23G24G25G27G29
  22485170.529    22485170.6134   22485170.2594  118160362.785 6  92073022.12444
     -3278.212       -2554.431
  23549940.211    23549941.5684   23549942.1034  123755792.557 6  96433104.88943
      2836.482        2210.241
  21424423.036    21424422.2204   21424424.4074  112586101.454 7  87729449.09945
      1568.454        1222.171
  21577158.497    21577158.5514   21577159.1534  113388726.294 7  88354867.66845
     -1546.943       -1205.399
  22390782.588    22390781.9234   22390782.6004  117664370.725 7  91686528.83544
       899.104         700.578
  23576070.992    23576071.2014   23576070.9454  123893081.992 6  96540070.47742
     -3561.969       -2775.548
  22143543.207    22143542.5414   22143545.0724  116365103.053 7  90674126.99945
      1959.495        1526.899
  22676865.252    22676864.5164   22676866.1434  119167730.547 7  92857989.96544
      1312.879        1023.019
  24037961.672    24037960.5344   24037964.3774  126320360.889 5  98431461.09442
      2623.354        2044.195
  21803500.037    21803500.1244   21803501.2544  114578165.244 8  89281700.91045
     -1138.579        -887.196
 08  5  5 13  5 30.0000000  0 11G 2G 6G 7G10G13G16G23G24G25G27G29
  22503921.038    22503920.7204   22503920.8484  118258895.405 7  92149800.74944
     -3291.985       -2565.177
  24767059.459    24767060.2614   24767062.9184  130151785.716 5 101416990.58642
      3191.414        2486.805
  23533780.713    23533781.4444   23533781.6734  123670869.449 6  96366931.15843
      2823.807        2200.362
  21415520.665    21415520.1084   21415522.1674  112539319.793 7  87692995.85945
      1548.992        1207.014
  21586047.437    21586047.3104   21586047.9184  113435437.032 7  88391265.64045
     -1568.389       -1222.131
  22385703.338    22385702.8944   22385703.6124  117637680.703 7  91665731.43344
       878.780         684.771
  23596434.366    23596433.7384   23596432.3494  124000091.650 6  96623454.63042
     -3573.287       -2784.385
  22132398.968    22132398.7324   22132401.1754  116306539.710 7  90628493.22245
      1943.418        1514.353
  22669417.600    22669417.8894   22669419.1234  119128595.589 7  92827495.18544
      1294.815        1008.970
  24023008.242    24023008.9304   24023011.0094  126241786.535 5  98370234.53742
      2613.472        2036.501
  21810054.330    21810054.2354   21810055.3654  114612607.251 7  89308538.83745
     -1158.875        -903.009
 08  5  5 13  6  0.0000000  0 11G 2G 6G 7G10G13G16G23G24G25G27G29
  22522751.250    22522750.9464   22522750.5024  118357845.978 7  92226904.94444
     -3304.897       -2575.245
  24748858.246    24748858.1694   24748860.5464  130056136.194 5 101342458.52842
      3184.614        2481.518
  23517694.468    23517695.2874   23517695.2864  123586336.444 6  96301061.35443
      2811.439        2190.740
  21406731.933    21406731.0894   21406733.2944  112493134.042 8  87657006.99545
      1529.947        1192.159
  21595059.322    21595059.6944   21595060.4744  113482797.645 7  88428170.01145
     -1589.114       -1238.276
  22380742.528    22380742.2044   22380743.1074  117611612.133 7  91645418.27644
       858.913         669.297
  23616864.043    23616863.1884   23616860.7724  124107445.204 6  96707106.70642
     -3583.654       -2792.435
  22121348.389    22121347.8644   22121350.2934  116248467.425 7  90583242.12945
      1927.846        1502.213
  22662075.633    22662075.4284   22662076.6214  119090010.853 7  92797429.17644
      1277.295         995.278
  24008116.414    24008116.2974   24008118.8034  126163522.416 5  98309249.55342
      2603.711        2028.889
  21816725.254    21816725.6084   21816726.6254  114647664.770 7  89335856.40445
     -1178.506        -918.322
 08  5  5 13  6 30.0000000  0 11G 2G 6G 7G10G13G16G23G24G25G27G29
  22541658.006    22541657.9244   22541657.7184  118457204.265 6  92304326.89044
     -3319.748       -2586.816
  24730698.249    24730697.7204   24730700.2094  129960703.736 6 101268095.61942
      3176.504        2475.177
  23501681.361    23501681.6654   23501682.9954  123502188.138 6  96235491.17443
      2797.272        2179.692
  21398055.166    21398054.4274   21398056.7644  112447537.406 8  87621477.11845
      1509.115        1175.948
  21604194.290    21604193.9014   21604194.2214  113530798.521 7  88465573.28645
     -1611.826       -1255.955
  22375898.967    22375898.7574   22375899.5184  117586158.615 7  91625584.36344
       837.128         652.321
  23637355.511    23637355.0924   23637354.2104  124215131.859 6  96791018.36542
     -3595.875       -2801.951
  22110389.463    22110389.4314   22110391.6154  116190880.137 7  90538368.95345
      1910.394        1488.625
  22654836.415    22654836.2334   22654837.9944  119051969.432 7  92767786.49244
      1257.917         980.192
  23993282.198    23993280.9954   23993283.0594  126085563.338 6  98248502.36742
      2592.653        2020.227
  21823511.953    21823512.2944   21823513.2124  114683328.707 8  89363646.48645
     -1199.901        -934.977
 08  5  5 13  7  0.0000000  0 11G 2G 6G 7G10G13G16G23G24G25G27G29
  22560643.795    22560642.9564   22560643.1474  118556971.716 7  92382067.67144
     -3333.695       -2597.665
  24712580.349    24712580.1674   24712583.3204  129865494.607 6 101193906.71042
      3168.423        2468.864
  23485742.893    23485743.0174   23485744.2544  123418431.517 6  96170226.23643
      2784.051        2169.390
  21389491.832    21389490.8484   21389493.1124  112402535.901 8  87586411.06345
      1488.858        1160.161
  21613450.612    21613450.6044   21613450.9884  113579442.177 7  88503477.44345
     -1633.523       -1272.889
  22371173.386    22371172.7964   22371173.9904  117561325.016 7  91606233.52444
       816.077         635.904
  23657911.553    23657910.8844   23657911.0264  124323153.259 6  96875190.90542
     -3607.515       -2811.098
  22099524.590    22099524.1834   22099526.4924  116133783.668 7  90493878.21045
      1893.820        1475.721
  22647701.782    22647701.6584   22647703.4414  119014477.148 7  92738571.72644
      1239.234         965.648
  23978505.163    23978504.5874   23978507.0844  126007915.043 5  98187997.25042
      2581.942        2011.920
  21830414.639    21830414.9414   21830415.8814  114719602.255 7  89391911.59645
     -1220.531        -951.065
 08  5  5 13  7 30.0000000  0 11G 2G 6G 7G10G13G16G23G24G25G27G29
  22579707.177    22579706.9094   22579707.2744  118657153.419 6  92460131.26044
     -3346.216       -2607.448
  24694507.767    24694507.2584   24694510.5564  129770519.160 6 101119899.85542
      3162.077        2463.937
  23469881.080    23469880.7964   23469883.1124  123335077.170 6  96105274.83243
      2772.031        2160.000
  21381043.120    21381042.2854   21381044.7154  112358138.929 7  87551816.04345
      1469.870        1145.368
  21622830.461    21622830.4804   21622831.2954  113628734.831 7  88541887.31845
     -1653.892       -1288.745
  22366567.638    22366566.9684   22366567.9314  117537120.470 7  91587372.84344
       796.256         620.450
  23678531.909    23678531.1344   23678531.5654  124431514.045 6  96959627.84242
     -3617.705       -2819.007
  22088754.518    22088754.4674   22088756.5734  116077187.566 7  90449777.37345
      1878.041        1463.405
  22640673.376    22640673.0864   22640674.5554  118977543.066 7  92709791.92744
      1221.866         952.126
  23963789.388    23963791.4494   23963791.5264  125930587.914 5  98127742.37842
      2572.425        2004.487
  21837434.281    21837434.7824   21837435.7354  114756491.874 7  89420656.73645
     -1239.922        -966.180
 08  5  5 13  8  0.0000000  0 11G 2G 6G 7G10G13G16G23G24G25G27G29
  22598846.206    22598845.9554   22598845.7484  118757728.804 7  92538501.66443
     -3359.121       -2617.497
  24676475.002    24676476.0704   24676476.5504  129675762.120 6 101046063.29042
      3154.872        2458.301
  23454093.222    23454093.4154   23454095.1194  123252109.864 6  96040625.07543
      2758.920        2149.795
  21372706.583    21372705.7594   21372708.2694  112314329.770 7  87517678.98645
      1450.503        1130.246
  21632330.408    21632330.4774   21632331.0854  113678656.748 8  88580787.51745
     -1674.556       -1304.858
  22362077.723    22362077.1844   22362078.3784  117513527.590 7  91568988.77344
       776.011         604.683
  23699212.410    23699212.3134   23699212.9204  124540193.555 6  97044313.12841
     -3627.958       -2827.038
  22078076.890    22078076.6364   22078078.7144  116021075.613 7  90406053.75545
      1862.181        1451.050
  22633748.410    22633748.1964   22633749.5454  118941150.619 7  92681434.18244
      1203.953         938.156
  23949134.166    23949133.4424   23949135.1314  125853565.886 6  98067725.26142
      2562.471        1996.729
  21844568.163    21844568.3694   21844569.3904  114793978.916 7  89449867.41945
     -1259.569        -981.485
 08  5  5 13  8 30.0000000  0 11G 2G 6G 7G10G13G16G23G24G25G27G29
  22618061.699    22618061.1174   22618060.7214  118858704.022 6  92617183.63743
     -3372.956       -2628.272
  24658487.540    24658486.4624   24658489.1174  129581234.242 5 100972405.23542
      3146.611        2451.883
  23438380.137    23438381.1724   23438381.8114  123169540.416 6  95976285.23143
      2745.267        2139.177
  21364483.727    21364483.2194   21364485.5254  112271119.128 8  87484008.29245
      1429.928        1114.262
  21641951.357    21641951.3454   21641951.8294  113729214.692 7  88620183.29845
     -1696.394       -1321.861
  22357706.349    22357705.9944   22357706.8504  117490556.201 7  91551089.02344
       754.920         588.258
  23719955.645    23719954.4674   23719954.4224  124649197.467 5  97129251.19041
     -3639.744       -2836.155
  22067493.247    22067493.0824   22067495.4804  115965458.269 7  90362715.54145
      1845.214        1437.844
  22626928.003    22626928.0234   22626928.9014  118905309.555 7  92653506.04844
      1185.068         923.456
  23934537.233    23934537.0294   23934538.8274  125776859.741 5  98007954.28342
      2551.227        1987.973
  21851816.664    21851816.9124   21851817.8224  114832070.655 7  89479549.28345
     -1280.339        -997.669
 08  5  5 13  9  0.0000000  0 11G 2G 6G 7G10G13G16G23G24G25G27G29
  22637349.669    22637349.5764   22637349.8664  118960067.260 6  92696168.06744
     -3386.594       -2638.886
  24640542.352    24640541.9844   24640544.2784  129486928.691 6 100898920.43842
      3138.646        2445.687
  23422743.060    23422742.6894   23422745.1814  123087363.290 6  95912251.32643
      2731.472        2128.408
  21356373.769    21356372.8234   21356375.0544  112228498.875 7  87450797.64545
      1409.589        1098.371
  21651691.207    21651691.2084   21651691.8024  113780397.912 7  88660066.23845
     -1717.722       -1338.481
  22353451.808    22353451.6694   22353452.4244  117468198.372 7  91533667.35344
       733.747         571.738
  23740757.682    23740758.1964   23740756.3734  124758514.229 5  97214433.05741
     -3650.290       -2844.410
  22057002.254    22057002.2234   22057004.3954  115910328.064 7  90319756.94945
      1828.267        1424.622
  22620211.065    22620210.8884   22620212.6314  118870012.372 7  92626001.70144
      1166.188         908.712
  23919999.632    23919999.4484   23920000.9474  125700462.800 6  97948424.19542
      2539.964        1979.200
  21859178.546    21859178.6854   21859179.6984  114870757.062 8  89509694.51145
     -1300.611       -1013.463
 08  5  5 13  9 30.0000000  0 11G 2G 6G 7G10G13G16G23G24G25G27G29
  22656716.703    22656716.4604   22656716.0354  119061840.250 6  92775471.74043
     -3398.585       -2648.237
  24622643.423    24622642.6014   24622645.6494  129392872.604 6 100825630.04842
      3131.500        2440.072
  23407185.160    23407185.4954   23407186.3854  123005604.763 6  95848543.44943
      2718.797        2118.557
  21348380.523    21348379.9494   21348381.9804  112186495.316 8  87418067.59845
      1390.460        1083.462
  21661554.544    21661554.3884   21661555.1494  113832229.511 8  88700454.49744
     -1737.964       -1354.270
  22349319.260    22349318.6874   22349319.2364  117446479.512 7  91516743.58144
       713.904         556.269
  23761623.892    23761622.6004   23761621.9734  124868165.184 5  97299875.34441
     -3660.212       -2852.183
  22046609.388    22046608.9094   22046611.1084  115855711.349 7  90277198.48045
      1812.575        1412.384
  22613602.695    22613602.4664   22613604.0524  118835284.858 7  92598941.27844
      1148.751         895.124
  23905525.620    23905525.3734   23905527.3844  125624401.503 5  97889155.63642
      2530.264        1971.611
  21866657.987    21866658.0504   21866659.0754  114910061.500 7  89540321.33245
     -1319.868       -1028.476
 08  5  5 13 10  0.0000000  0 11G 2G 6G 7G10G13G16G23G24G25G27G29
  22676156.344    22676155.9244   22676155.3154  119163995.329 6  92855073.23643
     -3411.589       -2658.357
  24604787.346    24604787.3184   24604790.8124  129299043.063 6 100752516.17742
      3123.959        2434.256
  23391701.316    23391702.2324   23391703.5444  122924242.366 6  95785144.23743
      2705.261        2108.021
  21340500.432    21340499.5994   21340501.9494  112145084.330 8  87385799.27645
      1370.606        1068.009
  21671535.867    21671535.6954   21671536.3254  113884682.240 7  88741326.75544
     -1758.725       -1370.436
  22345302.991    22345302.4044   22345303.0364  117425375.312 7  91500298.75544
       693.455         540.373
  23782548.245    23782548.0114   23782547.7894  124978122.347 5  97385556.24341
     -3670.109       -2859.790
  22036309.192    22036308.9634   22036310.7874  115801584.495 7  90235021.72445
      1796.134        1399.576
  22607098.437    22607098.1744   22607099.5584  118801102.844 7  92572305.93944
      1130.433         880.862
  23891109.806    23891109.7164   23891113.1494  125548652.760 6  97830130.63542
      2519.750        1963.446
  21874250.093    21874249.9734   21874251.0474  114949957.466 8  89571409.07345
     -1339.614       -1043.850
 08  5  5 13 10 30.0000000  0 11G 2G 6G 7G10G13G16G23G24G25G27G29
  22695667.613    22695667.5244   22695666.8014  119266529.072 6  92934969.77743
     -3424.850       -2668.718
  24586976.116    24586976.5634   24586978.8124  129205442.036 6 100679580.34942
      3115.549        2427.721
  23376295.078    23376295.6314   23376296.3064  122843278.528 6  95722055.55043
      2691.483        2097.265
  21332733.478    21332732.5404   21332734.6114  112104267.167 7  87353993.66145
      1349.994        1051.939
  21681635.172    21681634.7944   21681635.4744  113937754.307 7  88782681.62044
     -1780.041       -1387.040
  22341403.982    22341403.3724   22341404.3644  117404886.483 7  91484333.45544
       671.980         523.604
  23803529.758    23803529.7454   23803529.0384  125088382.659 5  97471473.36141
     -3681.193       -2868.439
  22026102.633    22026102.2844   22026104.3844  115747948.998 7  90193227.84845
      1778.926        1386.175
  22600697.467    22600697.3314   22600699.0364  118767467.408 7  92546096.51744
      1111.147         865.834
  23876757.083    23876754.7094   23876757.7694  125473218.426 5  97771350.62842
      2508.382        1954.597
  21881954.383    21881954.3324   21881955.3714  114990443.455 8  89602956.56845
     -1360.206       -1059.906
 08  5  5 13 11  0.0000000  0 11G 2G 6G 7G10G13G16G23G24G25G27G29
  22715248.266    22715248.6854   22715247.9654  119369429.255 6  93015151.71943
     -3436.219       -2677.584
  24569206.772    24569206.9944   24569209.1144  129112062.447 6 100606817.07042
      3108.912        2422.532
  23360963.283    23360963.4494   23360964.2114  122762706.085 6  95659271.73943
      2679.089        2087.597
  21325077.617    21325076.7284   21325078.7684  112064035.971 8  87322644.71345
      1330.974        1037.119
  21691849.812    21691850.2024   21691850.9064  113991434.019 7  88824509.95545
     -1799.667       -1402.332
  22337620.406    22337620.1244   22337620.8714  117385004.162 7  91468840.73244
       652.416         508.372
  23824566.755    23824567.1144   23824566.0814  125198933.355 5  97557616.78341
     -3690.253       -2875.548
  22015988.136    22015987.7764   22015989.9554  115694796.927 7  90151810.63545
      1763.475        1374.116
  22594398.909    22594398.9114   22594400.8174  118734370.161 7  92520306.46744
      1093.968         852.441
  23862459.019    23862458.8364   23862461.9554  125398091.067 5  97712809.88442
      2498.828        1947.152
  21889768.647    21889768.9214   21889770.0414  115031508.755 7  89634955.46645
     -1378.793       -1074.395
 08  5  5 13 11 30.0000000  0 11G 2G 6G 7G10G13G16G23G24G25G27G29
  22734902.421    22734902.6854   22734902.6324  119472713.453 6  93095632.88743
     -3449.191       -2687.689
  24551483.457    24551483.7204   24551485.6924  129018926.419 6 100534243.53942
      3100.551        2416.049
  23345709.040    23345708.7394   23345709.7264  122682547.960 6  95596810.91843
      2665.232        2076.784
  21317537.373    21317536.3774   21317538.7914  112024412.061 8  87291768.91645
      1310.735        1021.360
  21702183.920    21702184.4204   21702184.5914  114045739.409 7  88866825.83245
     -1820.491       -1418.543
  22333956.596    22333956.0404   22333957.1224  117365749.442 7  91453837.06644
       631.388         492.024
  23845662.410    23845661.8934   23845661.1714  125309791.223 5  97643999.52441
     -3700.356       -2883.328
  22005969.918    22005969.5424   22005971.8534  115642149.898 7  90110786.99345
      1746.645        1361.021
  22588207.446    22588207.2684   22588209.1614  118701832.353 7  92494952.37744
      1075.322         837.919
  23848224.849    23848225.1864   23848228.3494  125323292.320 5  97654525.12442
      2488.029        1938.793
  21897697.090    21897697.2424   21897698.2614  115073172.056 8  89667420.29545
     -1398.668       -1089.868
 08  5  5 13 12  0.0000000  0 11G 2G 6G 7G10G13G16G23G24G25G27G29
  22754627.493    22754626.9514   22754626.2864  119576362.319 6  93176398.26143
     -3461.611       -2697.357
  24533803.995    24533804.3324   24533805.9644  128926019.849 6 100461848.81842
      3092.342        2409.593
  23330532.277    23330531.5674   23330532.7694  122602790.188 6  95534662.14143
      2651.176        2065.878
  21310109.960    21310109.0784   21310110.9864  111985380.099 8  87261354.39245
      1290.536        1005.635
  21712633.626    21712633.8304   21712634.3354  114100652.357 8  88909615.13645
     -1841.255       -1434.734
  22330408.762    22330408.1264   22330409.0284  117347106.061 7  91439309.71244
       610.629         475.817
  23866811.935    23866811.9844   23866813.7044  125420937.714 5  97730607.17941
     -3709.937       -2890.924
  21996044.365    21996044.3744   21996046.4114  115589992.816 7  90070145.05345
      1729.664        1347.796
  22582119.413    22582119.2024   22582120.7254  118669838.429 7  92470022.04144
      1056.720         823.428
  23834052.237    23834051.2734   23834054.2594  125248808.284 6  97596485.66342
      2476.667        1929.896
  21905735.912    21905735.9104   21905737.0244  115115415.821 8  89700337.48845
     -1418.525       -1105.343
 08  5  5 13 12 30.0000000  0 12G 2G 6G 7G10G13G16G21G23G24G25G27G29
  22774421.232    22774420.4354   22774420.5164  119680383.495 6  93257453.87743
     -3473.779       -2706.849
  24516170.718    24516170.7064   24516172.7544  128833355.300 6 100389642.69242
      3084.627        2403.618
  23315433.070    23315432.9764   23315433.8834  122523445.075 6  95472834.80843
      2637.875        2055.467
  21302797.080    21302796.4394   21302798.2044  111946951.766 8  87231410.24145
      1270.770         990.214
  21723200.637    21723200.4794   21723201.1834  114156180.968 7  88952884.16345
     -1861.310       -1450.364
  22326979.920    22326979.0244   22326979.7974  117329085.502 7  91425267.72344
       590.221         459.910
  25049820.311    25049819.2624   25049821.5684  131637677.514 5 102574845.50141
      3429.936        2672.671
  23888019.806    23888019.0644   23888018.5024  125532379.612 5  97817444.99341
     -3719.540       -2898.288
  21986215.057    21986214.6074   21986217.1374  115538337.694 7  90029894.25745
      1713.375        1335.118
  22576136.976    22576136.5274   22576138.2024  118638399.859 7  92445524.44844
      1038.562         809.281
  23819940.016    23819939.0484   23819942.0834  125174650.840 5  97538700.63942
      2466.280        1921.815
  21913886.301    21913886.7764   21913887.8824  115158248.526 7  89733713.57345
     -1437.557       -1120.168
 08  5  5 13 13  0.0000000  0 12G 2G 6G 7G10G13G16G21G23G24G25G27G29
  22794284.686    22794285.0834   22794284.2664  119784771.513 6  93338795.33143
     -3486.114       -2716.453
  24498583.409    24498582.8294   24498584.6834  128740932.570 6 100317625.03242
      3076.196        2397.018
  23300412.357    23300412.6274   23300413.3884  122444512.585 6  95411329.01843
      2623.561        2044.299
  21295599.166    21295598.3864   21295600.3284  111909125.583 8  87201935.27045
      1250.319         974.267
  21733883.431    21733883.6884   21733884.2814  114212320.805 7  88996629.49645
     -1882.052       -1466.511
  22323668.468    22323668.1214   22323669.1754  117311685.750 7  91411709.49244
       569.101         443.455
  25030250.827    25030250.3384   25030250.8404  131534834.247 5 102494707.95141
      3425.616        2669.330
  23909281.240    23909282.0834   23909280.2784  125644111.517 5  97904508.75741
     -3730.012       -2906.479
  21976480.663    21976480.5684   21976482.6664  115487183.676 7  89990033.99345
      1696.240        1321.748
  22570259.625    22570259.3054   22570261.4874  118607515.122 7  92421458.44544
      1019.705         794.578
  23805891.141    23805890.1244   23805892.2154  125100819.622 6  97481169.85442
      2455.171        1913.121
  21922149.183    21922149.0124   21922150.0664  115201666.587 7  89767545.79945
     -1457.540       -1135.755
 08  5  5 13 13 30.0000000  0 12G 2G 6G 7G10G13G16G21G23G24G25G27G29
  22814218.331    22814218.5044   22814217.8944  119889519.772 6  93420417.33443
     -3497.649       -2725.446
  24481041.921    24481041.5394   24481044.4864  128648750.340 6 100245794.71742
      3068.587        2391.109
  23285470.402    23285471.0494   23285471.5904  122365992.124 6  95350144.26143
      2610.377        2034.047
  21288515.192    21288514.5434   21288516.3964  111871899.728 8  87172928.10445
      1230.824         959.090
  21744681.902    21744681.8824   21744682.4474  114269066.482 7  89040846.92344
     -1901.619       -1481.778
  22320475.052    22320474.7374   22320475.5224  117294904.088 7  91398632.85644
       549.021         427.816
  25010700.897    25010699.3454   25010702.1344  131432102.862 5 102414657.59341
      3422.587        2666.993
  23930597.104    23930597.8754   23930595.9834  125756127.088 5  97991793.59541
     -3738.683       -2913.228
  21966841.620    21966841.1824   21966843.4824  115436528.872 7  89950562.67145
      1680.155        1309.211
  22564487.311    22564487.1824   22564488.7804  118577181.985 7  92397822.25844
      1001.868         780.659
  23791903.377    23791902.3104   23791905.0524  125027313.229 6  97423892.17342
      2444.702        1904.989
  21930521.472    21930521.6074   21930522.6524  115245665.028 7  89801830.28845
     -1476.275       -1150.346
 08  5  5 13 14  0.0000000  0 12G 2G 6G 7G10G13G16G21G23G24G25G27G29
  22834217.212    22834217.5164   22834217.0254  119994615.282 6  93502309.88543
     -3508.797       -2734.135
  24463543.578    24463543.3884   24463545.1464  128556800.834 6 100174145.77742
      3061.576        2385.694
  23270604.739    23270605.3634   23270607.0024  122287875.631 6  95289274.24843
      2597.407        2023.936
  21281543.838    21281543.0944   21281545.3084  111835264.857 8  87144381.40645
      1211.564         944.084
  21755593.173    21755593.0344   21755593.5024  114326405.789 7  89085526.89144
     -1920.983       -1496.889
  22317397.753    22317397.0494   22317397.8094  117278730.724 7  91386030.22844
       529.339         412.455
  24991170.855    24991170.0234   24991171.4714  131329474.618 5 102334687.60341
      3419.554        2664.633
  23951964.105    23951964.9134   23951963.2394  125868413.151 5  98079289.15641
     -3747.223       -2919.869
  21957295.350    21957295.0754   21957297.5504  115386364.431 7  89911473.48545
      1664.238        1296.806
  22558818.034    22558818.1324   22558819.9624  118547391.051 7  92374608.55744
       984.327         767.012
  23777975.120    23777974.6604   23777976.9494  124954123.642 5  97366861.48942
      2434.531        1897.038
  21939002.354    21939002.5914   21939003.4584  115290232.186 8  89836557.94545
     -1494.771       -1164.759
 08  5  5 13 14 30.0000000  0 12G 2G 6G 7G10G13G16G21G23G24G25G27G29
  22854284.413    22854283.2174   22854282.1464  120100063.834 6  93584477.68643
     -3520.663       -2743.378
  24446092.044    24446092.9214   24446095.6264  128465094.217 6 100102686.09342
      3052.696        2378.725
  23255819.451    23255819.5764   23255819.2014  122210173.896 6  95228727.54843
      2583.052        2012.746
  21274687.087    21274686.2084   21274687.9194  111799230.133 8  87116302.40645
      1191.262         928.244
  21766618.627    21766618.6264   21766619.2754  114384344.489 7  89130673.93144
     -1941.128       -1512.553
  22314436.845    22314436.9494   22314437.6214  117263174.618 7  91373908.58844
       508.569         396.289
  24971662.968    24971662.5604   24971663.9174  131226959.854 5 102254806.07541
      3415.332        2661.351
  23973383.754    23973384.8714   23973382.4494  125980974.403 5  98166999.18041
     -3756.232       -2926.975
  21947844.671    21947844.3624   21947846.5164  115336699.902 7  89872773.83545
      1647.333        1283.632
  22553254.480    22553254.1584   22553255.5074  118518151.235 7  92351824.30144
       965.656         752.456
  23764109.082    23764108.7514   23764112.3834  124881260.116 6  97310084.69342
      2423.381        1888.321
  21947592.592    21947592.7644   21947593.9554  115335374.596 7  89871733.82645
     -1514.385       -1180.053
 08  5  5 13 15  0.0000000  0 12G 2G 6G 7G10G13G16G21G23G24G25G27G29
  22874416.128    22874416.1954   22874415.3614  120205861.952 6  93666917.82043
     -3532.991       -2752.968
  24428688.148    24428687.6974   24428690.9684  128373632.593 6 100031417.34242
      3043.799        2371.758
  23241112.702    23241112.2784   23241111.9604  122132888.808 6  95168505.43543
      2568.545        2001.454
  21267943.954    21267943.1284   21267945.4034  111763796.547 8  87088691.77045
      1170.285         911.911
  21777757.425    21777757.4454   21777757.8894  114442880.100 7  89176286.06344
     -1961.814       -1528.674
  22311594.182    22311594.0454   22311594.8464  117248236.108 7  91362268.18544
       487.037         379.530
  24952176.609    24952175.5404   24952178.2814  131124560.113 5 102175014.14241
      3411.032        2657.995
  23994855.001    23994857.0204   23994856.6304  126093807.983 5  98254921.43041
     -3766.059       -2934.605
  21938489.374    21938488.9954   21938491.1574  115287536.349 7  89834464.54845
      1629.821        1270.003
  22547795.206    22547794.8134   22547796.5434  118489463.370 7  92329470.10044
       946.429         737.488
  23750306.121    23750306.2514   23750308.9664  124808724.563 6  97253563.48942
      2411.781        1879.332
  21956292.292    21956292.3814   21956293.2914  115381090.562 7  89907356.64245
     -1534.135       -1195.426
 08  5  5 13 15 30.0000000  0 12G 2G 6G 7G10G13G16G21G23G24G25G27G29
  22894614.211    22894614.4114   22894613.7354  120312005.640 6  93749627.26243
     -3544.198       -2761.729
  24411330.157    24411329.8974   24411333.0734  128282416.721 6  99960340.09342
      3036.154        2365.784
  23226484.723    23226485.0034   23226485.0194  122056021.474 6  95108608.83543
      2554.831        1990.807
  21261315.332    21261314.6144   21261316.8214  111728963.928 8  87061549.48345
      1150.693         896.652
  21789009.552    21789009.4624   21789010.1644  114502009.279 7  89222360.70744
     -1981.312       -1543.858
  22308868.806    22308868.4234   22308869.5104  117233914.187 7  91351108.22844
       466.756         363.719
  24932712.484    24932712.5924   24932712.3004  131022276.241 5 102095312.54841
      3407.394        2655.139
  24016377.345    24016378.3094   24016377.5524  126206909.653 5  98343052.54741
     -3774.765       -2941.437
  21929229.322    21929228.6614   21929231.1794  115238874.148 7  89796545.93445
      1613.353        1257.153
  22542441.153    22542441.0424   22542442.0394  118461327.058 7  92307545.66844
       928.290         723.358
  23736565.550    23736565.7564   23736568.1634  124736517.981 6  97197298.62142
      2400.964        1870.889
  21965099.724    21965100.5224   21965101.4434  115427377.319 7  89943424.23445
     -1552.795       -1209.969
 08  5  5 13 16  0.0000000  0 12G 2G 6G 7G10G13G16G21G23G24G25G27G29
  22914878.449    22914878.1974   22914877.7894  120418493.661 6  93832605.03443
     -3555.840       -2770.778
  24394020.834    24394019.7294   24394022.6464  128191450.896 6  99889457.63942
      3027.659        2359.210
  23211937.931    23211938.3114   23211938.4314  121979575.951 6  95049040.81743
      2540.740        1979.769
  21254802.172    21254801.3604   21254803.3594  111694735.391 8  87034877.89445
      1130.460         880.867
  21800374.429    21800374.5084   21800374.9304  114561732.117 7  89268897.93744
     -2001.039       -1559.249
  22306261.704    22306261.1864   22306261.9994  117220211.448 7  91340430.74844
       446.003         347.544
  24913271.795    24913271.7744   24913273.0164  130920111.889 6 102015704.00541
      3402.835        2651.512
  24037951.443    24037951.1274   24037949.9134  126320278.235 5  98431391.68341
     -3783.799       -2948.480
  21920065.039    21920064.5954   21920067.1924  115190716.601 7  89759020.57445
      1596.403        1243.947
  22537192.098    22537192.4594   22537193.6544  118433745.147 7  92286053.20744
       909.723         708.875
  23722888.694    23722888.0344   23722892.1284  124664643.970 5  97141292.89242
      2389.682        1862.115
  21974017.096    21974017.2114   21974018.3274  115474235.211 7  89979936.89145
     -1571.837       -1224.811
 08  5  5 13 16 30.0000000  0 12G 2G 6G 7G10G13G16G21G23G24G25G27G29
  22935208.988    22935208.5254   22935207.5414  120525329.102 6  93915853.40043
     -3567.038       -2779.493
  24376759.021    24376759.0494   24376761.7604  128100743.116 6  99818776.30042
      3019.116        2352.565
  23197472.493    23197472.8034   23197474.3654  121903560.986 6  94989808.28543
      2526.429        1968.657
  21248404.842    21248404.0144   21248406.0724  111661117.290 8  87008681.93245
      1110.347         865.227
  21811852.534    21811852.9444   21811853.3204  114622052.438 7  89315900.78044
     -2020.756       -1574.609
  22303773.300    22303772.2934   22303773.4994  117207134.154 7  91330240.63144
       425.507         331.575
  24893854.443    24893853.9354   24893854.8604  130818074.783 5 101936194.57741
      3398.743        2648.421
  24059575.946    24059576.4304   24059577.3114  126433916.612 5  98519941.03641
     -3792.550       -2955.272
  21910998.783    21910998.1184   21911000.4144  115143070.978 7  89721894.13345
      1579.597        1230.854
  22532050.408    22532050.2834   22532051.7974  118406724.503 7  92264998.17844
       891.227         694.460
  23709275.736    23709275.3204   23709278.6534  124593110.179 6  97085552.30042
      2378.774        1853.612
  21983043.414    21983043.5554   21983044.4614  115521668.525 7  90016897.90645
     -1590.836       -1239.604
 08  5  5 13 17  0.0000000  0 12G 2G 6G 7G10G13G16G21G23G24G25G27G29
  22955602.948    22955602.7214   22955601.8354  120632500.675 6  93999363.58943
     -3578.970       -2788.777
  24359545.590    24359545.0934   24359547.9604  128010287.238 6  99748291.21742
      3010.225        2345.662
  23183087.869    23183088.3684   23183089.0684  121827970.469 6  94930906.61543
      2511.802        1957.272
  21242122.412    21242121.7214   21242123.8054  111628103.089 8  86982956.58145
      1089.533         848.999
  21823442.875    21823443.2474   21823443.8184  114682959.349 7  89363360.75644
     -2040.770       -1590.192
  22301401.834    22301401.5374   22301402.0564  117194674.551 7  91320531.84044
       404.205         314.963
  24874460.469    24874460.6854   24874460.8244  130716158.145 5 101856779.06441
      3394.372        2644.925
  24081250.199    24081248.6064   24081252.0294  126547813.191 5  98608691.61141
     -3802.146       -2962.718
  21902027.908    21902027.7014   21902029.8344  115095930.340 8  89685161.18645
      1562.077        1217.193
  22527013.948    22527013.8084   22527015.2964  118380257.426 7  92244374.49044
       872.065         679.540
  23695727.944    23695727.2834   23695730.0754  124521909.825 6  97030071.45742
      2367.038        1844.470
  21992177.100    21992177.2214   21992178.3684  115569667.211 7  90054299.51245
     -1610.241       -1254.731
 08  5  5 13 17 30.0000000  0 12G 2G 6G 7G10G13G16G21G23G24G25G27G29
  22976064.946    22976064.4534   22976064.3574  120740027.817 6  94083150.73843
     -3590.246       -2797.604
  24342385.981    24342384.4304   24342387.0884  127920108.304 6  99678021.98742
      3001.159        2338.570
  23168789.628    23168789.4784   23168789.9374  121752829.644 6  94872355.48743
      2497.075        1945.738
  21235959.349    21235958.6914   21235960.5044  111595715.678 8  86957719.60045
      1068.994         832.987
  21835148.925    21835148.9254   21835149.1734  114744473.510 7  89411293.93744
     -2060.613       -1605.692
  22299152.485    22299152.3104   22299153.3894  117182855.663 7  91311322.30844
       383.114         298.518
  24855094.029    24855093.7784   24855092.5404  130614387.309 5 101777477.17741
      3389.937        2641.539
  24102978.227    24102977.3764   24102974.5574  126661987.787 5  98697658.72441
     -3810.508       -2969.259
  21893157.816    21893157.3904   21893159.8074  115049318.567 7  89648840.34845
      1544.738        1203.684
  22522087.343    22522087.4044   22522088.3304  118354367.599 7  92224200.66744
       853.177         664.819
  23682246.978    23682246.4694   23682248.7394  124451068.215 6  96974870.25242
      2355.062        1835.137
  22001422.359    22001422.5554   22001423.7694  115618252.297 7  90092158.03745
     -1629.273       -1269.574
 08  5  5 13 18  0.0000000  0 12G 2G 6G 7G10G13G16G21G23G24G25G27G29
  22996590.261    22996590.1224   22996589.0324  120847886.490 6  94167196.26043
     -3600.839       -2805.839
  24325274.244    24325273.7474   24325275.0524  127830186.255 5  99607952.90742
      2993.421        2332.547
  23154572.109    23154572.1624   23154573.4894  121678118.510 6  94814139.13643
      2483.255        1935.010
  21229911.526    21229910.8584   21229912.9554  111563934.806 8  86932955.30345
      1049.233         817.584
  21846965.302    21846965.6804   21846966.1364  114806570.200 7  89459680.91844
     -2079.531       -1620.414
  22297021.461    22297021.2424   22297022.1704  117171655.760 7  91302595.09944
       362.980         282.828
  24835752.223    24835750.8104   24835752.7784  130512741.815 5 101698272.90841
      3386.118        2638.607
  24124752.760    24124751.6454   24124752.9424  126776415.361 5  98786823.04941
     -3818.163       -2975.194
  21884384.735    21884384.3854   21884386.6914  115003215.100 7  89612915.58345
      1528.269        1190.858
  22517266.149    22517266.3934   22517267.5264  118329033.659 7  92204459.96344
       835.165         650.785
  23668829.997    23668830.2564   23668832.6764  124380564.763 5  96919932.57042
      2344.070        1826.538
  22010775.098    22010775.2274   22010776.3564  115667400.520 7  90130455.35845
     -1647.445       -1283.730
 08  5  5 13 18 30.0000000  0 12G 2G 6G 7G10G13G16G21G23G24G25G27G29
  23017178.268    23017177.2464   23017176.8764  120956074.822 6  94251498.65543
     -3612.316       -2814.802
  24308211.867    24308211.2014   24308213.6654  127740525.065 6  99538087.06342
      2983.567        2324.823
  23140437.110    23140437.4264   23140438.2504  121603840.884 6  94756260.52043
      2468.077        1923.164
  21223979.802    21223979.0354   21223981.3824  111532762.856 8  86908665.57645
      1028.280         801.246
  21858892.590    21858892.9614   21858893.5904  114869249.212 7  89508521.71744
     -2099.575       -1636.028
  22295009.024    22295008.2714   22295009.0094  117161077.178 7  91294352.04544
       341.517         266.119
  24816432.906    24816432.5104   24816433.6034  130411225.109 6 101619169.06142
      3380.927        2634.545
  24146574.604    24146574.6314   24146573.4644  126891094.633 5  98876183.43041
     -3827.361       -2982.332
  21875708.713    21875708.5074   21875710.5854  114957622.772 7  89577389.11445
      1510.478        1176.996
  22512551.635    22512551.6104   22512553.2404  118304258.147 7  92185154.38044
       815.762         635.658
  23655478.390    23655478.4304   23655481.4994  124310403.036 6  96865261.10742
      2332.531        1817.540
  22020234.668    22020235.0724   22020236.0404  115717111.479 8  90169191.17645
     -1667.120       -1299.066
 08  5  5 13 19  0.0000000  0 12G 2G 6G 7G10G13G16G21G23G24G25G27G29
  23037826.156    23037826.4854   23037827.3924  121064587.794 6  94336054.12543
     -3622.629       -2822.819
  24291199.141    24291199.5554   24291200.7474  127651124.125 6  99468424.03742
      2975.312        2318.417
  23126385.131    23126386.0154   23126386.1004  121529996.454 6  94698719.43543
      2454.164        1912.320
  21218163.229    21218162.6534   21218164.7314  111502197.698 8  86884848.59045
      1008.385         785.755
  21870929.946    21870929.8954   21870930.7354  114932505.310 7  89557812.15844
     -2118.447       -1650.730
  22293114.056    22293112.9324   22293113.9314  117151117.178 7  91286591.00944
       321.312         250.374
  24797139.970    24797140.1734   24797141.6674  130309836.234 5 101540164.83641
      3377.051        2631.523
  24168444.340    24168443.0344   24168443.7684  127006019.657 5  98965735.36641
     -3835.369       -2988.661
  21867129.910    21867129.4554   21867131.5134  114912540.126 7  89542259.82745
      1493.940        1164.108
  22507943.254    22507942.9374   22507944.1634  118280038.893 7  92166282.23444
       797.686         621.593
  23642191.616    23642191.5824   23642195.7914  124240582.028 6  96810855.03142
      2321.493        1808.942
  22029800.667    22029800.8734   22029802.1344  115767380.859 8  90208362.11445
     -1685.201       -1313.137
 08  5  5 13 19 30.0000000  0 12G 2G 6G 7G10G13G16G21G23G24G25G27G29
  23058537.118    23058537.3814   23058537.2714  121173421.790 6  94420859.75743
     -3633.598       -2831.389
  24274237.581    24274236.4074   24274238.5424  127561985.348 5  99398965.25142
      2966.547        2311.607
  23112415.237    23112416.2814   23112416.8374  121456587.377 6  94641517.58443
      2439.344        1900.797
  21212462.678    21212461.9814   21212464.1304  111472240.352 8  86861505.21846
       987.963         769.825
  21883076.876    21883076.7854   21883077.4654  114996336.275 7  89607550.57744
     -2137.724       -1665.764
  22291336.170    22291335.5734   22291336.5474  117141776.031 7  91279312.18744
       300.599         234.220
  24777871.556    24777869.7974   24777872.3584  130208576.966 5 101461261.44941
      3372.541        2627.958
  24190360.488    24190358.7954   24190362.6574  127121187.134 5  99055476.28741
     -3843.045       -2994.677
  21858648.152    21858647.9514   21858650.0264  114867968.250 7  89507528.49245
      1476.754        1150.696
  22503440.033    22503439.8154   22503441.0474  118256376.633 7  92147844.12944
       779.018         607.021
  23628970.486    23628970.1804   23628973.6734  124171103.472 5  96756715.89242
      2310.149        1800.101
  22039472.417    22039472.6234   22039473.7764  115818206.504 8  90247966.48845
     -1703.884       -1327.715
 08  5  5 13 20  0.0000000  0 12G 2G 6G 7G10G13G16G21G23G24G25G27G29
  23079308.060    23079307.1854   23079307.5034  121282568.680 6  94505909.21343
     -3643.976       -2839.462
  24257323.560    24257323.6044   24257324.7844  127473105.696 5  99329708.38242
      2957.695        2304.692
  23098528.929    23098529.1514   23098530.5504  121383610.692 6  94584652.68343
      2424.634        1889.327
  21206876.922    21206875.9984   21206878.0244  111442886.378 8  86838632.01245
       967.879         754.182
  21895330.907    21895331.0954   21895331.7334  115060734.215 7  89657730.77144
     -2156.644       -1680.514
  22289675.573    22289674.6924   22289675.6934  117133048.885 7  91272511.82944
       280.094         218.263
  24758625.541    24758625.0564   24758626.2024  130107444.311 5 101382456.81941
      3368.126        2624.515
  24212320.577    24212320.4864   24212317.8824  127236588.689 5  99145399.52141
     -3851.421       -3001.092
  21850262.747    21850262.4034   21850264.6814  114823903.513 7  89473192.35745
      1459.906        1137.590
  22499042.675    22499042.1804   22499043.6044  118233266.482 7  92129836.23144
       760.474         592.571
  23615814.003    23615813.2984   23615816.2554  124101964.010 6  96702841.03242
      2298.736        1791.227
  22049248.869    22049249.0934   22049250.0434  115869581.718 7  90287999.11845
     -1722.220       -1341.993
 08  5  5 13 20 30.0000000  0 12G 2G 6G 7G10G13G16G21G23G24G25G27G29
  23100134.885    23100134.3004   23100134.4364  121392018.337 6  94591194.64443
     -3653.880       -2847.198
  24240458.758    24240458.5114   24240460.8294  127384480.397 5  99260649.70742
      2949.320        2298.177
  23084723.161    23084723.3344   23084724.0554  121311061.221 6  94528120.61043
      2410.723        1878.488
  21201404.502    21201403.6914   21201405.9584  111414129.354 8  86816223.87945
       948.098         738.795
  21907692.154    21907692.0894   21907692.3584  115125689.760 7  89708345.47644
     -2175.007       -1694.805
  22288129.950    22288129.3504   22288129.8204  117124928.408 7  91266184.17344
       260.064         202.654
  24739404.408    24739404.9444   24739404.4054  130006432.595 5 101303746.40441
      3364.486        2621.721
  24234322.587    24234321.8144   24234322.1424  127352214.368 5  99235497.35541
     -3858.228       -3006.466
  21841973.082    21841972.6724   21841974.8624  114780339.728 7  89439246.55845
      1443.188        1124.564
  22494748.941    22494748.5024   22494749.9384  118210702.288 7  92112253.74444
       742.627         578.667
  23602720.783    23602721.7724   23602723.0774  124033158.150 6  96649226.09942
      2287.494        1782.474
  22059127.904    22059128.3204   22059129.2524  115921497.543 7  90328452.97145
     -1740.060       -1355.894
 08  5  5 13 21  0.0000000  0 12G 2G 6G 7G10G13G16G21G23G24G25G27G29
  23121022.970    23121022.5054   23121023.0184  121501787.718 6  94676729.60843
     -3664.022       -2855.107
  24223646.023    24223646.0994   24223648.1954  127296130.527 5  99191805.71042
      2940.121        2291.034
  23071003.499    23071002.9294   23071004.0274  121238960.401 6  94471938.17343
      2396.096        1867.117
  21196049.878    21196048.8924   21196050.9274  111385989.351 8  86794296.58245
       927.975         723.088
  21920161.694    21920161.8424   21920162.6744  115191219.562 7  89759407.63544
     -2193.558       -1709.254
  22286703.611    22286703.3314   22286704.1434  117117434.378 7  91260344.67644
       239.697         186.767
  24720208.836    24720208.9844   24720208.8934  129905562.976 5 101225146.69142
      3360.175        2618.289
  24256371.581    24256372.4204   24256369.9664  127468080.302 5  99325782.43641
     -3866.146       -3012.458
  21833782.084    21833781.8264   21833783.9054  114737297.184 7  89405706.93045
      1426.287        1111.394
  22490562.487    22490562.3364   22490563.8144  118188703.652 7  92095111.93144
       724.084         564.223
  23589694.840    23589694.2744   23589696.5024  123964706.918 6  96595887.47143
      2276.003        1773.503
  22069113.697    22069113.9144   22069114.8604  115973971.317 7  90369341.56245
     -1758.309       -1370.111
 08  5  5 13 21 30.0000000  0 12G 2G 6G 7G10G13G16G21G23G24G25G27G29
  23141969.379    23141968.8214   23141968.6464  121611858.546 6  94762499.16943
     -3674.806       -2863.497
  24206883.904    24206884.0774   24206886.1924  127208044.304 5  99123167.11642
      2931.169        2283.995
  23057365.683    23057366.1244   23057366.5954  121167296.467 6  94416096.15243
      2380.640        1855.056
  21190809.805    21190808.8674   21190810.8424  111358453.054 8  86772839.70445
       906.915         706.670
  21932737.744    21932738.0694   21932738.6774  115257307.445 7  89810904.66944
     -2213.099       -1724.493
  22285394.681    22285393.8024   22285394.4364  117110552.935 7  91254982.49544
       218.254         170.067
  24701039.058    24701038.2834   24701038.9354  129804823.244 5 101146648.16041
      3354.678        2614.044
  24278462.491    24278462.5164   24278462.9124  127584169.110 5  99416241.20941
     -3874.261       -3018.934
  21825688.082    21825687.5544   21825690.1174  114694763.078 7  89372563.46645
      1408.374        1097.430
  22486481.167    22486481.2414   22486482.0884  118167257.336 7  92078400.52244
       704.745         549.144
  23576734.530    23576734.2974   23576737.0634  123896597.727 6  96542815.38043
      2263.861        1764.055
  22079202.437    22079202.3574   22079203.6184  116026986.970 7  90410652.37445
     -1777.106       -1384.758
 08  5  5 13 22  0.0000000  0 12G 2G 6G 7G10G13G16G21G23G24G25G27G29
  23162972.579    23162971.1634   23162971.9704  121722233.554 6  94848505.71643
     -3684.972       -2871.414
  24190173.805    24190173.6674   24190174.7854  127120228.925 5  99054739.58442
      2922.115        2276.967
  23043812.959    23043813.4454   23043814.6004  121096076.943 6  94360600.42043
      2365.860        1843.514
  21185685.829    21185684.9844   21185686.9404  111331526.837 8  86751858.28745
       886.671         690.918
  21945420.799    21945420.7254   21945421.5114  115323955.919 7  89862838.52644
     -2231.627       -1738.921
  22284202.441    22284201.8984   22284202.7164  117104289.288 7  91250101.71044
       197.719         154.061
  24681895.523    24681894.3054   24681894.2584  129704220.764 6 101068256.60742
      3350.422        2610.702
  24300595.889    24300594.9314   24300598.7434  127700483.162 5  99506875.41341
     -3881.684       -3024.771
  21817692.123    21817691.8254   21817694.1844  114652743.967 7  89339821.27045
      1391.402        1084.210
  22482506.362    22482506.1584   22482507.5094  118146369.093 7  92062123.99144
       686.277         534.754
  23563840.438    23563840.6944   23563841.9754  123828838.200 6  96490015.78043
      2252.033        1754.845
  22089394.602    22089394.6864   22089395.8314  116080548.079 7  90452388.23045
     -1795.137       -1398.811
 08  5  5 13 22 30.0000000  0 12G 2G 6G 7G10G13G16G21G23G24G25G27G29
  23184033.862    23184033.9754   23184033.6574  121832916.413 6  94934752.10743
     -3694.272       -2878.704
  24173515.879    24173515.9394   24173518.2594  127032693.497 5  98986530.20242
      2913.364        2270.140
  23030347.034    23030347.0784   23030348.4594  121025310.682 6  94305457.91243
      2351.609        1832.426
  21180679.258    21180678.4184   21180680.7044  111305217.725 8  86731357.64546
       866.878         675.488
  21958211.151    21958211.0694   21958211.8294  115391169.397 7  89915212.64644
     -2249.588       -1752.942
  22283129.478    22283128.9424   22283129.7054  117098650.470 7  91245707.81844
       177.891         138.593
  24662778.305    24662779.6134   24662778.0764  129603764.042 6 100989978.59642
      3346.688        2607.829
  24322773.614    24322774.2574   24322773.2654  127817026.205 5  99597688.09141
     -3888.302       -3029.888
  21809795.590    21809795.1364   21809797.5694  114611247.600 8  89307486.39545
      1374.791        1071.276
  22478639.178    22478638.7054   22478639.8164  118126046.178 7  92046287.97044
       668.271         520.727
  23551014.360    23551014.1384   23551016.3554  123761436.357 6  96437494.89143
      2241.003        1746.223
  22099691.951    22099692.0934   22099693.0104  116134659.560 8  90494552.93845
     -1812.664       -1412.470
 08  5  5 13 23  0.0000000  0 12G 2G 6G 7G10G13G16G21G23G24G25G27G29
  23205155.526    23205155.6424   23205154.5534  121943905.944 6  95021237.30343
     -3704.709       -2886.765
  24156912.085    24156912.4334   24156913.4484  126945442.233 5  98918542.25342
      2903.597        2262.561
  23016967.493    23016967.4044   23016968.7194  120955002.173 6  94250672.09643
      2335.934        1820.224
  21175790.814    21175789.8864   21175792.1234  111279528.481 8  86711340.02545
       846.038         659.252
  21971108.700    21971109.0664   21971109.9074  115458947.492 7  89968026.70644
     -2268.586       -1767.730
  22282175.998    22282175.4634   22282175.8524  117093638.415 7  91241802.32844
       156.519         121.960
  24643690.653    24643691.2874   24643690.9264  129503456.905 6 100911817.12542
      3341.000        2603.466
  24344993.699    24344995.3824   24344994.7204  127933797.082 5  99688678.35141
     -3896.102       -3036.011
  21801999.088    21801998.8244   21802001.0324  114570277.299 7  89275561.48445
      1357.016        1057.409
  22474879.804    22474879.6254   22474881.2544  118106291.065 7  92030894.39744
       649.130         505.803
  23538256.543    23538257.0044   23538258.4674  123694395.918 6  96385255.56843
      2228.649        1736.573
  22110093.603    22110093.8154   22110095.0744  116189321.603 7  90537146.70845
     -1831.077       -1426.802
 08  5  5 13 23 30.0000000  0 12G 2G 6G 7G10G13G16G21G23G24G25G27G29
  23226330.948    23226330.6384   23226330.8924  122055182.102 6  95107945.83543
     -3714.017       -2894.057
  24140360.271    24140359.8574   24140361.9784  126858459.637 5  98850763.62442
      2894.983        2255.824
  23003672.023    23003671.9514   23003673.5384  120885135.695 6  94196230.71143
      2321.373        1808.880
  21171017.043    21171016.3294   21171018.6634  111254442.320 8  86691792.31646
       826.042         643.677
  21984110.341    21984110.3094   21984110.9824  115527270.046 7  90021265.01144
     -2286.675       -1781.833
  22281337.949    22281337.4174   22281338.2114  117089235.686 7  91238371.62044
       136.551         106.415
  24624628.546    24624628.8364   24624628.4914  129403283.650 5 100833760.01642
      3336.796        2600.050
  24367255.518    24367255.3074   24367254.9954  128050775.245 5  99779830.10841
     -3902.982       -3041.307
  21794299.680    21794299.7534   21794302.0224  114529816.634 7  89244033.63545
      1339.993        1044.163
  22471225.354    22471225.1844   22471226.5654  118087086.973 7  92015930.16444
       630.908         491.619
  23525565.214    23525565.4374   23525567.0114  123627701.146 6  96333285.65143
      2217.344        1727.792
  22120596.796    22120596.8434   22120597.8904  116244514.487 7  90580154.04845
     -1848.689       -1440.521
 08  5  5 13 24  0.0000000  0 12G 2G 6G 7G10G13G16G21G23G24G25G27G29
  23247563.655    23247563.0294   23247562.6564  122166759.232 6  95194889.00843
     -3724.994       -2902.599
  24123862.951    24123862.8044   24123864.1004  126771765.155 5  98783209.51842
      2884.091        2247.332
  22990464.541    22990464.8764   22990465.9314  120815730.788 6  94142148.96943
      2305.053        1796.132
  21166361.733    21166360.9834   21166363.0614  111229977.269 8  86672728.56545
       804.527         626.888
  21997218.173    21997218.1604   21997218.7194  115596152.134 7  90074939.30844
     -2306.060       -1796.943
  22280619.516    22280618.9764   22280619.6074  117085459.932 7  91235429.48844
       114.623          89.309
  24605595.807    24605594.9764   24605596.9154  129303263.591 5 100755822.28542
      3330.669        2595.315
  24389557.062    24389557.4804   24389556.8684  128167974.826 5  99871154.35841
     -3911.022       -3047.556
  21786701.341    21786700.7434   21786703.2574  114489884.076 7  89212917.28645
      1321.703        1029.882
  22467679.472    22467679.0444   22467680.2274  118068451.651 7  92001409.11344
       611.155         476.211
  23512943.264    23512943.2644   23512945.1234  123561371.040 6  96281599.87843
      2204.295        1717.609
  22131203.327    22131203.6304   22131205.0014  116300254.177 7  90623587.51545
     -1867.640       -1455.300
 08  5  5 13 24 30.0000000  0 12G 2G 6G 7G10G13G16G21G23G24G25G27G29
  23268851.878    23268850.9104   23268849.9994  122278629.189 6  95282060.43443
     -3733.961       -2909.552
  24107419.277    24107419.4554   24107422.8274  126685355.550 5  98715877.39742
      2875.369        2240.514
  22977345.047    22977345.2554   22977345.6964  120746784.462 6  94088424.56943
      2290.451        1784.773
  21161823.419    21161822.9454   21161825.3194  111206129.066 8  86654145.45146
       784.397         611.212
  22010431.304    22010431.0794   22010431.8054  115665585.936 7  90129043.57244
     -2323.822       -1810.779
  22280019.051    22280018.9284   22280019.2524  117082305.778 7  91232971.70744
        94.474          73.630
  24586591.807    24586591.5334   24586590.7354  129203393.409 5 100678001.30942
      3326.340        2591.992
  24411899.247    24411902.6924   24411902.3644  128285387.631 5  99962644.77741
     -3916.992       -3052.144
  21779201.784    21779201.5654   21779203.9474  114450475.352 8  89182209.15645
      1304.583        1016.563
  22464240.228    22464240.1264   22464241.6004  118050380.341 7  91987327.57544
       592.704         461.860
  23500389.128    23500388.7764   23500390.3554  123495402.244 6  96230195.66643
      2192.728        1708.594
  22141913.011    22141913.4064   22141914.4804  116356533.386 7  90667441.43645
     -1885.098       -1468.892
 08  5  5 13 25  0.0000000  0 12G 2G 6G 7G10G13G16G21G23G24G25G27G29
  23290194.540    23290194.3444   23290193.9214  122390789.592 6  95369458.15443
     -3743.604       -2917.112
  24091031.610    24091030.7094   24091032.4644  126599233.726 5  98648769.49742
      2865.887        2233.188
  22964312.266    22964312.8704   22964313.3834  120678299.612 6  94035059.76143
      2274.959        1772.683
  21157402.987    21157402.3824   21157404.4114  111182899.133 8  86636044.16546
       763.912         595.255
  22023748.482    22023748.5264   22023749.5114  115735569.730 7  90183576.35644
     -2341.998       -1824.946
  22279537.266    22279537.2584   22279538.1224  117079774.211 7  91230999.05144
        73.966          57.635
  24567614.991    24567614.6094   24567615.4914  129103676.013 5 100600299.44642
      3321.173        2587.912
  24434282.080    24434282.4644   24434281.9924  128403011.316 5 100054299.52941
     -3924.412       -3058.033
  21771802.696    21771802.4344   21771804.7674  114411592.381 8  89151910.69745
      1287.172        1002.994
  22460908.709    22460908.7484   22460910.1954  118032874.437 7  91973686.57844
       573.942         447.247
  23487905.165    23487904.9264   23487907.5464  123429797.235 6  96179074.92743
      2180.500        1699.078
  22152725.288    22152725.3044   22152726.5544  116413350.822 7  90711714.81045
     -1903.067       -1482.922
 08  5  5 13 25 30.0000000  0 12G 2G 6G 7G10G13G16G21G23G24G25G27G29
  23311591.366    23311591.0654   23311591.1444  122503228.439 6  95457072.86843
     -3753.293       -2924.663
  24074696.907    24074695.3074   24074699.3584  126513393.090 5  98581880.70942
      2856.045        2225.537
  22951367.179    22951367.2594   22951367.9224  120610269.637 7  93982049.40043
      2259.604        1760.701
  21153098.515    21153097.9404   21153099.8864  111160278.762 8  86618417.87845
       743.348         579.226
  22037168.444    22037168.3464   22037169.0634  115806091.819 7  90238528.55444
     -2360.049       -1838.990
  22279172.392    22279172.1254   22279172.6184  117077856.246 7  91229504.52344
        53.119          41.384
  24548667.513    24548666.6154   24548667.2404  129004104.128 5 100522710.94642
      3316.003        2583.933
  24456703.510    24456704.6034   24456705.4144  128520833.737 5 100146109.13141
     -3931.145       -3063.169
  21764501.980    21764501.5654   21764504.4214  114373227.414 8  89122015.89445
      1269.616         989.310
  22457683.847    22457683.8064   22457685.1284  118015925.413 7  91960479.53944
       555.201         432.624
  23475489.150    23475489.0534   23475490.4714  123364548.507 6  96128231.76743
      2168.311        1689.588
  22163637.477    22163637.8554   22163638.9424  116470695.254 7  90756398.72145
     -1920.822       -1496.740
 08  5  5 13 26  0.0000000  0 12G 2G 6G 7G10G13G16G21G23G24G25G27G29
  23333041.073    23333040.9644   23333041.8164  122615953.536 6  95544910.56042
     -3762.423       -2931.760
  24058416.135    24058416.7264   24058419.1514  126427846.501 5  98515221.02642
      2846.363        2217.924
  22938510.556    22938510.5354   22938511.4124  120542706.955 7  93929403.12543
      2244.102        1748.668
  21148912.226    21148911.5444   21148913.7834  111138279.771 8  86601275.84145
       722.750         563.181
  22050692.351    22050692.4984   22050693.0734  115877160.786 7  90293906.96244
     -2378.276       -1853.201
  22278926.301    22278926.0904   22278926.7244  117076562.441 7  91228496.36844
        32.466          25.296
  24529749.853    24529749.0864   24529748.9664  128904690.911 5 100445246.24342
      3311.053        2580.076
  24479163.646    24479164.3424   24479167.7234  128638863.244 5 100238080.09141
     -3937.896       -3068.484
  21757302.444    21757301.8824   21757304.3324  114335392.303 7  89092534.00045
      1252.078         975.651
  22454566.250    22454566.5944   22454567.7564  117999544.296 7  91947715.03244
       536.245         417.874
  23463142.362    23463141.7434   23463144.5694  123299668.728 6  96077676.11043
      2156.283        1680.225
  22174651.891    22174651.9764   22174653.2664  116528576.271 7  90801500.87845
     -1938.576       -1510.585
 08  5  5 13 26 30.0000000  0 11G 2G 6G 7G10G13G16G21G24G25G27G29
  23354545.993    23354545.4444   23354544.8254  122728953.829 6  95632962.67343
     -3771.799       -2939.039
  24042192.818    24042192.9074   24042194.5994  126342587.831 5  98448785.74742
      2836.377        2210.187
  22925740.847    22925741.6764   22925742.7314  120475606.065 6  93877116.67943
      2228.118        1736.214
  21144842.911    21144841.9774   21144844.1964  111116894.310 8  86584611.85945
       701.950         546.962
  22064318.128    22064318.5354   22064319.5754  115948765.844 7  90349703.06644
     -2396.402       -1867.325
  22278797.316    22278796.9354   22278797.7254  117075884.716 7  91227968.27344
        11.760           9.162
  24510860.835    24510860.0494   24510860.6474  128805429.401 5 100367899.67841
      3305.790        2575.924
  21750202.221    21750201.7284   21750204.1984  114298079.889 8  89063459.37445
      1234.390         961.857
  22451556.281    22451555.8884   22451556.9204  117983723.592 7  91935387.20144
       517.478         403.245
  23450864.995    23450865.1814   23450867.2694  123235151.609 6  96027403.01643
      2143.793        1670.509
  22185766.231    22185766.3904   22185767.6044  116586982.763 7  90847012.43345
     -1956.290       -1524.387
 08  5  5 13 27  0.0000000  0 11G 2G 6G 7G10G13G16G21G24G25G27G29
  23376099.973    23376099.7194   23376099.2724  122842222.883 6  95721224.20642
     -3780.535       -2945.880
  24026023.545    24026022.9484   24026024.5734  126257615.903 5  98382573.88442
      2827.066        2202.900
  22913060.580    22913060.4474   22913061.2804  120408965.461 6  93825188.90743
      2213.002        1724.407
  21140889.132    21140888.6094   21140890.8584  111096119.536 8  86568423.79446
       681.654         531.145
  22078045.253    22078045.2944   22078045.9894  116020900.902 7  90405912.16144
     -2413.997       -1881.055
  22278784.596    22278784.6724   22278785.6494  117075819.532 7  91227917.50744
        -8.642          -6.765
  24492001.515    24491999.2294   24492001.4254  128706318.258 5 100290670.27441
      3300.553        2571.878
  21743200.715    21743200.3274   21743202.8474  114261287.546 8  89034790.01945
      1217.026         948.309
  22448651.149    22448651.1244   22448652.8574  117968460.230 7  91923493.67044
       498.805         388.673
  23438656.556    23438656.1454   23438658.9284  123170995.187 6  95977410.97143
      2131.723        1661.088
  22196979.409    22196980.0264   22196981.0854  116645909.729 7  90892929.48045
     -1973.549       -1537.851
 08  5  5 13 27 30.0000000  0 11G 2G 6G 7G10G13G16G21G24G25G27G29
  23397705.092    23397705.9684   23397706.3484  122955766.832 6  95809699.91042
     -3789.002       -2952.442
  24009909.866    24009909.9004   24009912.1004  126172941.815 5  98316594.10542
      2818.046        2195.860
  22900468.356    22900468.3964   22900469.3364  120342795.912 6  93773628.20543
      2198.073        1712.784
  21137053.898    21137053.3354   21137055.3084  111075964.905 8  86552718.92445
       661.830         515.714
  22091873.946    22091874.1934   22091875.2814  116093572.300 7  90462539.21244
     -2430.816       -1894.135
  22278890.455    22278890.5394   22278891.1614  117076375.893 7  91228351.03744
       -28.479         -22.181
  24473171.366    24473169.6184   24473169.8614  128607368.781 5 100213566.99541
      3296.117        2568.417
  21736300.268    21736300.1634   21736302.2574  114225025.763 8  89006534.12545
      1200.240         935.271
  22445854.590    22445854.6304   22445856.2034  117953763.516 7  91912041.66544
       480.783         374.646
  23426518.971    23426519.0644   23426520.6644  123107210.133 6  95927708.32943
      2120.597        1652.440
  22208293.798    22208293.9294   22208295.0874  116705364.672 7  90939257.98645
     -1990.233       -1550.833
 08  5  5 13 28  0.0000000  0 11G 2G 6G 7G10G13G16G21G24G25G27G29
  23419365.324    23419365.0894   23419365.3724  123069586.143 6  95898390.16442
     -3799.293       -2960.480
  23993854.945    23993854.9634   23993857.3884  126088571.110 6  98250850.72942
      2806.489        2186.872
  22887967.847    22887967.5284   22887968.4154  120277103.297 6  93722439.13443
      2180.879        1699.385
  21133337.498    21133336.9314   21133339.1754  111056434.770 8  86537500.64346
       639.778         498.519
  22105805.732    22105805.3604   22105806.2014  116166781.049 7  90519584.97444
     -2449.975       -1909.096
  22279115.496    22279115.3324   22279115.5284  117077557.124 7  91229271.48644
       -50.583         -39.402
  24454372.724    24454372.9564   24454373.0344  128508586.049 5 100136593.48541
      3289.173        2562.999
  21729501.827    21729501.3884   21729503.7854  114189298.701 8  88978694.84045
      1181.217         920.425
  22443166.606    22443166.4104   22443167.9824  117939637.353 7  91901034.20544
       460.569         358.883
  23414452.393    23414452.0454   23414454.9574  123043801.417 6  95878298.93943
      2106.496        1641.406
  22219707.806    22219708.3244   22219709.8964  116765348.276 7  90985998.35145
     -2009.104       -1565.547
 08  5  5 13 28 30.0000000  0 11G 2G 6G 7G10G13G16G21G24G25G27G29
  23441076.454    23441076.5704   23441076.2484  123183678.945 6  95987293.64442
     -3807.557       -2966.926
  23977858.100    23977858.4464   23977859.5244  126004506.768 5  98185346.06542
      2797.354        2179.795
  22875558.153    22875558.3764   22875558.8294  120211890.603 6  93671624.03043
      2165.817        1687.634
  21129740.145    21129739.3594   21129741.7254  111037530.025 8  86522769.76846
       619.820         482.970
  22119838.339    22119838.4704   22119839.0474  116240525.481 7  90577048.14644
     -2466.877       -1922.256
  22279459.573    22279458.9494   22279459.5184  117079363.901 7  91230679.35944
       -70.519         -54.944
  24435607.438    24435607.1724   24435608.6874  128409972.680 5 100059751.84641
      3284.445        2559.320
  21722805.382    21722804.9124   21722807.2404  114154108.202 8  88951273.61445
      1164.128         907.111
  22440587.317    22440587.0454   22440588.5004  117926083.003 7  91890472.37644
       442.415         344.738
  23402458.259    23402458.6464   23402460.0814  122980772.033 6  95829185.14743
      2094.499        1632.057
  22231222.710    22231223.2764   22231224.5604  116825859.312 7  91033149.58545
     -2025.691       -1578.460
 08  5  5 13 29  0.0000000  0 11G 2G 6G 7G10G13G16G21G24G25G27G29
  23462837.995    23462838.0014   23462838.0074  123298036.162 6  96076403.15742
     -3817.011       -2974.314
  23961918.723    23961918.1714   23961921.5914  125920745.477 6  98120077.58642
      2786.606        2171.370
  22863239.608    22863239.2514   22863240.3214  120147154.124 6  93621180.02044
      2149.222        1674.716
  21126260.945    21126259.9984   21126261.9364  111019245.553 8  86508522.13446
       598.522         466.390
  22133972.141    22133971.9404   22133972.7984  116314797.036 7  90634922.01844
     -2484.936       -1936.302
  22279920.921    22279920.4834   22279921.4374  117081790.401 7  91232570.14144
       -91.911         -71.603
  24416874.208    24416874.1244   24416874.2784  128311524.824 5  99983039.28642
      3278.238        2554.469
  21716210.122    21716209.6634   21716212.1644  114119449.852 8  88924267.04645
      1145.787         892.826
  22438115.810    22438115.7374   22438116.9224  117913095.102 7  91880351.95344
       422.902         329.540
  23390535.424    23390535.5554   23390537.9004  122918117.778 6  95780363.67043
      2081.568        1622.025
  22242836.949    22242837.3464   22242838.7374  116886890.764 7  91080706.50145
     -2043.643       -1592.438
 08  5  5 13 29 30.0000000  0 11G 2G 6G 7G10G13G16G21G24G25G27G29
  23484647.529    23484648.4714   23484648.4194  123412649.583 6  96165712.38042
     -3825.212       -2980.707
  23946035.617    23946035.9484   23946038.3914  125837283.596 5  98055042.37942
      2776.554        2163.553
  22851009.677    22851009.8254   22851011.3004  120082890.208 6  93571104.26344
      2133.707        1662.623
  21122898.434    21122897.5524   21122899.6644  111001576.087 8  86494753.71745
       578.262         450.586
  22148204.005    22148204.1624   22148204.7014  116389587.528 7  90693200.26844
     -2502.083       -1949.675
  22280499.444    22280499.4414   22280500.5094  117084830.662 7  91234939.17544
      -112.052         -87.322
  24398170.005    24398170.8624   24398171.6764  128213239.534 5  99906453.42541
      3272.793        2550.196
  21709715.175    21709714.7344   21709717.5484  114085318.864 8  88897671.37445
      1128.489         879.351
  22435750.763    22435750.8794   22435752.6064  117900668.296 7  91870668.77044
       404.364         315.100
  23378683.905    23378683.3724   23378686.2744  122855834.511 6  95731831.27443
      2069.651        1612.690
  22254548.654    22254548.7674   22254550.2204  116948434.761 7  91128662.84745
     -2060.445       -1605.551
 08  5  5 13 30  0.0000000  0 11G 2G 6G 7G10G13G16G21G24G25G27G29
  23506509.202    23506508.1564   23506508.2674  123527523.592 6  96255224.53642
     -3833.712       -2987.311
  23930213.710    23930212.5694   23930214.7814  125754130.845 5  97990248.05942
      2766.519        2155.729
  22838873.029    22838873.5434   22838873.6084  120019108.793 6  93521404.44944
      2117.903        1650.306
  21119654.637    21119653.7684   21119655.9314  110984530.505 8  86481471.44846
       557.573         434.475
  22162535.292    22162535.4244   22162536.8644  116464902.211 7  90751886.99944
     -2519.578       -1963.332
  22281196.511    22281196.0924   22281196.6004  117088492.464 7  91237792.52044
      -132.555        -103.284
  24379500.077    24379499.2544   24379500.3134  128115126.322 5  99830001.59941
      3267.336        2545.962
  21703322.251    21703321.8674   21703324.3864  114051724.326 8  88871493.85345
      1110.684         865.466
  22433494.572    22433494.4554   22433495.9834  117888810.720 7  91861429.11845
       385.514         300.400
  23366903.464    23366903.9114   23366906.0234  122793931.790 6  95683595.42643
      2056.939        1602.773
  22266358.654    22266358.9434   22266360.0454  117010497.160 7  91177023.29745
     -2077.527       -1618.861
 08  5  5 13 30 30.0000000  0 11G 2G 6G 7G10G13G16G21G24G25G27G29
  23528417.385    23528416.8494   23528416.7504  123642653.505 6  96344936.06842
     -3842.348       -2994.020
  23914448.321    23914448.2704   23914450.1704  125671287.830 6  97925695.08642
      2755.817        2147.375
  22826827.526    22826828.0134   22826828.7834  119955810.148 6  93472080.82444
      2101.566        1637.593
  21116529.149    21116528.5234   21116530.7184  110968107.066 8  86468673.97746
       536.730         418.234
  22176966.879    22176966.9324   22176967.7794  116540736.629 7  90810978.70444
     -2536.788       -1976.726
  22282011.339    22282010.6474   22282011.6174  117092774.055 7  91241128.81944
      -153.490        -119.602
  24360862.440    24360861.5564   24360863.9654  128017185.241 5  99753683.92041
      3261.352        2541.320
  21697031.241    21697031.1894   21697033.5204  114018664.582 8  88845732.98145
      1092.720         851.485
  22431346.243    22431346.1144   22431347.5784  117877520.712 7  91852631.74844
       366.397         285.510
  23355195.926    23355196.0784   23355198.5594  122732409.359 6  95635655.91643
      2043.909        1592.684
  22278266.454    22278266.4674   22278267.9754  117073073.553 7  91225784.16345
     -2094.853       -1632.335
 08  5  5 13 31  0.0000000  0 11G 2G 6G 7G10G13G16G21G24G25G27G29
  23550374.507    23550374.0174   23550373.7654  123758040.436 6  96434848.05542
     -3850.208       -3000.152
  23898743.885    23898744.2234   23898746.5354  125588759.923 6  97861387.67042
      2745.948        2139.675
  22814875.082    22814875.5174   22814875.8674  119892999.436 6  93423137.38144
      2085.751        1625.249
  21113522.980    21113522.3324   21113524.4504  110952309.438 8  86456364.16546
       516.295         402.307
  22191496.552    22191496.8184   22191497.8024  116617091.720 7  90870476.12444
     -2553.633       -1989.832
  22282944.517    22282944.1514   22282944.4684  117097678.215 7  91244950.24344
      -173.587        -135.267
  24342258.647    24342258.6154   24342258.7264  127919421.616 5  99677504.54341
      3256.024        2537.113
  21690843.114    21690842.5714   21690845.1244  113986144.334 8  88820392.42245
      1075.192         837.818
  22429306.283    22429306.6124   22429308.0144  117866802.044 7  91844279.55545
       347.981         271.162
  23343562.929    23343562.1264   23343564.2204  122671272.195 6  95588016.58643
      2031.573        1583.046
  22290272.365    22290272.4514   22290274.0164  117136164.951 7  91274946.19745
     -2111.373       -1645.239
 08  5  5 13 31 30.0000000  0 11G 2G 6G 7G10G13G16G21G24G25G27G29
  23572382.084    23572382.5574   23572381.7094  123873689.094 6  96524963.85642
     -3859.390       -3007.298
  23883101.503    23883101.4034   23883104.0814  125506557.970 5  97797334.24242
      2734.354        2130.692
  22803017.278    22803017.5734   22803018.4944  119830687.590 6  93374582.65744
      2068.612        1611.921
  21110637.599    21110636.8584   21110639.1894  110937146.585 8  86444548.96346
       494.684         385.474
  22206126.905    22206126.9114   22206127.5524  116693973.367 7  90930383.89044
     -2571.709       -2003.935
  22283997.832    22283997.6244   22283997.8984  117103213.215 7  91249263.23044
      -195.309        -152.201
  24323690.587    24323689.9534   24323691.6814  127821846.293 5  99601471.90741
      3249.057        2531.749
  21684759.172    21684758.8474   21684761.2144  113954173.100 7  88795479.65745
      1056.272         823.073
  22427377.323    22427376.9884   22427378.5834  117856663.552 7  91836379.45844
       328.025         255.605
  23332003.929    23332003.4544   23332005.5344  122610530.747 6  95540685.64143
      2017.769        1572.292
  22302377.274    22302377.6164   22302379.1504  117199778.901 7  91324515.60245
     -2129.390       -1659.255
 08  5  5 13 32  0.0000000  0 11G 2G 6G 7G10G13G16G21G24G25G27G29
  23594437.510    23594436.4244   23594436.3134  123989591.647 6  96615277.45742
     -3867.299       -3013.447
  23867519.557    23867520.7274   23867522.3354  125424678.894 6  97733532.37042
      2724.158        2122.722
  22791254.461    22791254.6054   22791255.5544  119768871.148 7  93326413.98744
      2052.342        1599.254
  21107872.074    21107871.3244   21107873.5024  110922613.566 8  86433224.54146
       474.150         369.480
  22220855.575    22220855.6064   22220856.7104  116771373.471 6  90990695.67143
     -2588.408       -2016.947
  22285170.338    22285169.8244   22285169.9344  117109373.937 7  91254063.79044
      -215.598        -167.981
  24305157.535    24305156.9564   24305156.7344  127724455.625 5  99525583.10841
      3243.427        2527.344
  21678778.959    21678778.4534   21678781.1524  113922747.015 8  88770991.87445
      1038.622         809.326
  22425557.149    22425557.0844   22425558.4504  117847100.023 7  91828927.29244
       309.352         241.062
  23320519.805    23320519.1454   23320522.0164  122550181.421 6  95493660.20543
      2005.275        1562.570
  22314580.919    22314581.1924   22314582.2284  117263907.440 7  91374485.92845
     -2146.033       -1672.223
 08  5  5 13 32 30.0000000  0 11G 2G 6G 7G10G13G16G21G24G25G27G29
  23616541.809    23616541.4834   23616540.6404  124105749.595 6  96705790.23442
     -3875.756       -3020.116
  23852001.810    23852001.5194   23852003.5504  125343128.847 5  97669986.88842
      2712.961        2113.989
  22779586.433    22779586.5754   22779587.5254  119707556.433 6  93278636.31144
      2035.571        1586.138
  21105227.251    21105226.5984   21105228.6394  110908715.063 8  86422394.55646
       452.984         352.949
  22235683.484    22235683.2464   22235683.8934  116849293.483 7  91051412.64843
     -2605.754       -2030.467
  22286462.292    22286461.5964   22286462.3674  117116163.852 7  91259354.63644
      -236.628        -184.368
  24286660.668    24286660.5914   24286662.8754  127627255.699 5  99449842.96842
      3236.883        2522.096
  21672903.207    21672902.9774   21672905.4574  113891870.238 8  88746931.94845
      1020.292         795.037
  22423847.541    22423847.6984   22423849.0814  117838116.191 7  91821926.88545
       290.095         226.063
  23309111.049    23309111.1614   23309113.0494  122490229.895 6  95446944.74143
      1992.165        1552.322
  22326882.316    22326882.7924   22326884.0644  117328552.568 7  91424858.73745
     -2163.225       -1685.656
 08  5  5 13 33  0.0000000  0 11G 2G 6G 7G10G13G16G21G24G25G27G29
  23638692.294    23638691.8614   23638691.3964  124222154.057 6  96796495.09442
     -3884.101       -3026.580
  23836544.956    23836544.5584   23836547.4894  125261904.356 5  97606695.09742
      2702.163        2105.572
  22768013.625    22768013.8484   22768014.6754  119646740.144 7  93231247.06144
      2018.894        1573.151
  21102702.361    21102701.5464   21102703.8214  110895445.987 8  86412055.01646
       431.788         336.453
  22250607.993    22250608.0354   22250609.0644  116927725.077 7  91112528.22344
     -2622.839       -2043.765
  22287872.994    22287872.6984   22287873.4704  117123577.326 7  91265131.37344
      -257.484        -200.626
  24268200.033    24268199.5014   24268201.0124  127530243.100 5  99374248.74341
      3230.518        2517.245
  21667131.450    21667131.1754   21667133.7564  113861538.812 8  88723297.01845
      1001.842         780.644
  22422247.408    22422247.2464   22422249.0894  117829706.249 7  91815373.60745
       270.849         211.057
  23297778.094    23297777.4904   23297778.9634  122430672.212 6  95400536.13843
      1978.708        1541.840
  22339280.919    22339281.2084   22339282.1454  117393706.542 7  91475628.07245
     -2180.250       -1698.901
 08  5  5 13 33 30.0000000  0 11G 2G 6G 7G10G13G16G21G24G25G27G29
  23660891.331    23660889.1454   23660889.8044  124338803.744 6  96887391.09942
     -3892.872       -3033.421
  23821150.577    23821151.7654   23821153.2524  125181008.970 6  97543659.74742
      2690.569        2096.548
  22756535.870    22756536.5334   22756537.0504  119586425.192 6  93184248.42444
      2001.588        1559.661
  21100297.317    21100296.5374   21100298.7614  110882807.625 8  86402206.97046
       410.330         319.714
  22265630.015    22265630.2834   22265631.4634  117006666.983 7  91174041.37343
     -2640.412       -2057.492
  22289401.985    22289401.9414   22289402.6604  117131615.164 7  91271394.61544
      -278.717        -217.195
  24249776.435    24249774.2924   24249776.0654  127433421.365 5  99298803.27741
      3223.737        2512.052
  21661463.724    21661463.3914   21661466.0084  113831754.961 8  88700088.82745
       983.243         766.159
  22420756.761    22420756.5184   22420758.0744  117821872.364 7  91809269.28645
       251.134         195.676
  23286519.714    23286519.6904   23286521.7354  122371511.078 6  95354436.54243
      1965.236        1531.364
  22351775.714    22351776.0744   22351777.4864  117459368.682 7  91526793.39845
     -2197.605       -1712.433
 08  5  5 13 34  0.0000000  0 11G 2G 6G 7G10G13G16G21G24G25G27G29
  23683134.642    23683134.3154   23683133.0334  124455698.571 6  96978478.09342
     -3900.356       -3039.253
  23805821.058    23805820.7674   23805822.6014  125100447.634 6  97480884.66242
      2679.896        2088.216
  22745154.954    22745154.6834   22745155.8744  119526616.107 6  93137643.94944
      1985.267        1546.959
  21098012.910    21098012.0724   21098014.2594  110870803.537 8  86392853.22646
       389.622         303.615
  22280749.795    22280750.0584   22280750.9404  117086119.270 7  91235952.15843
     -2656.913       -2070.321
  22291051.282    22291050.9564   22291051.5654  117140279.858 7  91278146.32044
      -299.198        -233.118
  24231388.058    24231388.5444   24231389.5634  127336794.761 5  99223509.88242
      3217.368        2507.009
  21655900.627    21655900.5434   21655903.1724  113802522.298 8  88677310.19045
       965.163         752.091
  22419376.045    22419375.8994   22419377.6894  117814617.011 7  91803615.78745
       232.200         180.914
  23275338.474    23275337.8814   23275340.4194  122312751.219 6  95308649.60543
      1952.194        1521.175
  22364367.778    22364367.9134   22364369.3274  117525539.521 7  91578355.18245
     -2214.101       -1725.263
 08  5  5 13 34 30.0000000  0 11G 2G 6G 7G10G13G16G21G24G25G27G29
  23705425.116    23705424.7674   23705423.2484  124572834.318 6  97069752.70442
     -3908.753       -3045.837
  23790554.553    23790554.4014   23790556.0704  125020221.887 6  97418371.13542
      2668.035        2078.950
  22733870.188    22733870.0874   22733870.7154  119467314.519 7  93091434.92744
      1968.136        1533.619
  21095849.147    21095848.4214   21095850.6234  110859433.028 8  86383993.08646
       368.325         286.998
  22295965.575    22295965.5214   22295965.8154  117166078.572 7  91298258.02943
     -2673.965       -2083.615
  22292818.764    22292818.6204   22292819.3534  117149570.269 7  91285385.59944
      -320.147        -249.473
  24213037.238    24213037.5524   24213039.9334  127240365.219 5  99148369.99342
      3210.664        2501.826
  21650443.074    21650442.7804   21650445.1024  113773840.666 8  88654960.89446
       946.784         737.744
  22418105.419    22418105.1484   22418106.9584  117807939.692 7  91798412.67544
       212.904         165.901
  23264232.674    23264233.3164   23264235.8284  122254393.541 6  95263176.10643
      1938.345        1510.400
  22377056.289    22377056.2604   22377057.5204  117592216.218 7  91630311.03645
     -2231.004       -1738.451
 08  5  5 13 35  0.0000000  0 11G 2G 6G 7G10G13G16G21G24G25G27G29
  23727758.609    23727756.8874   23727756.0734  124690195.925 6  97161203.33842
     -3915.949       -3051.393
  23775350.005    23775350.0134   23775351.8364  124940321.142 6  97356110.84942
      2657.757        2070.940
  22722679.587    22722680.0564   22722680.8524  119408509.869 6  93045613.12244
      1951.557        1520.681
  21093803.663    21093803.0344   21093805.1594  110848683.786 8  86375617.07146
       347.642         270.879
  22311275.318    22311274.9554   22311275.9834  117246529.864 7  91360947.33843
     -2690.231       -2096.278
  22294703.480    22294703.3594   22294703.9724  117159473.818 7  91293102.63444
      -340.551        -265.363
  24194724.576    24194723.8734   24194724.0444  127144122.109 6  99073375.38842
      3205.037        2497.383
  21645087.967    21645087.3834   21645089.7674  113745698.735 8  88633032.16845
       928.894         723.803
  22416942.723    22416942.1574   22416943.8434  117801828.055 7  91793650.35245
       194.021         151.197
  23253202.509    23253202.1784   23253203.6774  122196427.120 6  95218007.46043
      1925.648        1500.507
  22389837.722    22389837.8154   22389839.3814  117659383.893 7  91682649.39445
     -2247.360       -1751.193
 08  5  5 13 35 30.0000000  0 11G 2G 6G 7G10G13G16G21G24G25G27G29
  23750130.704    23750131.6914   23750131.2914  124807777.158 6  97252825.00142
     -3923.716       -3057.452
  23760206.016    23760207.1334   23760208.7534  124860744.937 5  97294103.44442
      2646.339        2062.102
  22711583.890    22711584.2944   22711584.9944  119350201.316 6  93000177.85744
      1934.782        1507.612
  21091876.024    21091875.2584   21091877.3404  110838553.095 8  86367723.06746
       326.695         254.580
  22326676.919    22326677.3254   22326677.7214  117327467.362 7  91424015.46443
     -2706.773       -2109.156
  22296704.172    22296703.6634   22296704.4654  117169986.790 7  91301294.54144
      -361.276        -281.518
  24176444.345    24176444.2694   24176446.0094  127048064.539 6  98998525.37042
      3198.088        2492.029
  21639834.639    21639834.3824   21639836.8354  113718094.041 8  88611522.04345
       910.504         709.480
  22415886.502    22415886.4374   22415888.0284  117796279.422 7  91789326.72344
       174.993         136.369
  23242246.312    23242245.7604   23242248.1534  122138850.372 6  95173142.44343
      1912.160        1490.009
  22402711.554    22402712.1234   22402713.4244  117727037.234 7  91735366.08145
     -2263.855       -1764.025
 08  5  5 13 36  0.0000000  0 11G 2G 6G 7G10G13G16G21G24G25G27G29
  23772555.951    23772554.1064   23772553.5954  124925607.029 6  97344640.39842
     -3931.302       -3063.365
  23745132.571    23745131.7094   23745134.0544  124781526.810 5  97232375.07442
      2634.748        2053.041
  22700588.839    22700588.9084   22700590.2464  119292422.138 6  92955155.12844
      1917.372        1494.065
  21090071.742    21090071.1604   21090073.3274  110829073.078 8  86360336.00346
       305.474         238.044
  22342176.787    22342177.3304   22342178.1164  117408919.847 7  91487484.86743
     -2723.547       -2122.214
  22298826.614    22298826.5654   22298827.0274  117181140.698 7  91309985.87544
      -382.119        -297.760
  24158206.411    24158206.5324   24158205.7804  126952225.799 6  98923845.81142
      3191.261        2486.735
  21634689.818    21634689.7504   21634692.1594  113691059.328 7  88590456.09546
       891.803         694.923
  22414943.883    22414943.6394   22414944.8634  117791325.349 7  91785466.37045
       155.392         121.073
  23231369.807    23231369.9284   23231372.2764  122081697.072 6  95128607.49043
      1898.533        1479.381
  22415683.540    22415684.1824   22415685.7184  117795206.660 7  91788485.01745
     -2280.567       -1777.049
 08  5  5 13 36 30.0000000  0 11G 2G 6G 7G10G13G16G21G24G25G27G29
  23795024.169    23795021.8304   23795021.6114  125043674.442 6  97436640.87142
     -3939.480       -3069.751
  23730124.936    23730124.5764   23730126.5624  124702660.512 6  97170920.85942
      2623.250        2044.061
  22689693.285    22689693.3074   22689694.6474  119235165.868 7  92910539.82944
      1899.736        1480.310
  21088390.275    21088389.4284   21088391.6504  110820235.694 8  86353449.70846
       283.939         221.244
  22357772.953    22357772.6444   22357774.1624  117490876.507 7  91551347.18943
     -2740.351       -2135.321
  22301069.786    22301069.0644   22301069.8314  117192926.463 7  91319169.55544
      -403.395        -314.350
  24140010.032    24140009.6734   24140010.9574  126856599.740 5  98849332.03041
      3184.077        2481.087
  21629652.625    21629652.2994   21629654.4944  113664586.767 8  88569828.12945
       873.105         680.338
  22414113.016    22414112.8444   22414114.1354  117786957.824 7  91782063.11944
       135.806         105.825
  23220573.171    23220573.0404   23220574.7914  122024959.816 6  95084396.63643
      1884.387        1468.364
  22428751.840    22428752.4684   22428753.9114  117863880.885 7  91841997.35545
     -2297.540       -1790.304
 08  5  5 13 37  0.0000000  0 11G 2G 6G 7G10G13G16G21G24G25G27G29
  23817533.350    23817533.0414   23817532.6864  125161968.956 6  97528818.30142
     -3947.557       -3076.014
  23715183.220    23715182.3794   23715184.6694  124624140.706 5  97109736.62542
      2610.622        2034.236
  22678896.420    22678896.7124   22678897.6494  119178427.230 7  92866327.88944
      1881.861        1466.392
  21086829.420    21086828.4584   21086830.7124  110812032.932 8  86347057.91446
       262.056         204.209
  22373462.469    22373462.1914   22373463.7774  117573326.750 7  91615594.14543
     -2757.262       -2148.486
  22303431.030    22303430.7184   22303431.3924  117205336.184 7  91328839.44244
      -424.777        -330.983
  24121853.250    24121852.6944   24121852.3804  126761181.090 6  98774979.83042
      3176.204        2474.942
  21624720.495    21624720.4844   21624722.6694  113638669.650 8  88549632.98046
       853.812         665.317
  22413391.730    22413391.7954   22413393.1914  117783169.219 7  91779111.00644
       115.932          90.358
  23209855.074    23209854.4494   23209857.1994  121968633.071 6  95040505.69143
      1869.831        1457.023
  22441914.996    22441915.0434   22441916.5984  117933050.530 7  91895895.83945
     -2314.697       -1803.661
 08  5  5 13 37 30.0000000  0 11G 2G 6G 7G10G13G16G21G24G25G27G29
  23840089.777    23840089.0924   23840089.6824  125280504.819 6  97621183.76742
     -3955.046       -3081.855
  23700311.097    23700310.0564   23700312.6284  124545986.889 6  97048837.59342
      2599.124        2025.311
  22668201.652    22668201.8644   22668202.8224  119122225.345 7  92822534.16544
      1864.741        1453.069
  21085392.636    21085391.7434   21085394.0274  110804483.186 8  86341175.01146
       240.992         187.785
  22389248.275    22389248.7974   22389250.0494  117656285.534 7  91680237.38143
     -2773.541       -2161.212
  22305914.745    22305914.2134   22305914.7554  117218386.761 7  91339008.68244
      -445.479        -347.128
  24103738.000    24103736.6964   24103737.7474  126665988.787 5  98700804.00142
      3169.509        2469.757
  21619897.844    21619897.5514   21619900.1434  113613326.309 8  88529884.88945
       835.390         650.958
  22412784.236    22412784.4654   22412785.2534  117779976.856 7  91776623.46744
        96.664          75.338
  23199217.317    23199217.2544   23199219.2474  121912735.865 6  94996949.49343
      1856.143        1446.356
  22455174.567    22455174.5464   22455176.0294  118002730.341 7  91950191.83645
     -2330.938       -1816.314
 08  5  5 13 38  0.0000000  0 11G 2G 6G 7G10G13G16G21G24G25G27G29
  23862690.402    23862687.6634   23862687.9074  125399261.792 6  97713721.51042
     -3962.323       -3087.517
  23685504.729    23685505.0834   23685507.7094  124468183.801 6  96988211.84042
      2587.416        2016.157
  22657605.771    22657606.3674   22657606.9684  119066544.704 7  92779146.63344
      1847.137        1439.317
  21084076.872    21084076.2464   21084078.2724  110797568.848 8  86335787.19046
       219.717         171.199
  22405128.045    22405128.0234   22405129.6424  117739732.434 7  91745260.97943
     -2789.739       -2173.823
  22308516.683    22308516.1584   22308517.2464  117232060.203 7  91349663.27144
      -466.365        -363.422
  24085663.582    24085663.7884   24085663.4314  126571007.983 6  98626792.95542
      3162.327        2464.165
  21615181.322    21615180.9694   21615183.5244  113588540.121 8  88510570.99245
       816.709         636.386
  22412286.747    22412286.7314   22412288.2454  117777363.316 7  91774586.94244
        77.316          60.223
  23188659.696    23188659.1944   23188661.4054  121857251.933 6  94953715.27943
      1842.362        1435.590
  22468527.541    22468527.6274   22468529.0404  118072900.609 7  92004869.93545
     -2347.235       -1829.022
 08  5  5 13 38 30.0000000  0 11G 2G 6G 7G10G13G16G21G24G25G27G29
  23885329.916    23885328.9914   23885329.9464  125518240.120 6  97806431.82542
     -3970.129       -3093.601
  23670767.443    23670767.5464   23670769.4294  124390736.541 6  96927863.34742
      2575.130        2006.595
  22647110.108    22647110.5234   22647111.7884  119011390.038 7  92736169.01344
      1829.144        1425.279
  21082882.769    21082881.9214   21082884.1134  110791293.051 8  86330896.96246
       198.121         154.369
  22421100.321    22421100.8274   22421101.3694  117823667.718 7  91810665.11743
     -2806.308       -2186.752
  22311237.610    22311236.9864   22311238.3704  117246358.892 7  91360805.05244
      -487.463        -379.863
  24067630.665    24067631.8154   24067630.3644  126476243.572 6  98552950.56142
      3154.564        2458.075
  21610571.183    21610570.9694   21610573.4334  113564314.717 8  88491694.07645
       797.649         621.539
  22411900.602    22411900.2034   22411901.3334  117775331.852 7  91773004.03644
        57.546          44.824
  23178180.703    23178180.2684   23178182.4594  121802185.912 6  94910806.66143
      1828.089        1424.464
  22481973.724    22481974.0254   22481975.5924  118143562.164 7  92059930.84445
     -2363.903       -1842.005
 08  5  5 13 39  0.0000000  0 11G 2G 6G 7G10G13G16G21G24G25G27G29
  23908013.152    23908012.8284   23908011.5394  125637438.444 6  97899313.50642
     -3977.696       -3099.470
  23656098.429    23656097.5474   23656099.7114  124313648.689 6  96867794.93042
      2562.845        1997.015
  22636715.722    22636715.6604   22636716.6794  118956764.927 7  92693604.06244
      1811.207        1411.304
  21081810.209    21081809.4204   21081811.7554  110785657.037 8  86326505.23746
       176.413         137.452
  22437165.061    22437165.6894   22437166.8734  117908089.770 7  91876448.55043
     -2823.025       -2199.756
  22314077.307    22314077.2914   22314077.8644  117261283.759 7  91372434.76144
      -508.782        -396.457
  24049639.458    24049639.7554   24049640.1494  126381699.451 6  98479279.81142
      3147.137        2452.371
  21606068.369    21606068.2104   21606070.7134  113540652.215 8  88473255.73245
       778.533         606.644
  22411624.837    22411624.8414   22411626.1184  117773883.895 7  91771875.78245
        37.764          29.411
  23167782.254    23167781.9184   23167784.2424  121747540.845 6  94868226.05843
      1813.644        1413.237
  22495513.701    22495513.8744   22495515.4914  118214714.439 7  92115374.16545
     -2380.669       -1855.068
 08  5  5 13 39 30.0000000  0 11G 2G 6G 7G10G13G16G21G24G25G27G29
  23930743.295    23930741.2194   23930741.6254  125756881.680 6  97992386.02242
     -3985.197       -3105.360
  23641502.601    23641502.5554   23641504.6244  124236950.379 6  96808030.03842
      2550.230        1987.204
  22626426.937    22626427.4504   22626428.1794  118902699.345 7  92651475.14744
      1793.015        1397.136
  21080864.793    21080864.0924   21080866.1624  110780689.255 8  86322634.28246
       154.670         120.535
  22453327.851    22453328.1004   22453329.3484  117993024.115 7  91942631.14743
     -2839.662       -2212.733
  22317041.825    22317041.6064   22317042.7354  117276862.269 7  91384573.80044
      -530.048        -413.028
  24031695.721    24031695.3344   24031696.7614  126287404.973 5  98405803.59842
      3138.992        2445.980
  21601678.636    21601678.0274   21601680.4464  113517581.401 8  88455278.49845
       759.306         591.670
  22411465.648    22411465.5534   22411466.9414  117773047.257 7  91771223.91245
        17.836          13.897
  23157468.692    23157469.1984   23157471.1754  121693346.421 6  94825996.59743
      1799.235        1402.014
  22509152.125    22509151.9444   22509153.0344  118286383.139 7  92171219.89645
     -2397.364       -1868.066
 08  5  5 13 40  0.0000000  0 12G 2G 6G 7G 8G10G13G16G21G24G25G27G29
  23953513.095    23953511.9144   23953512.3084  125876541.363 6  98085627.23242
     -3993.277       -3111.602
  23626977.473    23626976.4864   23626979.7194  124160617.906 6  96748550.19942
      2537.397        1977.218
  22616240.488    22616240.6644   22616241.6314  118849168.891 7  92609763.12344
      1774.377        1382.649
  25010329.501    25010329.9684   25010331.2024  131430185.201 5 102413162.40441
      3622.904        2823.098
  21080041.758    21080040.9704   21080042.9284  110776363.804 8  86319263.86046
       132.489         103.242
  22469582.625    22469582.8804   22469582.8504  118078442.078 6  92009190.60943
     -2856.285       -2225.672
  22320126.247    22320125.5734   22320126.7164  117293068.144 7  91397201.73044
      -551.496        -429.730
  24013794.944    24013795.7644   24013796.2014  126193336.336 6  98332503.35142
      3130.959        2439.755
  21597395.854    21597395.4804   21597397.9624  113495077.199 8  88437742.77145
       739.693         576.391
  22411417.830    22411417.7474   22411418.7404  117772796.111 7  91771028.25944
        -2.356          -1.823
  23147237.980    23147237.6074   23147239.5844  121639578.145 6  94784099.18043
      1784.149        1390.254
  22522882.666    22522882.9554   22522884.2264  118358539.870 7  92227445.86345
     -2414.274       -1881.256
 08  5  5 13 40 30.0000000  0 12G 2G 6G 7G 8G10G13G16G21G24G25G27G29
  23976325.307    23976323.2234   23976323.3344  125996411.862 6  98179032.70342
     -3999.364       -3116.385
  23612521.242    23612520.9634   23612523.0794  124084651.067 6  96689355.27242
      2525.940        1968.278
  22606155.959    22606155.8764   22606156.9384  118796173.074 7  92568467.71844
      1757.466        1369.450
  24989654.658    24989656.6074   24989658.9924  131321542.011 5 102328505.44241
      3618.682        2819.730
  21079340.408    21079339.6634   21079341.6584  110772678.529 8  86316392.28646
       112.095          87.351
  22485928.183    22485928.2864   22485929.3744  118164338.596 6  92076122.99043
     -2871.529       -2237.546
  22323328.770    22323328.1204   22323329.4214  117309898.159 7  91410316.02144
      -571.513        -445.331
  23995937.939    23995936.6664   23995937.8444  126099494.009 6  98259379.47842
      3124.109        2434.398
  21593220.915    21593220.5754   21593223.0524  113473137.721 8  88420647.04145
       721.781         562.425
  22411480.776    22411480.7244   22411481.8454  117773127.980 7  91771286.89644
       -20.915         -16.308
  23137087.003    23137086.5794   23137089.2484  121586235.133 6  94742533.14043
      1770.750        1379.796
  22536705.847    22536705.9824   22536707.5434  118431180.163 7  92284048.67945
     -2429.557       -1893.151
 08  5  5 13 41  0.0000000  0 12G 2G 6G 7G 8G10G13G16G21G24G25G27G29
  23999172.762    23999172.5844   23999173.0354  126116490.956 5  98272600.69042
     -4006.739       -3122.080
  23598135.413    23598135.6554   23598137.6404  124009052.314 6  96630447.15843
      2513.242        1958.408
  22596172.823    22596173.1814   22596174.2454  118743713.841 7  92527590.37244
      1739.227        1355.270
  24969010.286    24969009.2994   24969010.0654  131213048.372 5 102243965.04741
      3613.362        2815.682
  21078760.973    21078760.1774   21078762.1284  110769633.504 8  86314019.58146
        90.320          70.388
  22502363.990    22502364.4234   22502364.7154  118250711.079 7  92143426.22343
     -2887.431       -2249.936
  22326649.743    22326649.6164   22326650.6294  117327352.161 7  91423916.53844
      -592.802        -461.930
  23978123.992    23978123.1354   23978123.6224  126005880.268 6  98186433.71342
      3116.030        2428.045
  21589153.925    21589153.6864   21589155.7534  113451764.461 8  88403992.56546
       702.522         547.430
  22411654.756    22411654.6904   22411656.2784  117774043.307 7  91772000.15044
       -40.789         -31.789
  23127017.408    23127017.2474   23127019.3924  121533319.180 6  94701299.84543
      1756.148        1368.412
  22550620.473    22550620.5434   22550621.9104  118504301.853 7  92341026.61645
     -2445.838       -1905.842
 08  5  5 13 41 30.0000000  0 12G 2G 6G 7G 8G10G13G16G21G24G25G27G29
  24022063.498    24022064.1434   24022064.3154  126236783.197 6  98366334.81442
     -4013.968       -3127.707
  23583820.779    23583821.3704   23583823.2104  123933831.306 6  96571833.38343
      2500.238        1948.230
  22586294.655    22586294.7354   22586295.2914  118691800.838 7  92487138.65344
      1720.561        1340.696
  24948392.931    24948392.7894   24948397.4234  131104714.337 5 102159548.95341
      3607.848        2811.240
  21078304.648    21078304.0024   21078305.9284  110767236.118 8  86312151.49046
        68.383          53.279
  22518891.739    22518892.0584   22518892.9524  118337564.275 6  92211104.01143
     -2903.777       -2262.670
  22330091.883    22330091.1144   22330091.8664  117345436.930 7  91438008.54044
      -613.985        -478.455
  23960354.608    23960354.0154   23960355.5364  125912504.485 6  98113673.37342
      3107.853        2421.676
  21585195.595    21585195.4554   21585197.8624  113430965.217 8  88387785.34646
       683.010         532.214
  22411941.880    22411941.5244   22411942.8074  117775549.266 7  91773173.56844
       -60.697         -47.272
  23117031.419    23117031.0134   23117032.9024  121480839.441 6  94660406.40043
      1741.389        1356.933
  22564627.538    22564627.9134   22564629.1554  118577910.371 7  92398383.92645
     -2462.427       -1918.778
 08  5  5 13 42  0.0000000  0 12G 2G 6G 7G 8G10G13G16G21G24G25G27G29
  24044995.902    24044993.5464   24044994.7494  126357281.915 6  98460229.92242
     -4020.471       -3132.863
  23569578.715    23569578.5564   23569580.6414  123858986.093 6  96513512.42443
      2487.913        1938.623
  22576519.119    22576519.6374   22576520.7614  118640431.992 7  92447110.95144
      1702.326        1326.477
  24927812.075    24927807.3594   24927811.4554  130996538.326 5 102075256.10341
      3602.166        2806.904
  21077970.790    21077970.3364   21077972.3744  110765482.679 8  86310785.12446
        46.941          36.576
  22535509.625    22535509.7204   22535510.7474  118424891.483 7  92279151.14043
     -2919.605       -2275.058
  22333652.124    22333652.1044   22333652.8304  117364147.769 7  91452588.38944
      -634.919        -494.719
  23942631.441    23942629.6634   23942630.4354  125819364.254 6  98041096.55242
      3099.909        2415.534
  21581346.248    21581346.1094   21581348.4674  113410736.554 8  88372022.75245
       663.961         517.361
  22412339.715    22412339.7264   22412340.8134  117777642.001 7  91774804.29444
       -80.184         -62.471
  23107126.800    23107126.6144   23107129.0564  121428793.800 6  94619851.35843
      1726.864        1345.608
  22578726.548    22578726.7054   22578727.8684  118651999.363 7  92456115.56845
     -2478.348       -1931.189
 08  5  5 13 42 30.0000000  0 12G 2G 6G 7G 8G10G13G16G21G24G25G27G29
  24067964.525    24067964.9964   24067965.5114  126477993.801 5  98554291.19142
     -4027.860       -3138.624
  23555409.766    23555409.8204   23555410.9484  123784528.367 6  96455493.40243
      2474.958        1928.571
  22566849.653    22566850.0894   22566851.2924  118589618.446 7  92407515.88344
      1684.087        1312.292
  24907259.088    24907256.7734   24907259.8714  130888532.021 5 101991095.39941
      3596.949        2802.837
  21077761.715    21077760.9414   21077763.1254  110764383.000 8  86309928.30346
        25.429          19.808
  22552218.805    22552219.3884   22552219.5974  118512699.520 7  92347572.95843
     -2935.247       -2287.210
  22337333.672    22337333.0734   22337334.2844  117383493.446 7  91467662.92844
      -655.703        -510.930
  23924953.456    23924953.7484   23924953.9474  125726472.172 6  97968713.10742
      3091.984        2409.335
  21577607.725    21577607.2834   21577609.5104  113391088.679 8  88356712.67445
       644.901         502.512
  22412851.637    22412851.5414   22412852.6434  117780330.720 7  91776899.38244
       -99.829         -77.796
  23097308.049    23097307.4974   23097309.7144  121377193.151 6  94579643.14543
      1712.025        1334.027
  22592917.877    22592918.1664   22592919.3334  118726575.885 7  92514227.06645
     -2494.321       -1943.631
 08  5  5 13 43  0.0000000  0 12G 2G 6G 7G 8G10G13G16G21G24G25G27G29
  24090975.306    24090974.3934   24090974.5224  126598911.953 5  98648513.19242
     -4033.888       -3143.288
  23541313.627    23541314.0944   23541315.9194  123710456.343 6  96397774.93243
      2462.112        1918.549
  22557285.873    22557285.9694   22557286.8264  118539357.978 7  92368351.84744
      1665.694        1297.961
  24886736.953    24886734.4554   24886737.0274  130780694.275 5 101907065.95741
      3591.466        2798.568
  21077676.072    21077675.1484   21077677.2004  110763932.337 8  86309577.16546
         3.865           3.028
  22569017.991    22569018.7374   22569019.6854  118600981.250 7  92416363.86843
     -2950.773       -2299.255
  22341135.110    22341134.5084   22341135.3804  117403469.572 7  91483228.71344
      -676.696        -527.263
  23907323.448    23907323.6864   23907325.0934  125633826.092 6  97896521.36542
      3083.769        2402.931
  21573978.455    21573978.3144   21573980.9154  113372018.636 8  88341852.97746
       625.759         487.622
  22413475.847    22413475.7594   22413477.2394  117783611.537 7  91779455.82044
      -119.540         -93.133
  23087572.582    23087572.2774   23087574.5614  121326035.082 6  94539779.87244
      1697.649        1322.841
  22607200.731    22607201.0484   22607202.3074  118801633.894 7  92572713.81644
     -2510.187       -1955.968
 08  5  5 13 43 30.0000000  0 12G 2G 6G 7G 8G10G13G16G21G24G25G27G29
  24114023.737    24114023.1194   24114022.1004  126720024.452 6  98742886.52042
     -4040.707       -3148.623
  23527290.953    23527291.2314   23527292.3374  123636763.249 6  96340351.71043
      2449.958        1909.061
  22547825.854    22547825.5724   22547826.5304  118489643.514 7  92329613.23644
      1647.964        1284.144
  24866247.881    24866246.8094   24866246.9704  130673019.122 5 101823163.27041
      3586.239        2794.507
  21077712.065    21077711.1584   21077713.6144  110764121.948 8  86309724.88446
       -17.021         -13.252
  22585906.156    22585906.1214   22585906.8654  118689725.224 7  92485514.98243
     -2965.848       -2311.061
  22345054.694    22345054.0254   22345054.8484  117424066.616 7  91499278.34644
      -696.993        -543.116
  23889739.710    23889739.2614   23889739.1894  125541418.611 6  97824515.50242
      3076.130        2397.025
  21570458.218    21570457.6884   21570460.0794  113353517.973 8  88327436.94745
       607.112         473.080
  22414211.111    22414211.1234   22414212.7284  117787475.178 7  91782466.37344
      -138.634        -108.010
  23077920.200    23077920.2984   23077921.7434  121275312.046 6  94500255.59144
      1683.456        1311.780
  22621573.545    22621573.6434   22621574.7974  118877162.165 7  92631567.05744
     -2525.628       -1968.030
 08  5  5 13 44  0.0000000  0 12G 2G 6G 7G 8G10G13G16G21G24G25G27G29
  24137107.648    24137108.5504   24137107.6744  126841343.802 5  98837421.15742
     -4047.149       -3153.588
  23513343.262    23513343.0994   23513344.4174  123563466.084 6  96283237.01543
      2436.931        1898.894
  22538472.198    22538472.8704   22538473.0254  118440491.851 7  92291313.17844
      1629.354        1269.640
  24845787.933    24845789.0714   24845794.7964  130565524.045 5 101739400.96841
      3580.388        2789.892
  21077872.799    21077872.2644   21077874.3064  110764967.195 8  86310383.44446
       -38.878         -30.269
  22602883.124    22602884.3014   22602884.5144  118778943.423 6  92555035.60743
     -2981.711       -2323.369
  22349094.920    22349094.6144   22349095.3034  117445298.283 7  91515822.47944
      -718.180        -559.617
  23872203.015    23872203.4904   23872203.5864  125449267.423 6  97752709.36442
      3067.593        2390.314
  21567048.511    21567048.4194   21567050.7674  113335602.121 8  88313476.57546
       587.691         457.947
  22415060.255    22415060.1024   22415061.2574  117791936.520 7  91785942.63844
      -158.561        -123.548
  23068353.456    23068353.4294   23068355.8914  121225040.212 7  94461082.87044
      1668.461        1300.100
  22636038.026    22636037.7554   22636039.2414  118953173.112 7  92690796.37544
     -2541.535       -1980.407
 08  5  5 13 44 30.0000000  0 12G 2G 6G 7G 8G10G13G16G21G24G25G27G29
  24160234.835    24160232.6424   24160232.5294  126962868.194 6  98932115.39742
     -4054.054       -3159.021
  23499471.385    23499471.2704   23499472.9574  123490568.395 6  96226433.58143
      2423.274        1888.261
  22529227.250    22529226.9174   22529227.8774  118391906.198 7  92253454.18444
      1610.208        1254.729
  24825372.475    24825369.4474   24825370.2374  130458212.506 5 101655781.59341
      3573.763        2784.738
  21078158.432    21078157.9584   21078160.1274  110766468.846 8  86311553.56046
       -60.963         -47.495
  22619950.855    22619951.9324   22619952.3604  118868634.375 7  92624924.54343
     -2997.664       -2335.828
  22353256.124    22353255.3334   22353256.6114  117467165.281 7  91532861.67044
      -739.410        -576.167
  23854717.361    23854716.3164   23854716.7614  125357375.897 6  97681105.59642
      3058.812        2383.483
  21563750.939    21563750.5944   21563753.0784  113318272.736 8  88299973.16646
       567.893         442.512
  22416023.151    22416023.1174   22416024.2694  117796996.948 7  91789885.86044
      -178.676        -139.235
  23058873.971    23058873.6444   23058875.2024  121175222.448 6  94422263.94144
      1653.129        1288.165
  22650593.853    22650593.9894   22650595.5254  119029665.813 7  92750401.12344
     -2557.860       -1993.137
 08  5  5 13 45  0.0000000  0 12G 2G 6G 7G 8G10G13G16G21G24G25G27G29
  24183396.010    24183396.4464   24183395.7694  127084588.213 6  99026962.11942
     -4061.072       -3164.498
  23485674.616    23485673.7954   23485676.1364  123418065.492 6  96169937.76843
      2409.960        1877.856
  22520087.957    22520088.2964   22520089.0004  118343881.200 7  92216032.01444
      1591.256        1239.948
  24804981.987    24804982.5414   24804984.6924  130351080.963 5 101572302.60741
      3567.863        2780.109
  21078568.083    21078567.2744   21078569.4504  110768620.381 8  86313230.06146
       -82.811         -64.539
  22637107.637    22637107.4684   22637107.7364  118958788.926 6  92695174.81043
     -3013.204       -2347.978
  22357536.866    22357536.0974   22357537.0374  117489660.247 7  91550390.20044
      -760.494        -592.587
  23837279.174    23837278.4184   23837279.8634  125265739.491 5  97609700.59442
      3049.959        2376.579
  21560563.754    21560563.3904   21560565.9074  113301523.982 8  88286922.10446
       548.349         427.290
  22417098.613    22417098.7324   22417099.9884  117802649.496 7  91794290.47345
      -198.565        -154.722
  23049479.106    23049478.5434   23049480.9614  121125853.495 6  94383794.64644
      1637.815        1276.226
  22665239.851    22665240.0994   22665241.0824  119106631.316 7  92810374.25744
     -2573.596       -2005.407
 08  5  5 13 45 30.0000000  0 12G 2G 6G 7G 8G10G13G16G21G24G25G27G29
  24206594.088    24206595.3984   24206594.0084  127206498.849 6  99121957.53742
     -4067.858       -3169.708
  23471952.201    23471952.3874   23471954.5364  123345957.161 6  96113749.42543
      2396.215        1867.147
  22511055.715    22511056.0934   22511057.0694  118296416.457 7  92179046.36944
      1571.721        1224.725
  24784631.163    24784630.1284   24784632.8614  130244129.163 5 101488963.61041
      3561.092        2774.908
  21079100.611    21079099.8974   21079101.9614  110771419.024 8  86315410.88446
      -104.939         -81.781
  22654350.205    22654350.1624   22654351.1794  119049401.722 7  92765782.20443
     -3028.875       -2360.182
  22361936.124    22361935.6214   22361936.6314  117512779.900 7  91568405.48044
      -781.886        -609.259
  23819890.190    23819890.0224   23819890.4944  125174358.062 6  97538494.26942
      3040.828        2369.503
  21557486.787    21557486.4824   21557488.8624  113285354.037 8  88274322.14646
       528.493         411.816
  22418286.820    22418286.5604   22418287.9614  117808891.249 7  91799154.18945
      -218.725        -170.444
  23040169.760    23040169.5014   23040171.7384  121076932.670 6  94345674.51944
      1622.244        1264.097
  22679975.123    22679975.1824   22679976.4894  119184064.764 7  92870712.03544
     -2589.689       -2017.956
 08  5  5 13 46  0.0000000  0 12G 2G 6G 7G 8G10G13G16G21G24G25G27G29
  24229830.348    24229830.0354   24229829.3994  127328601.135 6  99217102.28542
     -4073.842       -3174.472
  23458307.777    23458307.4954   23458308.9584  123274249.481 6  96057873.26143
      2382.863        1856.811
  22502130.711    22502131.1774   22502132.4384  118249517.860 7  92142502.16644
      1553.040        1210.162
  24764312.906    24764313.3934   24764315.2524  130137364.123 5 101405770.12441
      3554.759        2769.919
  21079757.038    21079756.2494   21079758.5174  110774868.787 8  86318099.04646
      -126.621         -98.662
  22671680.687    22671680.8694   22671681.2764  119140473.718 7  92836747.41443
     -3043.958       -2371.914
  22366454.978    22366454.5614   22366455.8594  117536527.572 7  91586910.13444
      -802.758        -625.536
  23802550.315    23802549.7544   23802550.4834  125083237.368 6  97467491.12142
      3032.565        2363.054
  21554520.732    21554520.3864   21554522.9644  113269767.531 7  88262176.92445
       509.011         396.632
  22419587.060    22419587.2484   22419588.8314  117815726.117 7  91804480.01845
      -238.428        -185.766
  23030946.674    23030946.4544   23030948.3464  121028465.366 6  94307907.85544
      1607.117        1252.281
  22694799.429    22694799.5814   22694801.0404  119261967.810 7  92931415.75944
     -2605.295       -2030.111
 08  5  5 13 46 30.0000000  0 12G 2G 6G 7G 8G10G13G16G21G24G25G27G29
  24253104.330    24253102.1164   24253102.6574  127450893.881 6  99312395.41842
     -4079.844       -3179.105
  23444738.493    23444738.6874   23444740.0314  123202946.174 6  96002312.23943
      2369.886        1846.650
  22493314.736    22493315.1324   22493315.9484  118203188.367 7  92106401.40044
      1534.783        1195.927
  24744034.544    24744032.1344   24744035.4974  130030790.099 5 101322725.46041
      3549.370        2765.747
  21080537.822    21080536.9794   21080539.2324  110778971.486 8  86321295.98746
      -147.602        -115.029
  22689098.297    22689098.7874   22689099.1854  119232003.521 7  92908069.29043
     -3058.626       -2383.341
  22371093.807    22371093.3944   22371094.2084  117560903.888 7  91605904.65844
      -822.998        -641.310
  23785261.263    23785260.8334   23785261.7024  124992381.226 6  97396694.11342
      3024.254        2356.601
  21551666.243    21551665.7324   21551668.1454  113254766.555 8  88250487.93946
       490.229         381.986
  22421001.014    22421001.0714   22421002.2034  117823155.454 7  91810269.11645
      -257.434        -200.594
  23021810.798    23021810.5624   23021811.8234  120980454.562 6  94270496.95344
      1592.727        1241.062
  22709713.207    22709713.1064   22709714.4504  119340339.494 7  92992484.64744
     -2620.147       -2041.693
 08  5  5 13 47  0.0000000  0 12G 2G 6G 7G 8G10G13G16G21G24G25G27G29
  24276409.346    24276406.7734   24276409.4934  127573372.800 5  99407833.42141
     -4086.147       -3183.979
  23431247.817    23431247.5174   23431249.4884  123132048.169 6  95947067.02743
      2356.019        1835.839
  22484607.125    22484607.2514   22484608.0054  118157428.728 7  92070744.73144
      1515.447        1180.860
  24723789.201    24723789.3324   24723791.7164  129924408.280 5 101239830.60341
      3542.699        2760.576
  21081442.232    21081441.5024   21081443.5704  110783724.761 8  86324999.83046
      -169.672        -132.207
  22706602.704    22706602.7214   22706603.3264  119323987.210 6  92979744.82743
     -3073.986       -2395.305
  22375851.915    22375851.3254   22375852.3784  117585906.677 7  91625387.31744
      -844.166        -657.797
  23768021.894    23768022.4734   23768022.2544  124901790.985 6  97326104.32442
      3014.925        2349.286
  21548922.618    21548922.3764   21548924.6314  113240350.294 8  88239254.52646
       470.462         366.593
  22422527.749    22422527.4914   22422528.7064  117831177.786 7  91816520.24744
      -277.516        -216.238
  23012760.909    23012760.6424   23012762.6324  120932900.541 6  94233441.93744
      1577.186        1228.968
  22724715.137    22724715.5114   22724716.4074  119419176.167 7  93053915.87144
     -2635.913       -2053.970
 08  5  5 13 47 30.0000000  0 12G 2G 6G 7G 8G10G13G16G21G24G25G27G29
  24299747.378    24299749.6274   24299750.9554  127696031.121 5  99503411.42941
     -4091.666       -3188.259
  23417832.618    23417831.9124   23417834.3474  123061552.972 6  95892135.67443
      2342.878        1825.622
  22476006.732    22476006.8224   22476008.0424  118112235.885 7  92035529.76444
      1496.677        1166.235
  24703583.380    24703582.1064   24703584.4444  129818216.854 5 101157084.07041
      3536.184        2755.458
  21082469.662    21082468.8534   21082471.1714  110789124.359 8  86329207.40746
      -191.111        -148.919
  22724191.251    22724191.0524   22724192.2024  119416417.517 6  93051768.40843
     -3088.647       -2406.754
  22380727.859    22380727.4204   22380728.5054  117611530.590 7  91645353.97744
      -864.791        -673.858
  23750834.090    23750833.3524   23750834.0164  124811463.974 6  97255719.63242
      3006.201        2342.539
  21546289.668    21546289.4234   21546292.1134  113226514.685 8  88228473.51546
       451.201         351.585
  22424166.078    22424165.8804   22424167.4844  117839788.250 7  91823229.73745
      -297.176        -231.566
  23003798.292    23003797.9194   23003799.9094  120885800.066 7  94196740.31644
      1562.051        1217.182
  22739804.083    22739804.8404   22739805.8654  119498471.163 7  93115704.19644
     -2651.132       -2065.826
 08  5  5 13 48  0.0000000  0 12G 2G 6G 7G 8G10G13G16G21G24G25G27G29
  24323128.988    24323126.8784   24323127.0884  127818879.439 6  99599137.07541
     -4098.617       -3193.712
  23404497.935    23404496.9154   23404499.4174  122991477.137 6  95837531.09443
      2328.510        1814.433
  22467517.662    22467518.0244   22467518.8624  118067625.734 7  92000768.73544
      1476.977        1150.885
  24683412.880    24683414.2564   24683415.2674  129712233.054 5 101074499.30341
      3528.964        2749.847
  21083623.319    21083622.2374   21083624.3414  110795184.745 8  86333929.82346
      -213.388        -166.277
  22741867.453    22741867.2584   22741868.0864  119509306.279 6  93124149.33343
     -3104.287       -2418.936
  22385724.602    22385724.3234   22385725.1244  117637789.172 7  91665815.20844
      -886.268        -690.612
  23733698.313    23733698.0194   23733697.4304  124721416.524 6  97185552.80242
      2996.438        2334.881
  21543770.307    21543770.0064   21543772.6304  113213274.569 8  88218156.51246
       431.065         335.884
  22425919.240    22425919.1334   22425920.1524  117849001.132 7  91830408.65845
      -317.476        -247.394
  22994924.510    22994924.2614   22994925.7904  120839169.056 7  94160404.50544
      1546.090        1204.754
  22754983.388    22754983.4884   22754984.6824  119578236.442 6  93177858.94644
     -2667.001       -2078.186
 08  5  5 13 48 30.0000000  0 12G 2G 6G 7G 8G10G13G16G21G24G25G27G29
  24346540.422    24346540.7134   24346539.8124  127941917.526 5  99695010.53841
     -4104.400       -3198.249
  23391242.502    23391242.8864   23391245.0904  122921824.774 6  95783256.51143
      2314.796        1803.729
  22459140.100    22459140.1054   22459141.0004  118023601.795 7  91966464.41544
      1457.750        1135.912
  24663287.309    24663286.4154   24663287.9784  129606461.306 6 100992079.81241
      3522.301        2744.652
  21084902.257    21084901.3854   21084903.4754  110801907.006 8  86339167.87146
      -235.094        -183.201
  22759629.807    22759630.6884   22759631.7324  119602652.209 6  93196886.50543
     -3119.109       -2430.466
  22390842.485    22390841.9964   22390843.1194  117664683.496 7  91686771.78344
      -907.005        -706.753
  23716616.481    23716616.4114   23716617.0054  124631653.309 6  97115607.45642
      2987.465        2327.845
  21541364.548    21541364.3024   21541366.8734  113200632.304 8  88208305.38246
       411.514         320.660
  22427787.276    22427787.0194   22427788.3774  117858818.008 7  91838058.24645
      -337.159        -262.698
  22986140.997    22986140.2874   22986142.6854  120793011.131 6  94124437.37644
      1530.628        1192.698
  22770251.714    22770251.7384   22770252.7734  119658471.581 7  93240379.82044
     -2682.195       -2090.009
 08  5  5 13 49  0.0000000  0 12G 2G 6G 7G 8G10G13G16G21G24G25G27G29
  24369989.776    24369987.6574   24369988.2854  128065129.149 5  99791019.50041
     -4110.479       -3203.014
  23378066.925    23378066.8344   23378068.7344  122852583.473 6  95729302.21243
      2300.819        1792.848
  22450871.581    22450871.9934   22450872.7814  117980151.438 7  91932607.02044
      1438.469        1120.883
  24643196.225    24643194.9894   24643199.8894  129500889.766 5 100909816.33841
      3515.104        2738.999
  21086304.770    21086303.9884   21086306.0234  110809276.755 8  86344910.43046
      -256.773        -200.073
  22777476.882    22777477.7344   22777478.3174  119696438.087 6  93269966.42643
     -3133.810       -2441.960
  22396078.444    22396077.7014   22396078.7074  117692198.236 7  91708211.83344
      -927.739        -722.921
  23699587.199    23699586.2284   23699586.6534  124542161.708 6  97045873.74042
      2978.323        2320.791
  21539069.890    21539069.7154   21539072.4354  113188574.186 8  88198909.46246
       391.889         305.378
  22429767.805    22429767.2454   22429768.2594  117869223.976 7  91846166.84145
      -356.935        -278.135
  22977444.802    22977444.5604   22977446.5604  120747313.131 7  94088828.64344
      1515.379        1180.816
  22785605.734    22785605.9374   22785607.1674  119739159.601 7  93303253.59444
     -2697.305       -2101.802
 08  5  5 13 49 30.0000000  0 12G 2G 6G 7G 8G10G13G16G21G24G25G27G29
  24393465.580    24393468.5364   24393468.8684  128188519.388 5  99887167.45741
     -4116.137       -3207.343
  23364970.593    23364970.7254   23364972.6124  122783764.119 6  95675676.71243
      2286.715        1781.857
  22442714.027    22442714.6664   22442715.4364  117937285.076 7  91899204.73644
      1418.961        1105.680
  24623147.515    24623146.1494   24623149.9454  129395530.135 5 100827717.98641
      3508.138        2733.596
  21087832.140    21087831.2884   21087833.4104  110817302.712 8  86351164.37546
      -278.660        -217.139
  22795409.385    22795409.4844   22795410.2134  119790669.631 6  93343393.41543
     -3148.626       -2453.519
  22401433.654    22401433.4734   22401434.2614  117720341.084 7  91730141.32444
      -948.719        -739.277
  23682611.024    23682611.0064   23682611.3774  124452952.808 6  96976360.31142
      2968.657        2313.263
  21536888.330    21536888.0354   21536890.4444  113177109.103 8  88189975.64146
       372.124         289.977
  22431861.187    22431861.2124   22431862.4714  117880227.217 7  91854740.70045
      -376.838        -293.625
  22968837.959    22968837.5914   22968839.3664  120702085.119 7  94053586.10644
      1499.578        1168.495
  22801047.636    22801047.9904   22801048.8294  119820306.800 7  93366485.16644
     -2712.689       -2113.768
 08  5  5 13 50  0.0000000  0 12G 2G 6G 7G 8G10G13G16G21G24G25G27G29
  24416978.749    24416980.4444   24416983.7704  128312084.279 5  99983451.79541
     -4121.627       -3211.635
  23351954.663    23351955.5664   23351957.7074  122715366.872 6  95622380.13443
      2273.031        1771.143
  22434668.106    22434668.0964   22434669.2324  117895002.285 7  91866257.20644
      1399.824        1090.763
  24603138.418    24603138.6384   24603141.3544  129290383.215 5 100745785.37941
      3501.281        2728.326
  21089483.614    21089482.8964   21089485.2504  110825982.463 8  86357927.73646
      -300.159        -233.893
  22813424.711    22813424.5424   22813425.9754  119885342.352 7  93417164.15743
     -3162.982       -2464.661
  22406908.421    22406907.4934   22406908.6164  117749109.156 7  91752557.99144
      -969.228        -755.246
  23665689.161    23665688.5084   23665689.3034  124364026.890 6  96907067.40842
      2959.391        2306.012
  21534819.176    21534818.8764   21534821.2954  113166235.691 8  88181502.85146
       352.681         274.817
  22434068.381    22434068.4504   22434070.1174  117891825.605 7  91863778.25345
      -396.533        -308.980
  22960320.680    22960320.2714   22960322.1714  120657326.493 7  94018709.31244
      1484.218        1156.527
  22816576.331    22816576.1994   22816577.2744  119901909.194 6  93430071.42844
     -2727.683       -2125.475
 08  5  5 13 50 30.0000000  0 12G 2G 6G 7G 8G10G13G16G21G24G25G27G29
  24440527.704    24440526.9854   24440529.2464  128435823.986 5 100079872.26041
     -4127.296       -3216.073
  23339021.228    23339020.6354   23339023.0724  122647397.406 6  95569416.90342
      2258.820        1760.128
  22426734.229    22426734.3424   22426735.2144  117853307.949 7  91833768.15044
      1380.253        1075.513
  24583171.314    24583170.1764   24583173.6734  129185454.958 5 100664023.12042
      3494.058        2722.675
  21091260.257    21091259.5334   21091261.6084  110835319.376 8  86365203.47346
      -322.056        -250.968
  22831524.457    22831525.1614   22831525.7714  119980456.942 6  93491279.37243
     -3177.758       -2476.183
  22412502.078    22412501.6194   22412502.3064  117778504.901 7  91775463.76344
      -990.136        -771.526
  23648821.644    23648821.0894   23648821.9144  124275389.279 6  96837999.15542
      2949.776        2298.508
  21532863.373    21532863.0114   21532865.5684  113155957.877 8  88173494.20246
       332.895         259.394
  22436389.597    22436389.3924   22436391.0114  117904022.560 7  91873282.29345
      -416.442        -324.488
  22951893.993    22951893.5804   22951895.2984  120613042.024 7  93984201.94744
      1468.410        1144.219
  22832191.293    22832191.6254   22832192.9344  119983967.551 7  93494012.97344
     -2742.727       -2137.186
 08  5  5 13 51  0.0000000  0 12G 2G 6G 7G 8G10G13G16G21G24G25G27G29
  24464108.304    24464108.0304   24464105.9614  128559729.308 5 100176421.77141
     -4132.968       -3220.452
  23326167.414    23326167.2154   23326169.5064  122579851.342 6  95516783.60243
      2244.376        1748.883
  22418910.971    22418911.3494   22418911.9434  117812197.698 7  91801734.21944
      1360.401        1060.050
  24563246.156    24563244.2584   24563246.5334  129080741.515 5 100582428.30942
      3486.608        2716.816
  21093160.639    21093159.9794   21093162.2854  110845306.224 8  86372985.46446
      -343.875        -267.955
  22849706.992    22849706.7514   22849707.5364  120076003.913 6  93565731.43343
     -3192.316       -2487.523
  22418213.871    22418213.3854   22418214.1884  117808521.205 7  91798853.09944
     -1010.975        -787.764
  23632008.668    23632008.5214   23632009.4004  124187036.144 6  96769152.56143
      2940.276        2291.105
  21531019.796    21531019.4954   21531021.8494  113146269.689 8  88165944.97346
       312.948         243.856
  22438823.425    22438823.1414   22438824.4294  117916811.263 7  91883247.41745
      -436.323        -340.002
  22943555.925    22943555.9184   22943557.4924  120569227.208 6  93950060.53444
      1452.434        1131.770
  22847892.161    22847892.0844   22847892.5364  120066473.381 7  93558303.20544
     -2757.821       -2148.950
 08  5  5 13 51 30.0000000  0 12G 2G 6G 7G 8G10G13G16G21G24G25G27G29
  24487716.408    24487717.7514   24487715.2744  128683801.545 5 100273101.43241
     -4139.063       -3225.248
  23313395.534    23313395.7634   23313397.4854  122512734.057 6  95464484.44843
      2229.729        1737.443
  22411200.289    22411200.4594   22411201.4454  117771676.505 7  91770159.35144
      1340.691        1044.675
  24543361.137    24543360.0024   24543362.4384  128976249.368 5 100501006.02342
      3479.276        2711.106
  21095185.495    21095184.8684   21095187.1114  110855946.416 8  86381276.49646
      -365.799        -285.056
  22867970.824    22867971.2954   22867972.5284  120171984.170 6  93640521.24743
     -3206.674       -2498.726
  22424044.475    22424043.6694   22424045.1524  117839160.101 7  91822727.54944
     -1031.969        -804.142
  23615251.295    23615251.2234   23615251.0984  124098973.213 6  96700532.11343
      2930.280        2283.357
  21529288.906    21529288.8314   21529291.2164  113137175.136 8  88158858.32046
       292.972         228.279
  22441370.104    22441369.8584   22441371.6714  117930194.157 7  91893675.41345
      -456.197        -355.485
  22935308.401    22935307.9954   22935310.0274  120525886.275 7  93916288.35244
      1436.407        1119.264
  22863677.293    22863677.5764   22863678.6724  120149427.421 7  93622942.70044
     -2773.026       -2160.833
 08  5  5 13 52  0.0000000  0 11G 6G 7G 8G10G13G16G21G24G25G27G29
  23300704.443    23300704.8504   23300706.0114  122446042.555 6  95412517.00143
      2215.660        1726.509
  22403600.362    22403600.7334   22403601.1754  117731740.510 7  91739040.47544
      1321.265        1029.551
  24523518.504    24523517.0374   24523519.7254  128871976.037 5 100419754.19342
      3471.801        2705.368
  21097333.361    21097332.8054   21097335.0084  110867234.870 8  86390072.76546
      -387.254        -301.753
  22886316.800    22886316.8994   22886317.6394  120268389.839 6  93715642.62943
     -3220.855       -2509.762
  22429991.704    22429991.5094   22429992.6414  117870415.629 7  91847082.51544
     -1052.319        -819.988
  23598547.664    23598548.1734   23598548.5954  124011197.240 6  96632135.24143
      2920.744        2275.856
  21527670.370    21527670.1994   21527672.4924  113128669.444 8  88152230.51746
       273.411         213.045
  22444029.086    22444029.0654   22444030.4354  117944166.729 7  91904563.10245
      -475.704        -370.691
  22927150.511    22927150.3924   22927151.9784  120483015.747 7  93882882.74244
      1420.954        1107.246
  22879547.010    22879547.1024   22879548.0844  120232822.065 6  93687925.50644
     -2787.276       -2171.897
 08  5  5 13 52 30.0000000  0 11G 6G 7G 8G10G13G16G21G24G25G27G29
  23288095.853    23288095.8304   23288097.6554  122379781.324 6  95360884.86243
      2200.840        1714.972
  22396113.125    22396113.1004   22396113.6334  117692393.485 7  91708380.51844
      1301.144        1013.879
  24503718.162    24503717.8754   24503719.1544  128767926.431 6 100338676.66042
      3463.917        2699.148
  21099605.226    21099604.3944   21099606.5804  110879172.410 8  86399374.76946
      -409.283        -318.916
  22904742.767    22904742.5724   22904743.9164  120365220.209 6  93791094.93243
     -3235.213       -2520.941
  22436057.376    22436056.6854   22436057.2214  117902288.811 7  91871918.77544
     -1073.243        -836.285
  23581900.167    23581900.0294   23581899.8264  123923712.769 6  96563965.56043
      2910.687        2268.112
  21526164.272    21526164.2254   21526166.4584  113120754.999 8  88146063.43046
       253.398         197.463
  22446800.421    22446800.1944   22446801.6974  117958730.330 7  91915911.46245
      -495.818        -386.335
  22919083.045    22919082.5794   22919084.0504  120440619.237 7  93849846.48044
      1404.749        1094.609
  22895500.344    22895500.2134   22895501.6644  120316657.143 6  93753251.51144
     -2802.139       -2183.468
 08  5  5 13 53  0.0000000  0 11G 6G 7G 8G10G13G16G21G24G25G27G29
  23275571.099    23275571.3594   23275573.2434  122313967.039 6  95309600.98043
      2186.203        1703.552
  22388740.816    22388740.6254   22388741.2634  117653651.579 7  91678192.07144
      1281.044         998.215
  24483962.902    24483964.0344   24483966.6694  128664117.691 5 100257786.86242
      3455.894        2692.883
  21102003.372    21102002.6434   21102004.6914  110891774.546 8  86409194.63246
      -431.326        -336.109
  22923251.830    22923251.3674   22923252.7674  120462486.790 6  93866887.08143
     -3249.672       -2532.202
  22442242.360    22442242.2184   22442243.3244  117934793.274 7  91897246.92944
     -1094.213        -852.630
  23565311.049    23565311.2054   23565310.7454  123836536.682 6  96496036.15343
      2900.420        2260.074
  21524773.931    21524773.6064   21524775.8234  113113447.149 8  88140369.01446
       233.224         181.729
  22449686.735    22449686.7684   22449688.2894  117973898.972 7  91927731.28345
      -515.909        -401.990
  22911108.095    22911107.8004   22911109.5054  120398712.526 7  93817191.87144
      1388.346        1081.832
  22911539.568    22911539.6064   22911540.9944  120400944.844 6  93818930.20044
     -2817.304       -2195.324
 08  5  5 13 53 30.0000000  0 11G 6G 7G 8G10G13G16G21G24G25G27G29
  23263131.159    23263130.8704   23263133.0414  122248594.194 6  95258661.10543
      2171.767        1692.281
  22381482.487    22381482.8314   22381482.9154  117615508.735 7  91648470.38844
      1261.683         983.124
  24464253.068    24464253.9754   24464257.0044  128560544.888 6 100177080.81642
      3448.734        2687.311
  21104526.231    21104525.5804   21104527.5934  110905032.251 8  86419525.33246
      -452.633        -352.704
  22941841.651    22941842.2274   22941843.2384  120560179.226 6  93943011.13643
     -3263.254       -2542.811
  22448546.376    22448545.8724   22448547.3374  117967920.362 7  91923060.19244
     -1114.510        -868.461
  23548779.716    23548778.9684   23548778.7734  123749663.755 6  96428342.98843
      2890.917        2252.666
  21523497.313    21523496.9214   21523499.1684  113106738.234 8  88135141.30046
       213.780         166.594
  22452686.692    22452686.7494   22452688.5104  117989664.527 7  91940016.13345
      -535.171        -416.999
  22903226.022    22903225.4644   22903227.2064  120357289.417 7  93784914.11444
      1372.997        1069.858
  22927663.235    22927663.3194   22927664.8334  120485675.337 6  93884953.93944
     -2831.339       -2206.238
 08  5  5 13 54  0.0000000  0 11G 6G 7G 8G10G13G16G21G24G25G27G29
  23250773.402    23250773.0034   23250775.4854  122183652.266 6  95208056.98943
      2156.867        1680.655
  22374335.669    22374335.9984   22374336.9194  117577953.952 7  91619206.91444
      1241.437         967.322
  24444589.362    24444587.5314   24444590.6534  128457198.724 6 100096551.40942
      3439.921        2680.409
  21107171.533    21107170.6804   21107172.8014  110918932.978 8  86430357.05246
      -474.721        -369.926
  22960509.696    22960510.2504   22960511.6694  120658282.228 6  94019455.04943
     -3277.509       -2553.905
  22454966.378    22454966.0804   22454966.5324  118001656.546 7  91949348.11144
     -1135.362        -884.708
  23532304.280    23532303.9424   23532304.0104  123663083.715 6  96360878.03743
      2880.438        2244.468
  21522332.043    21522331.8914   21522334.1544  113100616.192 8  88130370.87746
       193.622         150.859
  22455797.905    22455798.1784   22455799.5114  118006014.139 7  91952756.08545
      -555.364        -432.775
  22895433.671    22895432.8834   22895434.8264  120316338.984 7  93753004.66444
      1356.364        1056.883
  22943867.969    22943868.4694   22943870.1464  120570833.749 6  93951311.13744
     -2846.361       -2217.965
 08  5  5 13 54 30.0000000  0 11G 6G 7G 8G10G13G16G21G24G25G27G29
  23238499.038    23238498.5934   23238501.2704  122119149.878 6  95157795.39143
      2142.710        1669.649
  22367302.814    22367302.9164   22367303.4014  117540995.277 7  91590407.92644
      1221.840         952.093
  24424966.096    24424966.4804   24424969.6604  128354088.001 5 100016205.37142
      3432.877        2674.963
  21109940.031    21109939.4044   21109941.4664  110933482.701 8  86441694.46946
      -496.043        -386.526
  22979257.169    22979257.1424   22979258.8274  120756799.206 6  94096221.46443
     -3290.914       -2564.353
  22461502.831    22461502.4264   22461503.7814  118036007.020 7  91976114.70444
     -1155.490        -900.370
  23515886.829    23515885.6844   23515885.9684  123576804.914 6  96293647.81343
      2870.610        2236.809
  21521280.167    21521279.7604   21521282.0864  113095087.646 8  88126062.89846
       174.153         135.700
  22459021.390    22459021.1714   22459022.7294  118022953.796 7  91965955.89145
      -574.674        -447.786
  22887732.068    22887731.3954   22887733.4644  120275868.756 6  93721469.39844
      1340.818        1044.792
  22960155.615    22960155.9154   22960157.0804  120656423.825 6  94018004.70744
     -2860.287       -2228.791
 08  5  5 13 55  0.0000000  0 11G 6G 7G 8G10G13G16G21G24G25G27G29
  23226310.975    23226311.0884   23226313.6604  122055103.050 6  95107888.79743
      2127.236        1657.565
  22360386.318    22360386.5454   22360386.9354  117504648.080 7  91562085.39944
      1201.215         936.010
  24405393.686    24405393.1204   24405396.0334  128251229.722 6  99936056.09342
      3424.426        2668.365
  21112834.915    21112834.2354   21112836.0754  110948694.661 8  86453547.96046
      -518.217        -403.795
  22998086.016    22998085.8784   22998086.9874  120855741.335 6  94173319.08743
     -3305.167       -2575.436
  22468159.081    22468158.6004   22468159.6664  118070985.121 7  92003370.34544
     -1176.410        -916.685
  23499527.658    23499526.7774   23499528.0094  123490844.246 6  96226665.50243
      2860.057        2228.634
  21520343.658    21520343.3444   21520345.7894  113090166.760 8  88122228.42746
       153.793         119.848
  22462359.965    22462359.5554   22462360.7734  118040496.959 7  91979625.94645
      -594.938        -463.606
  22880125.357    22880124.9594   22880126.6864  120235894.141 7  93690320.33344
      1324.010        1031.699
  22976527.048    22976527.4194   22976528.6454  120742457.006 6  94085043.57744
     -2875.273       -2240.478
 08  5  5 13 55 30.0000000  0 11G 6G 7G 8G10G13G16G21G24G25G27G29
  23214207.008    23214208.1914   23214208.8744  121991499.356 6  95058327.50043
      2111.906        1645.614
  22353583.412    22353583.5104   22353584.3004  117468899.459 7  91534229.31644
      1181.070         920.290
  24385865.294    24385866.3464   24385867.8144  128148612.285 5  99856094.53342
      3416.022        2661.844
  21115852.678    21115852.1644   21115854.0684  110964554.298 8  86465906.12246
      -540.029        -420.814
  23016991.323    23016991.0044   23016992.6194  120955091.339 6  94250734.63842
     -3319.148       -2586.356
  22474931.760    22474931.1764   22474931.9904  118106574.652 7  92031102.45544
     -1197.058        -932.788
  23483228.250    23483228.1054   23483228.1784  123405189.263 6  96159921.38143
      2849.457        2220.334
  21519520.169    21519520.1144   21519522.2414  113085839.528 8  88118856.53546
       133.723         104.193
  22465810.178    22465810.3164   22465811.5034  118058628.681 7  91993754.64145
      -614.821        -479.100
  22872610.018    22872609.8894   22872611.7584  120196401.861 7  93659547.10144
      1307.828        1019.102
  22992980.217    22992979.8524   22992981.2224  120828916.453 6  94152414.58744
     -2889.607       -2251.632
 08  5  5 13 56  0.0000000  0 11G 6G 7G 8G10G13G16G21G24G25G27G29
  23202189.326    23202189.4234   23202191.3954  121928340.684 6  95009112.95743
      2097.340        1634.324
  22346894.600    22346895.2864   22346895.7424  117433750.531 7  91506840.52945
      1161.130         904.786
  24366384.910    24366383.6994   24366387.2154  128046238.513 5  99776322.94342
      3407.851        2655.473
  21118994.078    21118993.2504   21118995.0644  110981060.845 8  86478768.37246
      -561.524        -437.551
  23035974.020    23035973.2414   23035975.6464  121054846.719 6  94328466.12142
     -3332.556       -2596.781
  22481819.839    22481819.9474   22481820.6374  118142774.262 7  92059309.93044
     -1217.354        -948.577
  23466987.232    23466987.1324   23466987.3314  123319841.314 6  96093416.50343
      2839.310        2212.438
  21518809.787    21518809.8004   21518812.0174  113082106.271 8  88115947.50346
       113.948          88.794
  22469372.529    22469372.2124   22469373.6974  118077347.942 7  92008341.05745
      -634.336        -494.279
  22865187.167    22865186.8294   22865188.9244  120157393.529 7  93629150.97344
      1291.620        1006.465
  23009513.484    23009513.7214   23009514.4354  120915800.001 6  94220116.05244
     -2903.594       -2262.533
 08  5  5 13 56 30.0000000  0 11G 6G 7G 8G10G13G16G21G24G25G27G29
  23190257.195    23190257.0484   23190259.0324  121865637.856 6  94960253.62143
      2081.538        1621.962
  22340322.494    22340322.4874   22340323.3674  117399211.445 7  91479926.93244
      1140.009         888.334
  24346952.347    24346951.4684   24346954.3184  127944119.200 5  99696749.57842
      3398.725        2648.351
  21122259.569    21122258.9934   21122260.9744  110998222.112 8  86492140.81346
      -583.995        -455.065
  23055035.714    23055034.8914   23055036.5944  121155013.112 6  94406517.87242
     -3346.750       -2607.881
  22488826.199    22488825.9524   22488826.5094  118179591.648 7  92087998.80144
     -1238.494        -965.068
  23450806.344    23450806.7274   23450806.7734  123234811.981 6  96027159.90743
      2828.020        2203.631
  21518214.160    21518213.9374   21518216.3114  113078975.795 8  88113508.17446
        93.431          72.802
  22473047.988    22473047.7714   22473048.8744  118096662.892 7  92023391.55244
      -654.787        -510.230
  22857857.997    22857857.3944   22857859.5674  120118878.707 7  93599139.39744
      1274.687         993.255
  23026128.151    23026129.0434   23026129.8084  121003113.214 6  94288152.32844
     -2918.726       -2274.316
 08  5  5 13 57  0.0000000  0 11G 6G 7G 8G10G13G16G21G24G25G27G29
  23178410.832    23178410.9464   23178413.0214  121803386.130 6  94911745.80143
      2066.805        1610.494
  22333864.528    22333865.0604   22333865.5594  117365276.863 7  91453484.37345
      1120.627         873.210
  24327566.817    24327567.0074   24327567.9884  127842250.619 5  99617371.49042
      3390.945        2642.233
  21125648.444    21125647.8784   21125649.7354  111016031.115 8  86506017.97946
      -604.831        -471.296
  23074172.727    23074172.0844   23074173.0414  121255580.790 6  94484882.35042
     -3359.409       -2617.742
  22495948.389    22495947.8354   22495948.8184  118217019.174 6  92117163.10244
     -1258.208        -980.417
  23434685.880    23434684.6254   23434685.9894  123150097.037 6  95961148.27843
      2818.223        2196.050
  21517731.865    21517731.5334   21517733.8734  113076441.601 8  88111533.48346
        74.220          57.835
  22476835.539    22476835.0664   22476836.6044  118116566.825 7  92038901.09245
      -673.709        -524.958
  22850621.379    22850621.2934   22850623.0014  120080852.085 7  93569508.23944
      1259.098         981.124
  23042823.837    23042824.0324   23042825.5864  121090847.289 6  94356516.54044
     -2932.026       -2284.690
 08  5  5 13 57 30.0000000  0 11G 6G 7G 8G10G13G16G21G24G25G27G29
  23166650.654    23166650.8734   23166651.9264  121741588.229 6  94863591.61443
      2052.250        1599.158
  22327522.184    22327523.0114   22327523.4814  117331948.777 7  91427514.41645
      1100.676         857.679
  24308230.417    24308230.6034   24308232.9234  127740636.366 5  99538191.54542
      3382.439        2635.613
  21129160.744    21129160.0714   21129162.0164  111034487.988 8  86520399.95046
      -626.117        -487.895
  23093385.786    23093386.1644   23093386.9894  121356547.580 6  94563557.86442
     -3372.211       -2627.729
  22503186.515    22503186.0704   22503186.9544  118255055.833 7  92146802.04944
     -1278.199        -996.003
  23418625.460    23418625.0464   23418625.4804  123065698.719 6  95895383.38243
      2807.934        2187.983
  21517363.316    21517363.0314   21517365.2894  113074504.589 8  88110024.12246
        54.403          42.389
  22480735.298    22480734.8754   22480736.3804  118137059.312 7  92054869.25544
      -693.133        -540.107
  22843478.824    22843478.1814   22843480.4304  120043315.552 7  93540258.99344
      1243.000         968.565
  23059598.636    23059598.7574   23059600.1364  121179000.246 6  94425207.14144
     -2945.685       -2295.346
 08  5  5 13 58  0.0000000  0 11G 6G 7G 8G10G13G16G21G24G25G27G29
  23154979.531    23154979.8144   23154982.2624  121680254.109 6  94815798.80543
      2036.004        1586.519
  22321297.642    22321298.0024   22321298.5214  117299236.604 7  91402024.39245
      1079.567         841.216
  24288943.848    24288944.3194   24288947.1304  127639287.365 5  99459218.31142
      3373.125        2628.381
  21132797.664    21132796.8684   21132798.8084  111053600.041 8  86535292.45546
      -648.477        -505.300
  23112675.946    23112675.3534   23112676.6694  121457918.478 6  94642548.21542
     -3386.210       -2638.637
  22510542.002    22510541.4054   22510542.2344  118293708.274 7  92176920.83044
     -1299.174       -1012.321
  23402627.379    23402626.7564   23402627.1964  122981627.534 6  95829873.39843
      2796.410        2179.033
  21517110.009    21517109.6014   21517111.9934  113073172.821 8  88108986.38546
        33.712          26.262
  22484748.030    22484747.9764   22484749.5004  118158147.860 7  92071301.89744
      -713.518        -555.994
  22836430.816    22836430.6434   22836432.5454  120006278.435 7  93511398.89544
      1225.733         955.127
  23076454.492    23076454.6314   23076456.1344  121267577.604 6  94494228.44844
     -2960.252       -2306.699
 08  5  5 13 58 30.0000000  0 11G 6G 7G 8G10G13G16G21G24G25G27G29
  23143395.612    23143395.7684   23143398.4084  121619381.780 6  94768365.84143
      2021.797        1575.434
  22315189.499    22315189.9844   22315190.7144  117267138.296 7  91377012.72045
      1060.026         825.999
  24269709.074    24269708.1184   24269710.0404  127538201.933 5  99380450.46142
      3365.135        2622.190
  21136558.567    21136557.6144   21136559.5974  111073362.535 8  86550691.80646
      -669.257        -521.497
  23132041.646    23132041.8124   23132043.0474  121559686.831 6  94721848.29442
     -3398.511       -2648.140
  22518013.694    22518013.2414   22518013.9634  118332971.456 6  92207515.50644
     -1318.629       -1027.516
  23386690.383    23386690.2904   23386690.4404  122897881.168 6  95764616.50343
      2786.361        2171.235
  21516970.967    21516970.6144   21516973.1104  113072442.687 8  88108417.45646
        14.487          11.292
  22488873.803    22488873.7144   22488875.1764  118179827.878 7  92088195.42344
      -732.187        -570.538
  22829477.495    22829477.4184   22829479.2774  119969738.011 6  93482925.83544
      1210.098         942.930
  23093389.626    23093389.4634   23093390.9024  121356572.962 6  94563575.45144
     -2973.200       -2316.760
 08  5  5 13 59  0.0000000  0 11G 6G 7G 8G10G13G16G21G24G25G27G29
  23131897.984    23131898.1814   23131900.3354  121558960.020 6  94721283.96243
      2006.257        1563.304
  22309195.968    22309196.1894   22309196.8024  117235640.773 7  91352469.17645
      1039.273         809.821
  24250522.227    24250520.4854   24250522.3554  127437369.726 5  99301879.86442
      3356.537        2615.494
  21140440.281    21140439.3644   21140441.4014  111093761.545 8  86566587.14446
      -691.062        -538.499
  23151479.827    23151480.1954   23151481.2174  121661836.396 6  94801445.39042
     -3411.787       -2658.594
  22525598.891    22525598.2794   22525599.3734  118372831.003 7  92238574.90844
     -1339.030       -1043.411
  23370814.586    23370813.6884   23370814.2744  122814449.814 6  95699605.07643
      2775.281        2162.525
  21516943.888    21516943.7054   21516946.2724  113072301.069 8  88108307.09946
        -5.508          -4.307
  22493108.874    22493109.1924   22493110.5204  118202085.183 7  92105538.76945
      -751.989        -585.947
  22822615.948    22822615.8404   22822617.5504  119933681.958 7  93454830.20744
      1193.178         929.727
  23110401.012    23110401.3244   23110402.9644  121445970.613 6  94633235.94744
     -2986.953       -2327.479
 08  5  5 13 59 30.0000000  0 11G 6G 7G 8G10G13G16G21G24G25G27G29
  23120489.008    23120489.0724   23120491.6844  121499005.129 6  94674565.89243
      1990.557        1551.068
  22303319.151    22303319.6284   22303320.2704  117204760.017 7  91328406.23845
      1018.873         793.937
  24231383.924    24231384.1874   24231386.9414  127336807.949 5  99223520.02942
      3347.110        2608.105
  21144445.674    21144445.0474   21144446.9084  111114810.894 8  86582989.23346
      -712.700        -555.344
  23170993.309    23170993.5664   23170993.8904  121764378.581 6  94881348.39842
     -3424.897       -2668.716
  22533299.430    22533299.2684   22533299.7994  118413299.649 7  92270108.92144
     -1359.240       -1059.145
  23355000.610    23355000.8864   23355000.7734  122731349.594 6  95634851.68543
      2764.156        2153.882
  21517031.753    21517031.3914   21517033.8624  113072761.919 8  88108666.19746
       -25.607         -19.953
  22497456.638    22497457.0124   22497458.0824  118224933.712 7  92123342.79244
      -771.700        -601.337
  22815850.178    22815849.8034   22815851.8084  119898126.066 7  93427124.31544
      1176.681         916.898
  23127491.602    23127491.9564   23127493.9154  121535782.119 6  94703218.93644
     -3000.670       -2338.167
 08  5  5 14  0  0.0000000  0 11G 6G 7G 8G10G13G16G21G24G25G27G29
  23109170.285    23109170.0134   23109172.9414  121439524.637 6  94628217.48243
      1974.721        1538.756
  22297561.871    22297562.0894   22297562.7664  117174503.059 7  91304829.38045
       998.006         777.657
  24212301.341    24212300.4414   24212303.9464  127236525.247 5  99145377.63842
      3337.740        2600.816
  21148576.096    21148575.1264   21148577.2224  111136515.313 8  86599901.78046
      -734.547        -572.382
  23190581.609    23190581.8114   23190582.7964  121867316.002 6  94961559.44542
     -3438.224       -2679.154
  22541117.455    22541117.0184   22541117.5024  118454381.790 7  92302120.96944
     -1379.944       -1075.277
  23339252.260    23339251.4834   23339251.6134  122648588.102 6  95570362.23943
      2753.083        2145.254
  21517235.339    21517235.0654   21517237.5554  113073831.469 8  88109499.62046
       -46.000         -35.842
  22501918.541    22501918.2084   22501919.6304  118248378.154 7  92141611.18344
      -791.646        -616.884
  22809180.397    22809180.0194   22809181.6934  119863076.994 7  93399813.35144
      1159.662         903.643
  23144661.819    23144662.0094   23144663.5954  121626010.901 6  94773527.06744
     -3014.775       -2349.186
 08  5  5 14  0 30.0000000  0 11G 6G 7G 8G10G13G16G21G24G25G27G29
  23097940.506    23097940.1114   23097943.0764  121380511.489 6  94582233.22243
      1958.796        1526.342
  22291921.183    22291921.5204   22291922.4814  117144861.856 7  91281732.32945
       977.589         761.760
  24193269.625    24193269.8804   24193272.1644  127136515.071 5  99067447.63742
      3328.693        2593.768
  21152828.917    21152828.2944   21152830.1244  111158865.348 8  86617317.37946
      -756.087        -589.163
  23210242.787    23210242.9364   23210243.8434  121970636.662 6  95042069.04842
     -3450.805       -2688.963
  22549049.612    22549049.1854   22549049.9984  118496066.854 7  92334602.84044
     -1399.792       -1090.756
  23323565.635    23323565.4534   23323565.4194  122566158.024 6  95506131.02243
      2741.844        2136.476
  21517552.941    21517552.5794   21517555.0144  113075500.747 8  88110800.37146
       -65.889         -51.359
  22506491.068    22506491.2554   22506492.7674  118272408.823 7  92160336.38544
      -811.073        -632.031
  22802605.763    22802605.4724   22802607.1744  119828526.847 7  93372891.15944
      1143.027         890.674
  23161909.189    23161909.3194   23161910.6444  121716645.124 6  94844151.14244
     -3028.076       -2359.575
 08  5  5 14  1  0.0000000  0 11G 6G 7G 8G10G13G16G21G24G25G27G29
  23086801.750    23086801.4594   23086803.2904  121321976.507 6  94536621.56343
      1942.541        1513.675
  22286400.070    22286400.2564   22286400.9294  117115846.967 7  91259123.31645
       956.047         744.976
  24174291.420    24174293.0284   24174295.0994  127036788.952 6  98989738.95242
      3318.596        2585.899
  21157206.498    21157205.7634   21157207.7134  111181869.145 8  86635242.39646
      -778.371        -606.539
  23229978.020    23229978.1884   23229978.7514  122074346.850 6  95122882.22542
     -3464.252       -2699.392
  22557098.594    22557098.2414   22557098.6874  118538362.291 7  92367560.32444
     -1420.717       -1107.046
  23307945.298    23307944.6114   23307945.2254  122484071.308 6  95442167.37343
      2729.733        2127.055
  21517985.965    21517985.8864   21517988.3014  113077778.388 8  88112575.16746
       -86.686         -67.549
  22511177.487    22511177.1924   22511178.5674  118297033.819 7  92179524.69844
      -831.431        -647.855
  22796128.064    22796127.7254   22796129.3534  119794485.867 7  93346365.71844
      1125.550         877.034
  23179234.541    23179234.5274   23179236.4934  121807690.813 6  94915095.83844
     -3042.319       -2370.636
 08  5  5 14  1 30.0000000  0 11G 6G 7G 8G10G13G16G21G24G25G27G29
  23075754.009    23075754.2104   23075756.0834  121263921.391 6  94491383.82043
      1927.189        1501.681
  22280997.575    22280997.9154   22280998.7654  117087459.091 7  91237002.88645
       935.938         729.303
  24155370.943    24155368.8744   24155371.3794  126937349.520 6  98912253.63842
      3309.853        2579.107
  21161708.435    21161707.3084   21161709.3914  111205525.468 8  86653675.88746
      -799.374        -622.897
  23249787.724    23249787.3664   23249788.8944  122178443.504 6  95203996.54242
     -3476.100       -2708.690
  22565262.573    22565262.3674   22565263.1324  118581266.693 7  92400992.32144
     -1440.194       -1122.251
  23292390.071    23292389.7314   23292390.3904  122402329.558 6  95378472.50543
      2719.071        2118.751
  21518535.216    21518535.0344   21518537.5274  113080664.380 8  88114824.00746
      -106.270         -82.808
  22515976.064    22515976.1384   22515977.2084  118322252.140 7  92199175.32344
      -850.369        -662.628
  22789747.464    22789746.8834   22789748.6834  119760954.806 7  93320237.60544
      1109.304         864.402
  23196637.598    23196637.4784   23196639.2714  121899145.622 6  94986359.33044
     -3055.206       -2380.677
 08  5  5 14  2  0.0000000  0 11G 6G 7G 8G10G13G16G21G24G25G27G29
  23064795.648    23064795.8984   23064798.5984  121206337.702 6  94446513.42243
      1911.778        1489.717
  22275713.285    22275713.6094   22275714.2254  117059688.680 7  91215363.60545
       915.574         713.442
  24136501.142    24136500.8464   24136502.6264  126838189.284 5  98834985.92842
      3300.566        2571.914
  21166331.796    21166330.9074   21166333.0304  111229822.926 8  86672608.96946
      -820.432        -639.289
  23269666.583    23269666.8164   23269668.5804  122282913.018 6  95285401.32942
     -3488.477       -2718.283
  22573540.217    22573540.1884   22573540.9404  118624768.113 7  92434889.53244
     -1459.842       -1137.525
  23276899.304    23276899.1764   23276899.2324  122320924.969 7  95315040.36043
      2707.832        2110.008
  21519198.236    21519197.8554   21519200.5234  113084148.109 8  88117538.61946
      -125.950         -98.137
  22520885.527    22520885.6324   22520887.2674  118348052.593 7  92219279.56944
      -869.610        -677.612
  22783461.578    22783461.5384   22783463.1824  119727924.149 7  93294499.42744
      1092.797         851.538
  23214116.504    23214115.9384   23214118.3594  121990996.425 6  95057931.37044
     -3068.394       -2390.960
 08  5  5 14  2 30.0000000  0 11G 6G 7G 8G10G13G16G21G24G25G27G29
  23053928.734    23053928.6614   23053930.9534  121149229.334 6  94402013.40743
      1895.481        1476.996
  22270546.873    22270547.4574   22270547.8244  117032539.277 7  91194208.22645
       894.542         697.054
  24117684.538    24117684.4824   24117688.2344  126739312.998 5  98757939.46342
      3291.271        2564.655
  21171077.719    21171077.0454   21171078.9704  111254762.937 8  86692042.76046
      -842.121        -656.202
  23289617.872    23289617.2874   23289618.6834  122387754.672 6  95367096.08142
     -3500.988       -2728.048
  22581932.308    22581932.1434   22581933.4934  118668867.121 7  92469252.39044
     -1479.974       -1153.227
  23261474.300    23261473.2934   23261473.9474  122239861.421 6  95251873.91443
      2696.410        2101.089
  21519975.267    21519975.0244   21519977.4834  113088231.664 8  88120720.63746
      -146.236        -113.952
  22525906.432    22525906.5254   22525907.7584  118374436.528 7  92239838.48444
      -889.189        -692.888
  22777271.889    22777271.8154   22777273.5524  119695397.542 7  93269154.02144
      1075.775         838.262
  23231669.732    23231670.2004   23231672.0794  122083242.871 6  95129811.70144
     -3081.669       -2401.286
 08  5  5 14  3  0.0000000  0 11G 6G 7G 8G10G13G16G21G24G25G27G29
  23043155.675    23043154.9604   23043157.4524  121092613.006 6  94357896.76343
      1878.719        1463.943
  22265501.816    22265502.0264   22265502.6994  117006026.811 7  91173549.16645
       872.867         680.154
  24098926.509    24098927.2154   24098930.1434  126640738.462 5  98681128.11342
      3280.576        2556.275
  21175948.735    21175947.9424   21175949.8374  111280359.675 7  86711988.24346
      -864.334        -673.499
  23309642.219    23309642.0124   23309643.4694  122492980.370 6  95449090.08842
     -3514.171       -2738.338
  22590440.493    22590440.1394   22590441.3794  118713577.033 7  92504091.27844
     -1500.658       -1169.323
  23246116.376    23246115.6214   23246115.6464  122159156.069 6  95188986.65743
      2684.054        2091.489
  21520869.365    21520869.0984   21520871.5524  113092929.979 7  88124381.67946
      -167.113        -130.210
  22531040.934    22531040.7504   22531042.0014  118401417.697 7  92260862.76344
      -909.524        -708.714
  22771181.124    22771181.2594   22771182.9904  119663390.643 7  93244213.58244
      1057.933         824.370
  23249301.865    23249301.6984   23249303.5554  122175897.021 6  95202009.73444
     -3095.278       -2411.905
 08  5  5 14  3 30.0000000  0 11G 6G 7G 8G10G13G16G21G24G25G27G29
  23032472.411    23032472.2434   23032474.3544  121036471.864 6  94314150.39543
      1863.264        1451.886
  22260574.455    22260574.6534   22260575.4814  116980133.360 7  91153372.45445
       852.648         664.410
  24080223.823    24080222.6884   24080225.6894  126542449.203 5  98604539.05542
      3271.533        2549.269
  21180940.713    21180939.9394   21180941.9894  111306593.443 8  86732430.14146
      -885.174        -689.745
  23329733.940    23329734.2654   23329734.6084  122598568.539 6  95531366.51742
     -3525.738       -2747.311
  22599060.672    22599060.3884   22599061.1914  118758877.452 7  92539390.31744
     -1519.985       -1184.366
  23230822.653    23230822.6394   23230822.5584  122078792.137 6  95126365.41943
      2673.064        2082.909
  21521876.800    21521876.5484   21521879.0444  113098224.266 8  88128507.10746
      -186.523        -145.344
  22536285.099    22536284.8644   22536286.4244  118428976.496 7  92282337.14744
      -928.436        -723.451
  22765186.043    22765185.8804   22765187.7014  119631885.491 7  93219664.12144
      1041.732         811.733
  23267006.988    23267007.2314   23267008.6264  122268937.767 6  95274509.01744
     -3107.734       -2421.618
 08  5  5 14  4  0.0000000  0 11G 6G 7G 8G10G13G16G21G24G25G27G29
  23021882.929    23021882.8054   23021884.8834  120980825.938 6  94270789.91743
      1846.921        1439.147
  22255768.814    22255769.1514   22255769.3794  116954878.415 7  91133693.28145
       831.539         647.930
  24061578.795    24061577.4794   24061581.3594  126444466.429 6  98528188.82142
      3261.322        2541.291
  21186057.132    21186056.6304   21186058.7524  111333481.577 8  86753381.95846
      -906.894        -706.674
  23349898.322    23349898.6794   23349899.9904  122704534.258 6  95613937.14542
     -3538.163       -2756.982
  22607796.416    22607796.0884   22607797.2074  118804785.010 7  92575162.45344
     -1540.097       -1200.078
  23215599.565    23215598.8904   23215599.2814  121998790.151 6  95064026.23343
      2660.938        2073.452
  21523000.942    21523000.8034   21523003.3674  113104132.509 8  88133110.94046
      -206.867        -161.208
  22541642.646    22541642.3174   22541644.0594  118457130.263 7  92304275.14544
      -948.017        -738.723
  22759290.315    22759289.6484   22759291.6714  119600901.336 7  93195520.62644
      1024.485         798.302
  23284788.205    23284788.5134   23284790.1564  122362380.343 6  95347321.41244
     -3121.129       -2432.062
 08  5  5 14  4 30.0000000  0 11G 6G 7G 8G10G13G16G21G24G25G27G29
  23011385.443    23011386.1824   23011387.7244  120925662.863 6  94227805.69943
      1830.574        1426.413
  22251081.554    22251081.9194   22251082.6574  116930248.636 7  91114501.24845
       810.411         631.490
  24042988.152    24042987.4184   24042991.1634  126346778.761 6  98452068.51542
      3251.017        2533.231
  21191295.496    21191294.8694   21191296.6264  111361008.877 8  86774831.84746
      -928.443        -723.467
  23370131.796    23370132.7214   23370133.2644  122810860.562 5  95696788.80542
     -3550.317       -2766.464
  22616645.410    22616644.8934   22616645.7964  118851284.345 7  92611395.73144
     -1559.891       -1215.513
  23200442.448    23200441.2654   23200441.9734  121919138.277 6  95001959.86943
      2649.061        2064.210
  21524239.402    21524239.0644   21524241.6594  113110640.317 8  88138181.97346
      -227.046        -176.925
  22547110.406    22547110.3094   22547111.8424  118485864.018 7  92326665.10444
      -967.597        -753.971
  22753490.535    22753490.2804   22753492.3234  119570425.298 7  93171773.07344
      1007.179         784.784
  23302642.881    23302643.3694   23302645.0574  122456208.096 6  95420433.96144
     -3134.184       -2442.245
 08  5  5 14  5  0.0000000  0 11G 6G 7G 8G10G13G16G21G24G25G27G29
  23000982.106    23000981.6404   23000983.9284  120870990.877 6  94185204.15843
      1813.996        1413.518
  22246515.364    22246515.2394   22246516.2424  116906251.418 7  91095802.11345
       789.473         615.194
  24024456.632    24024456.8274   24024459.4394  126249395.251 5  98376185.25442
      3241.076        2525.544
  21196656.292    21196655.8214   21196657.8004  111389180.398 8  86796783.69546
      -949.719        -740.030
  23390434.632    23390435.1984   23390436.2584  122917550.743 6  95779923.98142
     -3562.093       -2775.688
  22625606.842    22625606.3494   22625607.4254  118898379.636 7  92648093.37444
     -1579.809       -1231.013
  23185352.469    23185352.2444   23185353.3384  121839844.981 7  94940172.90943
      2637.113        2054.912
  21525593.222    21525593.1184   21525595.4274  113117754.063 8  88143725.15946
      -247.211        -192.627
  22552689.784    22552689.2474   22552690.9534  118515182.976 7  92349511.03944
      -986.977        -769.054
  22747788.709    22747788.6704   22747790.8474  119540464.762 7  93148427.20344
       990.135         771.553
  23320571.970    23320572.5094   23320573.7394  122550424.669 6  95493849.45844
     -3146.886       -2452.107
 08  5  5 14  5 30.0000000  0 11G 6G 7G 8G10G13G16G21G24G25G27G29
  22990671.773    22990671.8294   22990673.8974  120816811.634 6  94142986.60743
      1797.540        1400.712
  22242069.031    22242069.5154   22242070.0354  116882887.664 7  91077596.59745
       768.040         598.482
  24005983.502    24005983.9624   24005985.9824  126152318.332 5  98300540.92642
      3230.592        2517.342
  21202140.130    21202139.0374   21202141.0534  111417995.740 8  86819237.20346
      -971.362        -756.907
  23410805.658    23410806.0554   23410805.1604  123024601.922 6  95863340.45642
     -3574.623       -2785.412
  22634682.233    22634681.7944   22634682.9574  118946069.781 7  92685254.53344
     -1599.804       -1246.588
  23170332.903    23170332.0594   23170332.1044  121760912.436 6  94878667.03843
      2624.899        2045.383
  21527062.333    21527061.9914   21527064.4024  113125473.565 8  88149740.36646
      -267.571        -208.500
  22558379.929    22558379.8434   22558381.4104  118545086.259 7  92372812.33044
     -1006.682        -784.429
  22742186.202    22742185.5254   22742188.0704  119511020.489 7  93125483.62144
       972.554         757.847
  23338573.980    23338574.3914   23338576.0474  122645027.555 6  95567565.98344
     -3159.956       -2462.296
 08  5  5 14  6  0.0000000  0 11G 6G 7G 8G10G13G16G21G24G25G27G29
  22980453.879    22980453.5954   22980456.2894  120763114.784 6  94101144.89643
      1782.103        1388.625
  22237741.551    22237742.0074   22237742.4504  116860146.130 7  91059875.91845
       748.023         582.867
  23987567.768    23987567.4344   23987569.9014  126055538.299 5  98225127.91042
      3221.405        2510.192
  21207742.919    21207742.1794   21207744.2534  111447440.509 8  86842181.11246
      -991.763        -772.807
  23431243.201    23431243.3694   23431243.8124  123131998.775 6  95947026.29542
     -3585.463       -2793.873
  22643867.583    22643867.5124   22643868.6414  118994340.456 7  92722868.05444
     -1618.443       -1261.103
  23155378.787    23155378.4494   23155378.5554  121682330.326 7  94817434.21343
      2613.848        2036.775
  21528644.044    21528643.7484   21528646.1674  113133786.052 7  88156217.63746
      -286.805        -223.490
  22564179.105    22564178.7444   22564180.4834  118575560.306 7  92396558.36344
     -1024.969        -798.697
  22736678.794    22736678.7744   22736680.8824  119482081.060 7  93102933.41644
       956.528         745.352
  23356647.359    23356647.2884   23356648.9984  122740001.410 6  95641571.57344
     -3171.672       -2471.438
 08  5  5 14  6 30.0000000  0 12G 6G 7G 8G10G13G16G21G24G25G26G27G29
  22970328.318    22970328.3164   22970330.5494  120709904.077 6  94059682.02143
      1764.780        1375.128
  22233533.182    22233533.3734   22233534.1964  116838029.821 7  91042642.42545
       725.919         565.642
  23969208.962    23969207.6384   23969210.3824  125959060.713 6  98149950.57142
      3210.132        2501.366
  21213466.557    21213465.7744   21213467.6434  111477516.800 8  86865617.16946
     -1013.812        -789.981
  23451746.132    23451746.4244   23451747.1594  123239740.585 6  96030980.93242
     -3598.010       -2803.709
  22653164.043    22653163.7654   22653164.6154  119043192.469 7  92760934.56544
     -1638.827       -1277.019
  23140492.265    23140492.3564   23140492.7994  121604103.017 6  94756477.82743
      2600.882        2026.668
  21530339.225    21530338.7024   21530341.1594  113142694.047 8  88163158.94046
      -307.599        -239.689
  22570087.038    22570086.9344   22570088.3974  118606606.678 7  92420750.37244
     -1045.267        -814.516
  24301566.277                                   127705592.249 5
      4075.329
  22731268.890    22731268.3724   22731270.5924  119453649.716 7  93080779.13144
       938.491         731.271
  23374791.282    23374791.5384   23374792.7284  122835346.301 6  95715866.28344
     -3184.977       -2481.778
 08  5  5 14  7  0.0000000  0 13G 3G 6G 7G 8G10G13G16G21G24G25G26G27
                                G29
  24472310.109    24472309.3694   24472311.6154  128602853.567 5 100210035.28741
      3298.000        2569.831
  22960298.847    22960298.1104   22960300.1314  120657198.162 6  94018612.53343
      1748.076        1362.136
  22229446.710    22229447.2124   22229447.8424  116816556.435 7  91025909.90045
       704.772         549.161
  23950910.606    23950910.4414   23950912.3484  125862904.407 5  98075023.58142
      3199.542        2493.167
  21219313.091    21219312.1664   21219314.1554  111508240.613 8  86889557.86046
     -1035.164        -806.630
  23472316.224    23472316.3634   23472318.4274  123347840.955 5  96115214.96142
     -3609.481       -2812.571
  22662573.679    22662573.3694   22662574.2414  119092640.481 7  92799465.49244
     -1658.501       -1292.347
  23125677.826    23125677.1154   23125677.1394  121526248.912 6  94695812.27543
      2588.637        2017.098
  21532150.415    21532150.2384   21532152.8104  113152213.644 8  88170576.81646
      -327.761        -255.399
  22576106.985    22576106.8084   22576107.7924  118638240.662 7  92445400.25144
     -1064.384        -829.380
  24278311.568                                   127583416.649 4
      4069.293
  22725958.699    22725958.1054   22725960.1714  119425744.063 7  93059034.46944
       921.246         717.863
  23393008.362    23393008.0624   23393009.7224  122931075.785 6  95790460.69044
     -3197.644       -2491.682
 08  5  5 14  7 30.0000000  0 13G 3G 6G 7G 8G10G13G16G21G24G25G26G27
                                G29
  24453505.676    24453506.4224   24453508.4604  128504038.699 5 100133036.69242
      3289.649        2563.322
  22950362.858    22950362.6624   22950365.1334  120604987.310 6  93977928.80343
      1732.373        1349.901
  22225481.120    22225481.4364   22225481.9104  116795715.524 7  91009670.22245
       684.479         533.349
  23932671.034    23932671.7604   23932674.2104  125767060.814 6  98000340.24342
      3190.130        2485.821
  21225279.960    21225279.3064   21225281.1854  111539598.474 8  86913992.59646
     -1055.515        -822.490
  23492952.230    23492952.5994   23492954.0874  123456285.646 6  96199717.27642
     -3620.122       -2820.842
  22672094.198    22672094.1014   22672094.7314  119142671.710 6  92838450.87144
     -1677.076       -1306.798
  23110932.132    23110931.5374   23110931.7724  121448759.635 7  94635431.04443
      2577.181        2008.186
  21534076.469    21534076.1574   21534078.3834  113162333.228 8  88178462.22346
      -347.018        -270.411
  22582235.991    22582235.7894   22582237.2204  118670450.087 7  92470498.54144
     -1082.909        -843.825
  24255095.942                                   127461425.940 5
      4063.487
  22720746.429    22720746.0984   22720747.9264  119398353.730 7  93037691.35944
       904.911         705.128
  23411295.400    23411295.5774   23411296.8784  123027176.101 6  95865344.04944
     -3209.199       -2500.671
 08  5  5 14  8  0.0000000  0 13G 3G 6G 7G 8G10G13G16G21G24G25G26G27
                                G29
  24434756.287    24434756.5484   24434759.3614  128405507.509 5 100056259.14742
      3279.856        2555.683
  22940522.783    22940522.3864   22940524.6914  120553275.858 6  93937634.21843
      1715.628        1336.856
  22221635.934    22221636.1114   22221636.9204  116775510.115 7  90993925.73945
       663.198         516.787
  23914493.925    23914493.8284   23914495.7384  125671535.382 5  97925904.84242
      3179.129        2477.293
  21231368.478    21231367.6814   21231369.6834  111571592.367 8  86938922.90246
     -1076.755        -839.014
  23513655.027    23513654.6274   23513656.0684  123565074.083 6  96284487.43842
     -3631.390       -2829.662
  22681726.076    22681725.8184   22681726.5414  119193286.939 7  92877891.30344
     -1696.521       -1321.947
  23096256.421    23096256.0244   23096256.8154  121371639.266 7  94575337.31643
      2564.730        1998.481
  21536116.811    21536116.3994   21536118.8604  113173055.010 8  88186816.87146
      -367.138        -286.066
  22588474.850    22588474.7414   22588476.1884  118703236.391 7  92496046.35744
     -1102.260        -858.899
  24231919.200                                   127339625.285 5
      4056.872
  22715632.731    22715632.2854   22715634.3944  119371481.876 7  93016752.24744
       887.412         691.504
  23429652.692    23429652.8904   23429654.6074  123123646.936 6  95940516.11144
     -3221.498       -2510.262
 08  5  5 14  8 30.0000000  0 13G 3G 6G 7G 8G10G13G16G21G24G25G26G27
                                G29
  24416061.159    24416061.4594   24416063.6874  128307264.438 5  99979706.12842
      3269.540        2547.729
  22930778.307    22930778.0034   22930779.9404  120502067.616 6  93897731.73943
      1698.191        1323.253
  22217912.407    22217912.7484   22217913.6154  116755943.502 7  90978679.01645
       641.324         499.720
  23896377.474    23896377.3134   23896380.1324  125576333.165 6  97851721.32942
      3167.860        2468.447
  21237577.922    21237577.0774   21237578.9554  111604223.386 8  86964349.69346
     -1098.708        -856.145
  23534421.040    23534422.0844   23534423.0894  123674205.588 6  96369524.94942
     -3643.802       -2839.306
  22691468.618    22691468.7554   22691469.4344  119244486.497 7  92917787.05644
     -1716.858       -1337.806
  23081652.081    23081651.6664   23081652.1084  121294892.084 7  94515534.32643
      2551.625        1988.253
  21538271.898    21538271.5904   21538273.8764  113184380.944 8  88195642.29646
      -387.913        -302.287
  22594824.270    22594823.9504   22594825.3894  118736600.407 7  92522044.30144
     -1122.037        -874.312
  24208780.186    24208780.4014   24208784.3344  127218019.225 5  99130918.43641
      4049.780        3155.674
  22710618.264    22710617.9764   22710620.0534  119345131.666 7  92996219.61644
       869.356         677.430
  23448080.743    23448081.3474   23448082.7634  123220487.835 6  96015976.59144
     -3234.644       -2520.537
 08  5  5 14  9  0.0000000  0 13G 3G 6G 7G 8G10G13G16G21G24G25G26G27
                                G29
  24397421.054    24397420.8534   24397423.5204  128209310.115 5  99903378.05542
      3260.632        2540.776
  22921129.250    22921128.8134   22921130.9154  120451362.373 6  93858221.16443
      1681.764        1310.426
  22214310.643    22214311.0084   22214311.6534  116737014.746 7  90963929.33445
       620.472         483.474
  23878322.828    23878322.6214   23878324.7794  125481454.654 6  97777789.99442
      3157.154        2460.111
  21243907.975    21243907.3184   21243909.2174  111637488.406 8  86990270.44445
     -1119.319        -872.209
  23555253.534    23555252.8484   23555253.7164  123783675.221 6  96454825.91742
     -3654.539       -2847.720
  22701322.187    22701322.2934   22701322.8154  119296266.884 7  92958135.39244
     -1735.602       -1352.421
  23067118.817    23067118.1014   23067118.4424  121218518.839 7  94456022.77443
      2539.626        1978.926
  21540541.854    21540541.4544   21540543.7014  113196309.094 8  88204936.99446
      -407.559        -317.593
  22601282.260    22601282.1094   22601283.5964  118770539.541 7  92548490.40844
     -1140.821        -888.964
  24185674.822    24185680.2764   24185679.9964  127096609.624 5  99036313.41441
      4043.697        3150.940
  22705703.523    22705702.8734   22705704.8874  119319302.126 7  92976092.71344
       852.467         664.237
  23466577.986    23466578.8464   23466579.8984  123317694.325 6  96091721.93043
     -3246.123       -2529.460
 08  5  5 14  9 30.0000000  0 13G 3G 6G 7G 8G10G13G16G21G24G25G26G27
                                G29
  24378837.044    24378837.8444   24378839.1174  128111650.322 5  99827279.54542
      3250.688        2533.016
  22911577.132    22911576.5714   22911579.4284  120401164.486 6  93819105.95143
      1664.827        1297.244
  22210830.279    22210830.9124   22210831.7684  116718726.927 7  90949679.08445
       598.863         466.635
  23860330.594    23860330.2784   23860333.1714  125386904.924 6  97704114.87042
      3146.086        2451.516
  21250358.966    21250358.2504   21250360.1004  111671388.389 8  87016685.97946
     -1140.571        -888.774
  23576149.099    23576148.6334   23576149.7414  123893482.393 6  96540389.91142
     -3665.849       -2856.503
  22711286.410    22711286.3864   22711287.5344  119348628.655 7  92998936.78644
     -1755.094       -1367.582
  23052656.696    23052656.2364   23052657.1184  121142523.469 7  94396805.61844
      2526.794        1968.922
  21542926.432    21542926.2374   21542928.5524  113208841.175 8  88214702.27446
      -427.811        -333.361
  22607850.549    22607850.1584   22607851.4984  118805054.763 7  92575385.38044
     -1160.079        -903.954
  24162609.677    24162610.4084   24162616.4904  126975402.515 4  98941866.45841
      4036.129        3145.067
  22700887.811    22700887.8264   22700889.3794  119293996.720 7  92956374.21844
       834.786         650.495
  23485145.755    23485145.7194   23485147.8844  123415266.053 6  96167751.84643
     -3258.417       -2539.024
 08  5  5 14 10  0.0000000  0 13G 3G 6G 7G 8G10G13G16G21G24G25G26G27
                                G29
  24360309.597    24360309.1794   24360310.9914  128014285.776 5  99751411.09642
      3240.069        2524.746
  22902121.106    22902120.8924   22902123.2904  120351473.516 6  93780385.73144
      1647.520        1283.778
  22207472.183    22207472.1714   22207473.0584  116701078.735 7  90935927.24545
       577.239         449.795
  23842401.314    23842400.8214   23842403.0834  125292685.132 6  97630696.88642
      3134.657        2442.584
  21256930.159    21256929.5894   21256931.4484  111705920.187 8  87043593.74146
     -1162.027        -905.488
  23597107.372    23597107.7124   23597110.1594  124003622.683 6  96626213.44142
     -3677.310       -2865.449
  22721360.550    22721359.9994   22721360.9784  119401568.080 7  93040188.29244
     -1774.651       -1382.836
  23038267.670    23038266.9974   23038267.4724  121066906.448 7  94337883.29444
      2513.851        1958.872
  21545425.813    21545425.4104   21545427.6264  113221974.935 8  88224936.39246
      -448.151        -349.217
  22614527.281    22614527.0574   22614528.7864  118840143.177 7  92602727.02144
     -1179.545        -919.110
  24139582.525    24139585.6204   24139587.8414  126854397.369 5  98847576.60941
      4029.461        3139.895
  22696171.755    22696171.6754   22696173.7164  119269214.147 7  92937063.13844
       817.157         636.738
  23503781.303    23503781.8464   23503783.4454  123513198.379 6  96244062.79043
     -3270.693       -2548.618
 08  5  5 14 10 30.0000000  0 13G 3G 6G 7G 8G10G13G16G21G24G25G26G27
                                G29
  24341836.379    24341837.0634   24341840.1654  127917214.471 5  99675771.12542
      3230.450        2517.255
  22892760.898    22892761.1054   22892762.7724  120302287.023 6  93742058.64744
      1630.724        1270.695
  22204235.143    22204235.1694   22204235.7154  116684066.633 7  90922671.03945
       556.205         433.407
  23824533.521    23824533.4424   23824536.2104  125198793.113 6  97557534.29042
      3123.831        2434.151
  21263620.643    21263619.9414   21263622.0074  111741078.846 8  87070990.06146
     -1182.802        -921.662
  23618128.577    23618129.0584   23618130.4154  124114088.148 6  96712290.34242
     -3687.828       -2873.675
  22731543.338    22731542.8544   22731544.2014  119455078.896 6  93081885.04744
     -1793.623       -1397.636
  23023949.987    23023949.2904   23023949.3934  120991665.425 7  94279253.96643
      2501.317        1949.078
  21548038.982    21548038.4724   21548040.7424  113235705.849 8  88235635.81046
      -468.099        -364.747
  22621312.234    22621312.2064   22621313.8234  118875798.906 7  92630510.70344
     -1198.374        -933.784
  24116592.972    24116599.6124   24116600.2894  126733593.690 5  98753443.89141
      4022.931        3134.680
  22691554.959    22691554.4434   22691556.2694  119244950.775 7  92918156.61644
       799.603         623.061
  23522484.536    23522484.9774   23522486.1434  123611484.175 6  96320649.14843
     -3282.225       -2557.576
 08  5  5 14 11  0.0000000  0 13G 3G 6G 7G 8G10G13G16G21G24G25G26G27
                                G29
  24323422.787    24323422.4824   24323426.1064  127820446.003 5  99600367.17642
      3220.044        2509.094
  22883498.147    22883498.2624   22883500.2244  120253612.394 6  93704130.39244
      1613.355        1257.158
  22201119.998    22201120.1984   22201120.7624  116667697.629 7  90909915.97845
       534.268         416.294
  23806731.027    23806731.2564   23806734.0354  125105238.334 6  97484634.49542
      3112.159        2425.048
  21270431.642    21270430.7544   21270432.7364  111776869.292 8  87098878.65846
     -1204.228        -938.367
  23639212.003    23639212.6194   23639213.7074  124224882.197 6  96798623.24742
     -3699.375       -2882.640
  22741836.042    22741835.5334   22741836.4694  119509165.777 6  93124030.65144
     -1813.059       -1412.793
  23009705.392    23009704.8904   23009705.2684  120916808.989 7  94220924.31444
      2488.235        1938.871
  21550766.100    21550765.9784   21550768.3364  113250039.716 8  88246805.06346
      -488.494        -380.655
  22628206.590    22628206.8214   22628207.9784  118912027.412 7  92658740.72744
     -1217.797        -948.956
  24093648.432    24093648.9144   24093653.7104  126613000.330 5  98659475.11441
      4015.543        3129.066
  22687037.474    22687037.6184   22687039.6494  119221213.817 7  92899660.29944
       781.723         609.109
  23541256.144    23541256.2554   23541257.6814  123710127.204 6  96397513.87643
     -3294.680       -2567.296
 08  5  5 14 11 30.0000000  0 13G 3G 6G 7G 8G10G13G16G21G24G25G26G27
                                G29
  24305067.688    24305067.1894   24305070.7554  127723987.862 5  99525205.00642
      3209.893        2501.174
  22874334.847    22874334.6014   22874337.2634  120205457.197 7  93666606.86544
      1596.762        1244.210
  22198128.745    22198128.6884   22198129.4414  116651977.833 7  90897666.79645
       513.282         399.962
  23788993.201    23788993.4394   23788995.5254  125012028.719 6  97412003.64242
      3101.364        2416.636
  21277363.039    21277362.2494   21277364.2554  111813295.617 8  87127262.84746
     -1224.620        -954.246
  23660358.222    23660359.5644   23660359.9764  124336007.742 6  96885214.52242
     -3709.637       -2890.637
  22752238.911    22752238.1524   22752239.0524  119563832.268 6  93166627.95244
     -1831.647       -1427.288
  22995534.646    22995534.4064   22995534.8094  120842344.679 7  94162900.20744
      2475.842        1929.213
  21553609.604    21553609.2914   21553611.6484  113264981.340 8  88258447.89046
      -508.011        -395.861
  22635210.415    22635210.1694   22635211.5724  118948833.053 7  92687420.44444
     -1236.360        -963.421
  24070740.626    24070741.5624   24070743.7304  126492626.251 5  98565677.19641
      4009.164        3124.054
  22682621.755    22682621.9184   22682623.8274  119198009.551 7  92881579.05544
       764.685         595.866
  23560095.722    23560095.7374   23560097.4154  123809129.906 6  96474658.86643
     -3305.880       -2576.018
 08  5  5 14 12  0.0000000  0 13G 3G 6G 7G 8G10G13G16G21G24G25G26G27
                                G29
  24286772.227    24286771.5854   24286774.8374  127627843.043 5  99450287.00742
      3199.393        2493.005
  22865270.589    22865270.1554   22865272.2614  120157823.058 6  93629489.37044
      1579.425        1230.721
  22195260.834    22195261.1684   22195261.9324  116636908.259 7  90885924.28745
       491.652         383.107
  23771323.059    23771322.4524   23771324.9884  124919167.363 6  97339644.17942
      3089.638        2407.492
  21284415.372    21284414.7924   21284416.7664  111850356.428 8  87156141.33746
     -1245.843        -970.773
  23681568.030    23681567.4414   23681569.1504  124447461.903 5  96972061.85342
     -3720.718       -2899.221
  22762751.180    22762750.5364   22762751.4454  119619076.459 7  93209675.38744
     -1850.944       -1442.262
  22981439.598    22981439.5324   22981439.7214  120768275.052 7  94105183.64344
      2462.439        1918.772
  21556568.541    21556568.3104   21556570.4294  113280530.867 8  88270564.40546
      -528.416        -411.756
  22642324.021    22642323.5294   22642325.1764  118986214.415 7  92716548.76444
     -1255.389        -978.233
  24047879.587    24047880.3874   24047882.1894  126372474.112 5  98472052.31341
      4001.371        3118.006
  22678308.460    22678307.3674   22678309.8224  119175338.627 7  92863913.38744
       746.997         582.093
  23579003.645    23579003.3344   23579004.5954  123908489.996 6  96552082.33543
     -3317.817       -2585.319
 08  5  5 14 12 30.0000000  0 13G 3G 6G 7G 8G10G13G16G21G24G25G26G27
                                G29
  24268533.067    24268533.9764   24268535.9374  127532001.337 5  99375605.17841
      3189.137        2485.090
  22856302.854    22856302.3444   22856304.4244  120110698.441 6  93592768.89344
      1561.773        1216.974
  22192514.439    22192515.0144   22192515.4044  116622476.000 7  90874678.37045
       469.845         366.120
  23753717.130    23753714.8744   23753718.8164  124826643.263 6  97267547.51542
      3078.046        2398.486
  21291586.323    21291585.2724   21291587.5064  111888037.412 8  87185503.02646
     -1266.893        -987.180
  23702836.551    23702836.6354   23702837.6004  124559228.138 5  97059152.38342
     -3731.330       -2907.478
  22773370.941    22773370.7324   22773371.5224  119674883.281 7  93253161.19644
     -1870.105       -1457.195
  22967417.577    22967416.9744   22967417.9954  120694588.369 7  94047765.45444
      2449.183        1908.465
  21559640.671    21559640.3254   21559642.5404  113296674.352 8  88283143.75446
      -548.471        -427.368
  22649544.155    22649543.9654   22649545.2284  119024157.076 7  92746114.50244
     -1274.638        -993.201
  24025049.880    24025055.6264   24025056.5024  126252533.294 5  98378591.90441
      3993.615        3111.940
  22674092.611    22674092.5674   22674094.7874  119153188.757 7  92846653.75944
       729.258         568.266
  23597976.009    23597975.8544   23597977.1244  124008191.346 6  96629771.71443
     -3329.472       -2594.411
 08  5  5 14 13  0.0000000  0 13G 3G 6G 7G 8G10G13G16G21G24G25G26G27
                                G29
  24250357.613    24250356.6784   24250358.5714  127436485.814 5  99301177.51041
      3178.281        2476.632
  22847436.465    22847436.5534   22847438.7554  120064105.295 6  93556462.57544
      1543.782        1202.939
  22189893.732    22189893.7954   22189894.3414  116608702.409 7  90863945.72845
       447.610         348.803
  23736177.455    23736176.8694   23736180.0014  124734479.889 6  97195731.94842
      3065.725        2388.908
  21298878.286    21298877.5214   21298879.8384  111926358.085 8  87215363.26146
     -1288.456       -1003.983
  23724167.256    23724167.0734   23724168.1744  124671324.066 6  97146499.83442
     -3742.520       -2916.234
  22784100.879    22784100.5764   22784101.3284  119731271.609 6  93297100.15544
     -1889.499       -1472.303
  22953472.767    22953472.4254   22953472.2214  120621307.663 6  93990663.61144
      2435.503        1897.807
  21562829.408    21562829.2024   21562831.6604  113313432.121 8  88296201.76146
      -569.119        -443.463
  22656874.791    22656874.7554   22656875.9544  119062680.677 7  92776132.92544
     -1294.293       -1008.533
  24002274.931    24002273.7354   24002276.2334  126132827.477 5  98285314.53641
      3986.018        3106.021
  22669981.165    22669980.9354   22669982.9024  119131581.232 7  92829816.72344
       710.834         553.898
  23617016.495    23617016.8904   23617018.5264  124108251.764 6  96707740.84343
     -3341.739       -2603.941
 08  5  5 14 13 30.0000000  0 13G 3G 6G 7G 8G10G13G16G21G24G25G26G27
                                G29
  24232240.206    24232240.1914   24232242.7664  127341279.945 5  99226991.13841
      3168.470        2468.939
  22838668.400    22838667.9584   22838669.7184  120018026.156 6  93520556.75644
      1527.386        1190.177
  22187394.343    22187394.3644   22187394.9864  116595568.796 7  90853711.74245
       426.961         332.713
  23718704.867    23718704.3784   23718707.4044  124642660.714 6  97124184.58042
      3054.712        2380.277
  21306288.017    21306287.5474   21306289.4764  111965297.229 8  87245705.44046
     -1308.313       -1019.469
  23745557.082    23745558.6094   23745558.0744  124783727.628 5  97234087.00042
     -3751.757       -2923.393
  22794938.518    22794937.5324   22794939.1374  119788220.276 7  93341475.76644
     -1907.623       -1486.468
  22939601.614    22939600.9334   22939601.3524  120548415.807 7  93933864.76644
      2423.266        1888.268
  21566131.623    21566131.2834   21566133.5344  113330784.428 7  88309723.05246
      -588.420        -458.503
  22664312.219    22664312.1044   22664313.4784  119101764.339 7  92806587.77344
     -1312.297       -1022.555
  23979539.896    23979537.7884   23979541.0454  126013341.076 5  98192208.32441
      3979.055        3100.533
  22665969.123    22665968.5534   22665970.9814  119110497.513 7  92813387.85944
       693.881         540.676
  23636121.818    23636121.6844   23636123.1224  124208649.669 6  96785973.00043
     -3352.166       -2612.071
 08  5  5 14 14  0.0000000  0 13G 3G 6G 7G 8G10G13G16G21G24G25G26G27
                                G29
  24214185.582    24214184.3514   24214188.3144  127246397.603 5  99153056.84141
      3157.695        2460.448
  22829999.147    22829999.3434   22830001.6574  119972473.412 7  93485061.16344
      1509.812        1176.486
  22185018.989    22185019.3124   22185019.9134  116583086.559 7  90843985.35045
       405.364         315.871
  23701300.278    23701300.1314   23701303.2114  124551199.360 5  97052916.02842
      3042.765        2370.980
  21313817.872    21313816.8424   21313819.1654  112004864.961 8  87276537.44446
     -1329.268       -1035.807
  23767007.602    23767006.5854   23767010.5074  124896447.316 6  97321920.50242
     -3762.309       -2931.670
  22805883.294    22805882.9634   22805883.6074  119845737.588 7  93386294.45244
     -1926.516       -1501.218
  22925807.393    22925806.7354   22925807.6404  120475925.677 7  93877378.96644
      2410.000        1877.913
  21569548.653    21569548.2844   21569550.5004  113348741.479 8  88323715.56146
      -608.499        -474.166
  22671858.074    22671857.7014   22671859.2894  119141417.689 7  92837486.51544
     -1331.024       -1037.141
  23956843.973    23956844.2744   23956847.7414  125894087.634 5  98099283.62441
      3971.402        3094.645
  22662058.657    22662058.2434   22662060.7424  119089949.165 7  92797376.16744
       675.923         526.692
  23655292.401    23655292.6574   23655293.5364  124309392.812 6  96864474.16743
     -3363.729       -2621.103
